Time,TemperatureF,DewpointF,PressureIn,WindDirection,WindDirectionDegrees,WindSpeedMPH,WindSpeedGustMPH,Humidity,HourlyPrecipIn,Conditions,Clouds,dailyrainin,SoftwareType,DateUTC
2013-02-24 00:00:00,44.2,28.2,29.94,SSE,158,3.4,5.8,53,0.00,,---,0.00,VWS V14.01,2013-02-24 06:00:00,
2013-02-24 00:01:00,44.4,28.3,29.94,ESE,112,3.4,4.0,53,0.00,,---,0.00,VWS V14.01,2013-02-24 06:01:00,
2013-02-24 00:02:00,44.4,27.9,29.94,NNE,22,2.0,3.4,52,0.00,,---,0.00,VWS V14.01,2013-02-24 06:02:00,
2013-02-24 00:03:00,44.2,27.7,29.94,ESE,112,1.3,2.7,52,0.00,,---,0.00,VWS V14.01,2013-02-24 06:03:00,
2013-02-24 00:04:00,44.2,27.7,29.94,ESE,112,2.5,2.5,52,0.00,,---,0.00,VWS V14.01,2013-02-24 06:04:00,
2013-02-24 00:05:00,44.0,28.0,29.94,SE,135,1.6,2.7,53,0.00,,---,0.00,VWS V14.01,2013-02-24 06:05:00,
2013-02-24 00:06:00,44.2,27.7,29.94,ESE,112,3.1,3.8,52,0.00,,---,0.00,VWS V14.01,2013-02-24 06:06:00,
2013-02-24 00:07:00,44.2,28.2,29.94,East,90,4.3,4.3,53,0.00,,---,0.00,VWS V14.01,2013-02-24 06:07:00,
2013-02-24 00:08:00,44.2,28.2,29.94,NE,45,4.7,4.7,53,0.00,,---,0.00,VWS V14.01,2013-02-24 06:08:00,
2013-02-24 00:09:00,44.2,28.2,29.94,ESE,112,2.5,4.7,53,0.00,,---,0.00,VWS V14.01,2013-02-24 06:09:00,
2013-02-24 00:10:00,43.7,27.7,29.94,SSE,158,2.9,3.6,53,0.00,,---,0.00,VWS V14.01,2013-02-24 06:10:00,
2013-02-24 00:11:00,44.2,28.2,29.94,SSE,158,3.8,4.3,53,0.00,,---,0.00,VWS V14.01,2013-02-24 06:11:00,
2013-02-24 00:12:00,44.2,28.2,29.94,ENE,68,4.7,4.7,53,0.00,,---,0.00,VWS V14.01,2013-02-24 06:12:00,
2013-02-24 00:13:00,44.2,28.2,29.94,East,90,3.1,5.8,53,0.00,,---,0.00,VWS V14.01,2013-02-24 06:13:00,
2013-02-24 00:14:00,44.0,28.0,29.94,SE,135,1.6,3.1,53,0.00,,---,0.00,VWS V14.01,2013-02-24 06:14:00,
2013-02-24 00:15:00,43.3,27.4,29.94,ESE,112,2.2,2.2,53,0.00,,---,0.00,VWS V14.01,2013-02-24 06:15:00,
2013-02-24 00:16:00,44.0,28.0,29.94,SE,135,3.4,3.8,53,0.00,,---,0.00,VWS V14.01,2013-02-24 06:16:00,
2013-02-24 00:17:00,44.0,28.0,29.94,SE,135,2.7,3.4,53,0.00,,---,0.00,VWS V14.01,2013-02-24 06:17:00,
2013-02-24 00:18:00,43.8,27.8,29.94,ESE,112,2.7,2.7,53,0.00,,---,0.00,VWS V14.01,2013-02-24 06:18:00,
2013-02-24 00:19:00,43.8,27.8,29.94,SE,135,2.7,2.7,53,0.00,,---,0.00,VWS V14.01,2013-02-24 06:19:00,
2013-02-24 00:20:00,43.1,27.2,29.91,SE,135,2.0,2.0,53,0.00,,---,0.00,VWS V14.01,2013-02-24 06:20:00,
2013-02-24 00:21:00,43.7,27.7,29.94,SE,135,1.3,2.2,53,0.00,,---,0.00,VWS V14.01,2013-02-24 06:21:00,
2013-02-24 00:22:00,43.7,27.7,29.94,ESE,112,3.6,3.6,53,0.00,,---,0.00,VWS V14.01,2013-02-24 06:22:00,
2013-02-24 00:23:00,43.7,27.7,29.94,SSE,158,2.9,3.6,53,0.00,,---,0.00,VWS V14.01,2013-02-24 06:23:00,
2013-02-24 00:24:00,43.5,27.5,29.94,ESE,112,3.4,3.4,53,0.00,,---,0.00,VWS V14.01,2013-02-24 06:24:00,
2013-02-24 00:25:00,43.5,27.5,29.94,SE,135,2.7,4.3,53,0.00,,---,0.00,VWS V14.01,2013-02-24 06:25:00,
2013-02-24 00:26:00,42.8,26.9,29.91,ESE,112,0.0,0.0,53,0.00,,---,0.00,VWS V14.01,2013-02-24 06:26:00,
2013-02-24 00:27:00,43.5,27.5,29.94,South,180,1.3,2.7,53,0.00,,---,0.00,VWS V14.01,2013-02-24 06:27:00,
2013-02-24 00:28:00,43.3,27.4,29.94,SE,135,1.3,2.2,53,0.00,,---,0.00,VWS V14.01,2013-02-24 06:28:00,
2013-02-24 00:29:00,43.3,27.4,29.94,SSE,158,2.0,3.8,53,0.00,,---,0.00,VWS V14.01,2013-02-24 06:29:00,
2013-02-24 00:30:00,43.3,27.4,29.94,South,180,2.9,2.9,53,0.00,,---,0.00,VWS V14.01,2013-02-24 06:30:00,
2013-02-24 00:31:00,42.6,26.7,29.91,South,180,1.6,1.6,53,0.00,,---,0.00,VWS V14.01,2013-02-24 06:31:00,
2013-02-24 00:32:00,43.1,27.2,29.91,SSE,158,1.6,3.1,53,0.00,,---,0.00,VWS V14.01,2013-02-24 06:32:00,
2013-02-24 00:33:00,43.1,27.2,29.91,SE,135,2.9,2.9,53,0.00,,---,0.00,VWS V14.01,2013-02-24 06:33:00,
2013-02-24 00:34:00,43.1,27.2,29.91,SSE,158,1.3,2.9,53,0.00,,---,0.00,VWS V14.01,2013-02-24 06:34:00,
2013-02-24 00:35:00,43.1,27.2,29.91,SSE,158,1.6,2.5,53,0.00,,---,0.00,VWS V14.01,2013-02-24 06:35:00,
2013-02-24 00:36:00,42.4,26.5,29.94,South,180,2.2,2.5,53,0.00,,---,0.00,VWS V14.01,2013-02-24 06:36:00,
2013-02-24 00:37:00,42.8,26.9,29.91,SSE,158,0.0,1.6,53,0.00,,---,0.00,VWS V14.01,2013-02-24 06:37:00,
2013-02-24 00:38:00,42.8,26.9,29.91,ESE,112,2.0,2.0,53,0.00,,---,0.00,VWS V14.01,2013-02-24 06:38:00,
2013-02-24 00:39:00,42.6,26.7,29.91,ESE,112,2.0,2.0,53,0.00,,---,0.00,VWS V14.01,2013-02-24 06:39:00,
2013-02-24 00:40:00,42.6,26.7,29.91,South,180,0.0,2.0,53,0.00,,---,0.00,VWS V14.01,2013-02-24 06:40:00,
2013-02-24 00:41:00,42.4,27.0,29.94,SSE,158,0.0,1.6,54,0.00,,---,0.00,VWS V14.01,2013-02-24 06:41:00,
2013-02-24 00:42:00,42.6,26.7,29.91,South,180,1.3,1.3,53,0.00,,---,0.00,VWS V14.01,2013-02-24 06:42:00,
2013-02-24 00:43:00,42.6,26.7,29.91,South,180,2.0,2.9,53,0.00,,---,0.00,VWS V14.01,2013-02-24 06:43:00,
2013-02-24 00:44:00,42.6,26.7,29.91,South,180,0.9,2.0,53,0.00,,---,0.00,VWS V14.01,2013-02-24 06:44:00,
2013-02-24 00:45:00,42.6,26.7,29.91,South,180,1.6,1.6,53,0.00,,---,0.00,VWS V14.01,2013-02-24 06:45:00,
2013-02-24 00:46:00,42.1,27.1,29.94,SE,135,2.0,2.5,55,0.00,,---,0.00,VWS V14.01,2013-02-24 06:46:00,
2013-02-24 00:47:00,42.4,26.5,29.94,South,180,2.5,2.5,53,0.00,,---,0.00,VWS V14.01,2013-02-24 06:47:00,
2013-02-24 00:48:00,42.4,26.5,29.94,South,180,1.6,2.5,53,0.00,,---,0.00,VWS V14.01,2013-02-24 06:48:00,
2013-02-24 00:49:00,42.4,26.5,29.94,South,180,1.6,2.0,53,0.00,,---,0.00,VWS V14.01,2013-02-24 06:49:00,
2013-02-24 00:50:00,42.4,27.0,29.94,South,180,1.3,2.0,54,0.00,,---,0.00,VWS V14.01,2013-02-24 06:50:00,
2013-02-24 00:51:00,41.9,27.8,29.94,SSE,158,2.5,2.7,57,0.00,,---,0.00,VWS V14.01,2013-02-24 06:51:00,
2013-02-24 00:52:00,42.4,27.0,29.94,SSE,158,1.6,2.0,54,0.00,,---,0.00,VWS V14.01,2013-02-24 06:52:00,
2013-02-24 00:53:00,42.2,26.8,29.94,SSE,158,2.0,2.0,54,0.00,,---,0.00,VWS V14.01,2013-02-24 06:53:00,
2013-02-24 00:54:00,42.2,26.8,29.94,SSE,158,3.4,3.4,54,0.00,,---,0.00,VWS V14.01,2013-02-24 06:54:00,
2013-02-24 00:55:00,42.1,26.6,29.94,SE,135,2.0,3.4,54,0.00,,---,0.00,VWS V14.01,2013-02-24 06:55:00,
2013-02-24 00:56:00,42.1,28.4,29.94,ESE,112,3.6,4.3,58,0.00,,---,0.00,VWS V14.01,2013-02-24 06:56:00,
2013-02-24 00:57:00,42.1,27.1,29.94,SE,135,2.5,2.5,55,0.00,,---,0.00,VWS V14.01,2013-02-24 06:57:00,
2013-02-24 00:58:00,42.1,27.1,29.94,ESE,112,2.2,2.5,55,0.00,,---,0.00,VWS V14.01,2013-02-24 06:58:00,
2013-02-24 00:59:00,42.1,27.5,29.94,SE,135,1.6,2.7,56,0.00,,---,0.00,VWS V14.01,2013-02-24 06:59:00,
2013-02-24 01:00:00,41.9,27.4,29.94,SE,135,1.6,2.9,56,0.00,,---,0.00,VWS V14.01,2013-02-24 07:00:00,
2013-02-24 01:01:00,42.1,28.4,29.94,South,180,2.0,2.0,58,0.00,,---,0.00,VWS V14.01,2013-02-24 07:01:00,
2013-02-24 01:02:00,41.9,27.4,29.94,SSE,158,2.7,2.9,56,0.00,,---,0.00,VWS V14.01,2013-02-24 07:02:00,
2013-02-24 01:03:00,41.9,27.8,29.94,ESE,112,2.5,2.7,57,0.00,,---,0.00,VWS V14.01,2013-02-24 07:03:00,
2013-02-24 01:04:00,41.9,27.8,29.94,SE,135,2.9,3.1,57,0.00,,---,0.00,VWS V14.01,2013-02-24 07:04:00,
2013-02-24 01:05:00,42.1,28.0,29.94,SE,135,3.1,3.1,57,0.00,,---,0.00,VWS V14.01,2013-02-24 07:05:00,
2013-02-24 01:06:00,41.9,27.8,29.94,SE,135,1.6,2.2,57,0.00,,---,0.00,VWS V14.01,2013-02-24 07:06:00,
2013-02-24 01:07:00,42.1,28.4,29.94,SSE,158,4.0,4.3,58,0.00,,---,0.00,VWS V14.01,2013-02-24 07:07:00,
2013-02-24 01:08:00,42.1,28.4,29.94,SE,135,3.1,4.3,58,0.00,,---,0.00,VWS V14.01,2013-02-24 07:08:00,
2013-02-24 01:09:00,42.1,28.4,29.94,SE,135,1.1,3.1,58,0.00,,---,0.00,VWS V14.01,2013-02-24 07:09:00,
2013-02-24 01:10:00,42.1,28.4,29.94,South,180,3.6,3.6,58,0.00,,---,0.00,VWS V14.01,2013-02-24 07:10:00,
2013-02-24 01:11:00,41.7,27.6,29.94,East,90,2.9,2.9,57,0.00,,---,0.00,VWS V14.01,2013-02-24 07:11:00,
2013-02-24 01:12:00,42.1,28.4,29.94,SSE,158,1.3,2.2,58,0.00,,---,0.00,VWS V14.01,2013-02-24 07:12:00,
2013-02-24 01:13:00,42.1,28.4,29.94,South,180,2.0,2.2,58,0.00,,---,0.00,VWS V14.01,2013-02-24 07:13:00,
2013-02-24 01:14:00,42.1,28.4,29.94,SE,135,2.0,2.0,58,0.00,,---,0.00,VWS V14.01,2013-02-24 07:14:00,
2013-02-24 01:15:00,42.1,28.0,29.94,SE,135,2.0,2.2,57,0.00,,---,0.00,VWS V14.01,2013-02-24 07:15:00,
2013-02-24 01:16:00,41.9,28.6,29.94,ESE,112,3.8,3.8,59,0.00,,---,0.00,VWS V14.01,2013-02-24 07:16:00,
2013-02-24 01:17:00,41.9,27.8,29.94,ESE,112,2.2,2.5,57,0.00,,---,0.00,VWS V14.01,2013-02-24 07:17:00,
2013-02-24 01:18:00,41.9,27.8,29.94,SE,135,1.1,2.2,57,0.00,,---,0.00,VWS V14.01,2013-02-24 07:18:00,
2013-02-24 01:19:00,41.9,27.8,29.94,ESE,112,3.6,3.6,57,0.00,,---,0.00,VWS V14.01,2013-02-24 07:19:00,
2013-02-24 01:20:00,41.9,27.8,29.94,SE,135,2.7,3.6,57,0.00,,---,0.00,VWS V14.01,2013-02-24 07:20:00,
2013-02-24 01:21:00,41.7,28.0,29.94,SSE,158,2.5,2.5,58,0.00,,---,0.00,VWS V14.01,2013-02-24 07:21:00,
2013-02-24 01:22:00,41.7,27.6,29.94,NE,45,2.9,2.9,57,0.00,,---,0.00,VWS V14.01,2013-02-24 07:22:00,
2013-02-24 01:23:00,41.7,28.0,29.94,East,90,2.2,2.9,58,0.00,,---,0.00,VWS V14.01,2013-02-24 07:23:00,
2013-02-24 01:24:00,41.7,28.0,29.94,East,90,1.6,2.9,58,0.00,,---,0.00,VWS V14.01,2013-02-24 07:24:00,
2013-02-24 01:25:00,41.7,28.0,29.94,ESE,112,2.0,2.7,58,0.00,,---,0.00,VWS V14.01,2013-02-24 07:25:00,
2013-02-24 01:26:00,41.7,28.5,29.94,SSE,158,3.4,3.4,59,0.00,,---,0.00,VWS V14.01,2013-02-24 07:26:00,
2013-02-24 01:27:00,41.9,28.6,29.94,East,90,2.5,3.6,59,0.00,,---,0.00,VWS V14.01,2013-02-24 07:27:00,
2013-02-24 01:28:00,41.9,28.6,29.94,South,180,2.0,3.8,59,0.00,,---,0.00,VWS V14.01,2013-02-24 07:28:00,
2013-02-24 01:29:00,41.9,28.6,29.94,SSE,158,2.0,2.7,59,0.00,,---,0.00,VWS V14.01,2013-02-24 07:29:00,
2013-02-24 01:30:00,41.9,28.6,29.94,SE,135,0.9,2.2,59,0.00,,---,0.00,VWS V14.01,2013-02-24 07:30:00,
2013-02-24 01:31:00,41.4,28.5,29.94,ESE,112,2.9,3.6,60,0.00,,---,0.00,VWS V14.01,2013-02-24 07:31:00,
2013-02-24 01:32:00,41.9,28.2,29.94,SSE,158,2.0,2.5,58,0.00,,---,0.00,VWS V14.01,2013-02-24 07:32:00,
2013-02-24 01:33:00,41.7,28.0,29.94,SE,135,2.5,2.5,58,0.00,,---,0.00,VWS V14.01,2013-02-24 07:33:00,
2013-02-24 01:34:00,41.7,28.5,29.94,East,90,4.7,4.7,59,0.00,,---,0.00,VWS V14.01,2013-02-24 07:34:00,
2013-02-24 01:35:00,41.9,29.0,29.94,SE,135,1.6,4.7,60,0.00,,---,0.00,VWS V14.01,2013-02-24 07:35:00,
2013-02-24 01:36:00,40.8,28.8,29.94,South,180,0.0,2.0,62,0.00,,---,0.00,VWS V14.01,2013-02-24 07:36:00,
2013-02-24 01:37:00,41.7,28.5,29.94,ESE,112,1.6,2.7,59,0.00,,---,0.00,VWS V14.01,2013-02-24 07:37:00,
2013-02-24 01:38:00,41.7,28.9,29.94,SSE,158,2.7,3.4,60,0.00,,---,0.00,VWS V14.01,2013-02-24 07:38:00,
2013-02-24 01:39:00,41.5,28.3,29.94,SE,135,2.5,2.7,59,0.00,,---,0.00,VWS V14.01,2013-02-24 07:39:00,
2013-02-24 01:40:00,41.5,28.3,29.94,SE,135,1.3,2.7,59,0.00,,---,0.00,VWS V14.01,2013-02-24 07:40:00,
2013-02-24 01:41:00,40.7,28.3,29.94,SSE,158,1.6,1.6,61,0.00,,---,0.00,VWS V14.01,2013-02-24 07:41:00,
2013-02-24 01:42:00,41.4,28.5,29.94,ENE,68,0.9,2.0,60,0.00,,---,0.00,VWS V14.01,2013-02-24 07:42:00,
2013-02-24 01:43:00,41.4,28.5,29.94,ESE,112,2.9,3.6,60,0.00,,---,0.00,VWS V14.01,2013-02-24 07:43:00,
2013-02-24 01:44:00,41.4,28.9,29.94,SE,135,2.0,2.9,61,0.00,,---,0.00,VWS V14.01,2013-02-24 07:44:00,
2013-02-24 01:45:00,41.2,28.8,29.94,SSE,158,2.0,2.7,61,0.00,,---,0.00,VWS V14.01,2013-02-24 07:45:00,
2013-02-24 01:46:00,40.7,28.3,29.94,South,180,0.9,1.6,61,0.00,,---,0.00,VWS V14.01,2013-02-24 07:46:00,
2013-02-24 01:47:00,41.0,29.0,29.94,South,180,2.0,2.2,62,0.00,,---,0.00,VWS V14.01,2013-02-24 07:47:00,
2013-02-24 01:48:00,40.8,28.8,29.94,South,180,1.6,2.0,62,0.00,,---,0.00,VWS V14.01,2013-02-24 07:48:00,
2013-02-24 01:49:00,40.8,28.8,29.94,South,180,0.0,1.6,62,0.00,,---,0.00,VWS V14.01,2013-02-24 07:49:00,
2013-02-24 01:50:00,40.8,28.4,29.94,South,180,0.0,0.9,61,0.00,,---,0.00,VWS V14.01,2013-02-24 07:50:00,
2013-02-24 01:51:00,40.5,28.1,29.94,ESE,112,2.5,3.6,61,0.00,,---,0.00,VWS V14.01,2013-02-24 07:51:00,
2013-02-24 01:52:00,40.7,28.3,29.94,SE,135,0.0,2.0,61,0.00,,---,0.00,VWS V14.01,2013-02-24 07:52:00,
2013-02-24 01:53:00,40.7,28.3,29.94,South,180,1.1,1.6,61,0.00,,---,0.00,VWS V14.01,2013-02-24 07:53:00,
2013-02-24 01:54:00,40.7,28.3,29.94,SE,135,2.0,3.1,61,0.00,,---,0.00,VWS V14.01,2013-02-24 07:54:00,
2013-02-24 01:55:00,40.7,28.3,29.94,SE,135,2.0,2.2,61,0.00,,---,0.00,VWS V14.01,2013-02-24 07:55:00,
2013-02-24 01:56:00,40.3,28.7,29.94,ESE,112,3.4,4.0,63,0.00,,---,0.00,VWS V14.01,2013-02-24 07:56:00,
2013-02-24 01:57:00,40.7,28.3,29.94,South,180,1.3,2.5,61,0.00,,---,0.00,VWS V14.01,2013-02-24 07:57:00,
2013-02-24 01:58:00,40.7,28.3,29.94,South,180,2.0,2.0,61,0.00,,---,0.00,VWS V14.01,2013-02-24 07:58:00,
2013-02-24 01:59:00,40.7,28.3,29.94,South,180,2.0,2.0,61,0.00,,---,0.00,VWS V14.01,2013-02-24 07:59:00,
2013-02-24 02:00:00,40.7,28.3,29.94,South,180,2.2,2.7,61,0.00,,---,0.00,VWS V14.01,2013-02-24 08:00:00,
2013-02-24 02:01:00,40.3,28.7,29.94,SE,135,1.1,3.1,63,0.00,,---,0.00,VWS V14.01,2013-02-24 08:01:00,
2013-02-24 02:02:00,40.5,28.1,29.94,SE,135,3.6,3.6,61,0.00,,---,0.00,VWS V14.01,2013-02-24 08:02:00,
2013-02-24 02:03:00,40.5,28.1,29.94,ESE,112,2.5,3.6,61,0.00,,---,0.00,VWS V14.01,2013-02-24 08:03:00,
2013-02-24 02:06:00,40.1,28.6,29.94,SE,135,2.2,2.5,63,0.00,,---,0.00,VWS V14.01,2013-02-24 08:06:00,
2013-02-24 02:07:00,40.3,28.3,29.94,ESE,112,2.9,3.6,62,0.00,,---,0.00,VWS V14.01,2013-02-24 08:07:00,
2013-02-24 02:08:00,40.3,28.7,29.94,ESE,112,3.4,4.0,63,0.00,,---,0.00,VWS V14.01,2013-02-24 08:08:00,
2013-02-24 02:09:00,40.3,28.7,29.94,ESE,112,3.8,3.8,63,0.00,,---,0.00,VWS V14.01,2013-02-24 08:09:00,
2013-02-24 02:10:00,40.3,28.7,29.94,SE,135,2.5,3.8,63,0.00,,---,0.00,VWS V14.01,2013-02-24 08:10:00,
2013-02-24 02:11:00,39.6,28.0,29.94,SE,135,1.6,1.6,63,0.00,,---,0.00,VWS V14.01,2013-02-24 08:11:00,
2013-02-24 02:12:00,40.3,28.7,29.94,East,90,2.0,3.8,63,0.00,,---,0.00,VWS V14.01,2013-02-24 08:12:00,
2013-02-24 02:13:00,40.3,28.7,29.94,SE,135,1.1,3.1,63,0.00,,---,0.00,VWS V14.01,2013-02-24 08:13:00,
2013-02-24 02:14:00,40.3,28.7,29.94,East,90,2.9,2.9,63,0.00,,---,0.00,VWS V14.01,2013-02-24 08:14:00,
2013-02-24 02:15:00,40.1,28.6,29.94,SE,135,1.6,3.4,63,0.00,,---,0.00,VWS V14.01,2013-02-24 08:15:00,
2013-02-24 02:16:00,39.2,27.7,29.94,SSE,158,1.6,1.6,63,0.00,,---,0.00,VWS V14.01,2013-02-24 08:16:00,
2013-02-24 02:17:00,40.1,28.9,29.94,SE,135,2.2,2.7,64,0.00,,---,0.00,VWS V14.01,2013-02-24 08:17:00,
2013-02-24 02:18:00,40.1,28.6,29.94,SE,135,2.2,2.5,63,0.00,,---,0.00,VWS V14.01,2013-02-24 08:18:00,
2013-02-24 02:19:00,40.0,28.4,29.94,SE,135,1.3,2.2,63,0.00,,---,0.00,VWS V14.01,2013-02-24 08:19:00,
2013-02-24 02:20:00,40.0,28.4,29.94,SE,135,0.0,1.6,63,0.00,,---,0.00,VWS V14.01,2013-02-24 08:20:00,
2013-02-24 02:21:00,38.9,27.4,29.91,SSE,158,1.3,3.1,63,0.00,,---,0.00,VWS V14.01,2013-02-24 08:21:00,
2013-02-24 02:22:00,39.8,28.2,29.94,SE,135,0.0,0.0,63,0.00,,---,0.00,VWS V14.01,2013-02-24 08:22:00,
2013-02-24 02:23:00,39.6,28.0,29.94,SE,135,1.6,1.6,63,0.00,,---,0.00,VWS V14.01,2013-02-24 08:23:00,
2013-02-24 02:24:00,39.4,27.9,29.94,SE,135,0.0,1.6,63,0.00,,---,0.00,VWS V14.01,2013-02-24 08:24:00,
2013-02-24 02:25:00,39.4,28.3,29.94,SE,135,0.0,0.0,64,0.00,,---,0.00,VWS V14.01,2013-02-24 08:25:00,
2013-02-24 02:26:00,38.9,28.5,29.91,SE,135,2.7,2.7,66,0.00,,---,0.00,VWS V14.01,2013-02-24 08:26:00,
2013-02-24 02:27:00,39.2,28.1,29.94,SSE,158,1.3,1.3,64,0.00,,---,0.00,VWS V14.01,2013-02-24 08:27:00,
2013-02-24 02:28:00,39.2,27.7,29.94,SSE,158,1.6,1.6,63,0.00,,---,0.00,VWS V14.01,2013-02-24 08:28:00,
2013-02-24 02:29:00,39.1,27.5,29.94,SSE,158,1.3,1.6,63,0.00,,---,0.00,VWS V14.01,2013-02-24 08:29:00,
2013-02-24 02:30:00,39.1,27.5,29.94,SE,135,0.9,1.6,63,0.00,,---,0.00,VWS V14.01,2013-02-24 08:30:00,
2013-02-24 02:31:00,38.9,29.2,29.91,SSE,158,2.0,3.4,68,0.00,,---,0.00,VWS V14.01,2013-02-24 08:31:00,
2013-02-24 02:32:00,38.9,27.4,29.91,SE,135,1.1,2.2,63,0.00,,---,0.00,VWS V14.01,2013-02-24 08:32:00,
2013-02-24 02:33:00,38.9,27.4,29.91,SSE,158,1.3,3.1,63,0.00,,---,0.00,VWS V14.01,2013-02-24 08:33:00,
2013-02-24 02:34:00,38.9,27.8,29.91,SE,135,2.5,2.7,64,0.00,,---,0.00,VWS V14.01,2013-02-24 08:34:00,
2013-02-24 02:35:00,39.1,27.9,29.91,SE,135,1.6,3.4,64,0.00,,---,0.00,VWS V14.01,2013-02-24 08:35:00,
2013-02-24 02:36:00,39.1,29.8,29.91,SE,135,3.8,3.8,69,0.00,,---,0.00,VWS V14.01,2013-02-24 08:36:00,
2013-02-24 02:37:00,39.1,28.3,29.91,ESE,112,1.6,2.7,65,0.00,,---,0.00,VWS V14.01,2013-02-24 08:37:00,
2013-02-24 02:38:00,38.9,28.5,29.91,SE,135,2.7,2.7,66,0.00,,---,0.00,VWS V14.01,2013-02-24 08:38:00,
2013-02-24 02:39:00,38.9,28.5,29.91,SE,135,1.6,2.9,66,0.00,,---,0.00,VWS V14.01,2013-02-24 08:39:00,
2013-02-24 02:40:00,38.9,28.9,29.91,SE,135,1.3,2.5,67,0.00,,---,0.00,VWS V14.01,2013-02-24 08:40:00,
2013-02-24 02:41:00,39.8,31.5,29.91,SE,135,4.0,4.3,72,0.00,,---,0.00,VWS V14.01,2013-02-24 08:41:00,
2013-02-24 02:42:00,38.9,28.9,29.91,SE,135,3.4,3.4,67,0.00,,---,0.00,VWS V14.01,2013-02-24 08:42:00,
2013-02-24 02:43:00,38.9,29.2,29.91,SSE,158,2.0,3.4,68,0.00,,---,0.00,VWS V14.01,2013-02-24 08:43:00,
2013-02-24 02:44:00,38.9,29.2,29.91,SE,135,1.6,2.0,68,0.00,,---,0.00,VWS V14.01,2013-02-24 08:44:00,
2013-02-24 02:45:00,38.9,29.2,29.91,SE,135,2.2,2.5,68,0.00,,---,0.00,VWS V14.01,2013-02-24 08:45:00,
2013-02-24 02:46:00,40.0,31.3,29.91,SE,135,1.6,1.6,71,0.00,,---,0.00,VWS V14.01,2013-02-24 08:46:00,
2013-02-24 02:47:00,39.1,29.4,29.91,SE,135,2.7,2.7,68,0.00,,---,0.00,VWS V14.01,2013-02-24 08:47:00,
2013-02-24 02:48:00,39.1,29.8,29.91,SE,135,3.8,4.3,69,0.00,,---,0.00,VWS V14.01,2013-02-24 08:48:00,
2013-02-24 02:49:00,39.2,30.3,29.91,SE,135,2.9,4.0,70,0.00,,---,0.00,VWS V14.01,2013-02-24 08:49:00,
2013-02-24 02:50:00,39.4,30.8,29.91,SE,135,2.7,4.3,71,0.00,,---,0.00,VWS V14.01,2013-02-24 08:50:00,
2013-02-24 02:51:00,40.1,31.1,29.88,SE,135,2.0,2.5,70,0.00,,---,0.00,VWS V14.01,2013-02-24 08:51:00,
2013-02-24 02:52:00,39.6,31.3,29.91,ESE,112,2.9,4.0,72,0.00,,---,0.00,VWS V14.01,2013-02-24 08:52:00,
2013-02-24 02:53:00,39.8,31.5,29.91,SE,135,4.3,4.3,72,0.00,,---,0.00,VWS V14.01,2013-02-24 08:53:00,
2013-02-24 02:54:00,40.0,31.7,29.91,SE,135,2.9,4.3,72,0.00,,---,0.00,VWS V14.01,2013-02-24 08:54:00,
2013-02-24 02:55:00,40.0,31.7,29.91,ESE,112,2.7,4.0,72,0.00,,---,0.00,VWS V14.01,2013-02-24 08:55:00,
2013-02-24 02:56:00,40.0,30.3,29.88,ESE,112,2.5,2.5,68,0.00,,---,0.00,VWS V14.01,2013-02-24 08:56:00,
2013-02-24 02:57:00,40.0,31.7,29.91,ESE,112,3.1,3.1,72,0.00,,---,0.00,VWS V14.01,2013-02-24 08:57:00,
2013-02-24 02:58:00,40.0,31.3,29.91,SE,135,1.6,3.1,71,0.00,,---,0.00,VWS V14.01,2013-02-24 08:58:00,
2013-02-24 02:59:00,40.0,31.3,29.91,East,90,2.0,3.8,71,0.00,,---,0.00,VWS V14.01,2013-02-24 08:59:00,
2013-02-24 03:00:00,40.0,31.3,29.91,SE,135,4.7,4.7,71,0.00,,---,0.00,VWS V14.01,2013-02-24 09:00:00,
2013-02-24 03:01:00,40.0,30.3,29.88,SE,135,0.0,0.0,68,0.00,,---,0.00,VWS V14.01,2013-02-24 09:01:00,
2013-02-24 03:02:00,40.1,31.5,29.88,South,180,3.1,3.8,71,0.00,,---,0.00,VWS V14.01,2013-02-24 09:02:00,
2013-02-24 03:03:00,40.1,31.1,29.88,SE,135,2.5,3.1,70,0.00,,---,0.00,VWS V14.01,2013-02-24 09:03:00,
2013-02-24 03:04:00,40.1,31.1,29.88,SE,135,0.0,2.5,70,0.00,,---,0.00,VWS V14.01,2013-02-24 09:04:00,
2013-02-24 03:05:00,40.1,30.8,29.88,SE,135,0.9,0.9,69,0.00,,---,0.00,VWS V14.01,2013-02-24 09:05:00,
2013-02-24 03:06:00,39.8,29.7,29.91,ESE,112,1.6,2.5,67,0.00,,---,0.00,VWS V14.01,2013-02-24 09:06:00,
2013-02-24 03:07:00,40.0,30.6,29.88,SSE,158,2.5,2.5,69,0.00,,---,0.00,VWS V14.01,2013-02-24 09:07:00,
2013-02-24 03:08:00,40.0,30.3,29.88,ESE,112,2.5,2.9,68,0.00,,---,0.00,VWS V14.01,2013-02-24 09:08:00,
2013-02-24 03:09:00,40.0,30.3,29.88,South,180,1.1,2.9,68,0.00,,---,0.00,VWS V14.01,2013-02-24 09:09:00,
2013-02-24 03:10:00,40.0,30.3,29.88,South,180,2.5,3.6,68,0.00,,---,0.00,VWS V14.01,2013-02-24 09:10:00,
2013-02-24 03:11:00,39.6,29.6,29.91,South,180,1.1,1.1,67,0.00,,---,0.00,VWS V14.01,2013-02-24 09:11:00,
2013-02-24 03:12:00,40.0,30.3,29.88,SE,135,1.1,2.5,68,0.00,,---,0.00,VWS V14.01,2013-02-24 09:12:00,
2013-02-24 03:13:00,40.0,30.3,29.88,SE,135,0.0,1.3,68,0.00,,---,0.00,VWS V14.01,2013-02-24 09:13:00,
2013-02-24 03:14:00,40.0,30.3,29.88,SE,135,0.0,0.0,68,0.00,,---,0.00,VWS V14.01,2013-02-24 09:14:00,
2013-02-24 03:15:00,40.0,30.3,29.88,ESE,112,2.9,2.9,68,0.00,,---,0.00,VWS V14.01,2013-02-24 09:15:00,
2013-02-24 03:16:00,39.4,29.4,29.91,SE,135,0.9,1.1,67,0.00,,---,0.00,VWS V14.01,2013-02-24 09:16:00,
2013-02-24 03:17:00,39.8,29.7,29.91,SE,135,2.2,2.2,67,0.00,,---,0.00,VWS V14.01,2013-02-24 09:17:00,
2013-02-24 03:18:00,39.8,29.7,29.91,ESE,112,2.5,2.5,67,0.00,,---,0.00,VWS V14.01,2013-02-24 09:18:00,
2013-02-24 03:19:00,39.6,29.6,29.91,ESE,112,0.0,2.5,67,0.00,,---,0.00,VWS V14.01,2013-02-24 09:19:00,
2013-02-24 03:20:00,39.6,29.6,29.91,ESE,112,1.1,2.5,67,0.00,,---,0.00,VWS V14.01,2013-02-24 09:20:00,
2013-02-24 03:21:00,39.1,29.0,29.91,ESE,112,0.0,0.0,67,0.00,,---,0.00,VWS V14.01,2013-02-24 09:21:00,
2013-02-24 03:22:00,39.6,29.6,29.91,ESE,112,2.5,2.5,67,0.00,,---,0.00,VWS V14.01,2013-02-24 09:22:00,
2013-02-24 03:23:00,39.6,29.6,29.91,South,180,1.1,2.5,67,0.00,,---,0.00,VWS V14.01,2013-02-24 09:23:00,
2013-02-24 03:24:00,39.6,29.6,29.91,East,90,0.0,1.1,67,0.00,,---,0.00,VWS V14.01,2013-02-24 09:24:00,
2013-02-24 03:25:00,39.6,29.6,29.91,SE,135,2.7,2.7,67,0.00,,---,0.00,VWS V14.01,2013-02-24 09:25:00,
2013-02-24 03:26:00,38.7,28.3,29.91,ESE,112,0.0,0.0,66,0.00,,---,0.00,VWS V14.01,2013-02-24 09:26:00,
2013-02-24 03:27:00,39.4,29.4,29.91,SE,135,2.2,2.7,67,0.00,,---,0.00,VWS V14.01,2013-02-24 09:27:00,
2013-02-24 03:28:00,39.4,29.4,29.91,SE,135,1.1,2.5,67,0.00,,---,0.00,VWS V14.01,2013-02-24 09:28:00,
2013-02-24 03:29:00,39.4,29.4,29.91,SE,135,1.6,1.6,67,0.00,,---,0.00,VWS V14.01,2013-02-24 09:29:00,
2013-02-24 03:30:00,39.4,29.4,29.91,ESE,112,1.1,2.7,67,0.00,,---,0.00,VWS V14.01,2013-02-24 09:30:00,
2013-02-24 03:31:00,38.9,28.9,29.91,SSE,158,2.9,2.9,67,0.00,,---,0.00,VWS V14.01,2013-02-24 09:31:00,
2013-02-24 03:32:00,39.2,29.2,29.91,ESE,112,0.0,0.0,67,0.00,,---,0.00,VWS V14.01,2013-02-24 09:32:00,
2013-02-24 03:33:00,39.1,29.0,29.91,ESE,112,0.0,0.0,67,0.00,,---,0.00,VWS V14.01,2013-02-24 09:33:00,
2013-02-24 03:34:00,39.1,29.0,29.91,ESE,112,0.0,0.0,67,0.00,,---,0.00,VWS V14.01,2013-02-24 09:34:00,
2013-02-24 03:35:00,38.9,28.5,29.91,ESE,112,1.1,1.3,66,0.00,,---,0.00,VWS V14.01,2013-02-24 09:35:00,
2013-02-24 03:36:00,38.9,28.9,29.91,East,90,0.0,0.0,67,0.00,,---,0.00,VWS V14.01,2013-02-24 09:36:00,
2013-02-24 03:37:00,38.9,28.5,29.91,ESE,112,0.0,0.0,66,0.00,,---,0.00,VWS V14.01,2013-02-24 09:37:00,
2013-02-24 03:38:00,38.7,28.3,29.91,ESE,112,0.0,0.0,66,0.00,,---,0.00,VWS V14.01,2013-02-24 09:38:00,
2013-02-24 03:39:00,38.7,28.3,29.91,East,90,1.6,2.5,66,0.00,,---,0.00,VWS V14.01,2013-02-24 09:39:00,
2013-02-24 03:40:00,38.7,28.3,29.91,ENE,68,1.1,2.9,66,0.00,,---,0.00,VWS V14.01,2013-02-24 09:40:00,
2013-02-24 03:41:00,38.9,29.2,29.91,ESE,112,2.9,2.9,68,0.00,,---,0.00,VWS V14.01,2013-02-24 09:41:00,
2013-02-24 03:42:00,38.9,28.9,29.91,South,180,1.6,2.7,67,0.00,,---,0.00,VWS V14.01,2013-02-24 09:42:00,
2013-02-24 03:43:00,38.9,28.9,29.91,South,180,2.0,2.5,67,0.00,,---,0.00,VWS V14.01,2013-02-24 09:43:00,
2013-02-24 03:44:00,39.1,29.0,29.91,SSE,158,2.2,2.9,67,0.00,,---,0.00,VWS V14.01,2013-02-24 09:44:00,
2013-02-24 03:45:00,39.1,29.0,29.91,SSE,158,1.3,2.5,67,0.00,,---,0.00,VWS V14.01,2013-02-24 09:45:00,
2013-02-24 03:46:00,38.7,29.4,29.91,SSE,158,2.5,2.5,69,0.00,,---,0.00,VWS V14.01,2013-02-24 09:46:00,
2013-02-24 03:47:00,38.9,28.9,29.91,SSE,158,0.0,1.3,67,0.00,,---,0.00,VWS V14.01,2013-02-24 09:47:00,
2013-02-24 03:48:00,38.9,28.9,29.91,SSE,158,0.0,0.0,67,0.00,,---,0.00,VWS V14.01,2013-02-24 09:48:00,
2013-02-24 03:49:00,38.7,29.1,29.91,East,90,2.7,2.7,68,0.00,,---,0.00,VWS V14.01,2013-02-24 09:49:00,
2013-02-24 03:50:00,38.7,29.1,29.91,East,90,2.9,2.9,68,0.00,,---,0.00,VWS V14.01,2013-02-24 09:50:00,
2013-02-24 03:51:00,38.5,29.3,29.91,ESE,112,2.0,2.5,69,0.00,,---,0.00,VWS V14.01,2013-02-24 09:51:00,
2013-02-24 03:52:00,38.7,29.1,29.91,East,90,2.9,3.6,68,0.00,,---,0.00,VWS V14.01,2013-02-24 09:52:00,
2013-02-24 03:53:00,38.7,29.1,29.91,ESE,112,2.7,2.9,68,0.00,,---,0.00,VWS V14.01,2013-02-24 09:53:00,
2013-02-24 03:54:00,38.9,29.2,29.91,ESE,112,2.2,2.9,68,0.00,,---,0.00,VWS V14.01,2013-02-24 09:54:00,
2013-02-24 03:55:00,38.9,29.2,29.91,ESE,112,2.2,2.2,68,0.00,,---,0.00,VWS V14.01,2013-02-24 09:55:00,
2013-02-24 03:56:00,38.9,29.2,29.91,ESE,112,2.5,3.4,68,0.00,,---,0.00,VWS V14.01,2013-02-24 09:56:00,
2013-02-24 03:57:00,38.3,29.1,29.91,SE,135,2.2,2.9,69,0.00,,---,0.00,VWS V14.01,2013-02-24 09:57:00,
2013-02-24 03:58:00,38.9,29.2,29.91,SE,135,2.0,2.7,68,0.00,,---,0.00,VWS V14.01,2013-02-24 09:58:00,
2013-02-24 03:59:00,38.7,29.4,29.91,SE,135,2.7,2.7,69,0.00,,---,0.00,VWS V14.01,2013-02-24 09:59:00,
2013-02-24 04:00:00,38.7,29.4,29.91,ESE,112,2.0,3.4,69,0.00,,---,0.00,VWS V14.01,2013-02-24 10:00:00,
2013-02-24 04:01:00,38.7,29.4,29.91,East,90,2.0,2.5,69,0.00,,---,0.00,VWS V14.01,2013-02-24 10:01:00,
2013-02-24 04:02:00,38.2,29.3,29.91,SE,135,2.5,2.5,70,0.00,,---,0.00,VWS V14.01,2013-02-24 10:02:00,
2013-02-24 04:03:00,38.5,29.3,29.91,ESE,112,2.5,2.5,69,0.00,,---,0.00,VWS V14.01,2013-02-24 10:03:00,
2013-02-24 04:04:00,38.5,29.3,29.91,South,180,1.6,2.5,69,0.00,,---,0.00,VWS V14.01,2013-02-24 10:04:00,
2013-02-24 04:05:00,38.5,29.3,29.91,SSE,158,0.9,1.6,69,0.00,,---,0.00,VWS V14.01,2013-02-24 10:05:00,
2013-02-24 04:06:00,38.5,29.3,29.91,SE,135,1.6,2.0,69,0.00,,---,0.00,VWS V14.01,2013-02-24 10:06:00,
2013-02-24 04:07:00,37.8,28.9,29.91,SE,135,0.9,0.9,70,0.00,,---,0.00,VWS V14.01,2013-02-24 10:07:00,
2013-02-24 04:08:00,38.5,29.3,29.91,SE,135,2.0,2.5,69,0.00,,---,0.00,VWS V14.01,2013-02-24 10:08:00,
2013-02-24 04:09:00,38.3,29.1,29.91,SE,135,1.1,2.9,69,0.00,,---,0.00,VWS V14.01,2013-02-24 10:09:00,
2013-02-24 04:10:00,38.3,29.1,29.91,SE,135,0.0,1.1,69,0.00,,---,0.00,VWS V14.01,2013-02-24 10:10:00,
2013-02-24 04:11:00,38.2,28.9,29.91,SE,135,0.0,0.0,69,0.00,,---,0.00,VWS V14.01,2013-02-24 10:11:00,
2013-02-24 04:12:00,37.6,29.5,29.91,SE,135,0.0,0.0,72,0.00,,---,0.00,VWS V14.01,2013-02-24 10:12:00,
2013-02-24 04:13:00,38.2,28.9,29.91,ESE,112,2.5,2.5,69,0.00,,---,0.00,VWS V14.01,2013-02-24 10:13:00,
2013-02-24 04:14:00,38.2,29.3,29.91,SE,135,2.0,2.5,70,0.00,,---,0.00,VWS V14.01,2013-02-24 10:14:00,
2013-02-24 04:15:00,38.2,29.3,29.91,SE,135,1.3,2.0,70,0.00,,---,0.00,VWS V14.01,2013-02-24 10:15:00,
2013-02-24 04:16:00,38.0,29.1,29.91,SE,135,1.1,1.6,70,0.00,,---,0.00,VWS V14.01,2013-02-24 10:16:00,
2013-02-24 04:17:00,37.1,28.9,29.91,SE,135,0.0,0.0,72,0.00,,---,0.00,VWS V14.01,2013-02-24 10:17:00,
2013-02-24 04:18:00,37.8,28.9,29.91,SE,135,0.9,1.6,70,0.00,,---,0.00,VWS V14.01,2013-02-24 10:18:00,
2013-02-24 04:19:00,37.8,29.3,29.91,SE,135,1.1,1.1,71,0.00,,---,0.00,VWS V14.01,2013-02-24 10:19:00,
2013-02-24 04:20:00,37.8,29.3,29.91,SE,135,1.3,1.6,71,0.00,,---,0.00,VWS V14.01,2013-02-24 10:20:00,
2013-02-24 04:21:00,37.6,29.1,29.91,SE,135,1.6,2.0,71,0.00,,---,0.00,VWS V14.01,2013-02-24 10:21:00,
2013-02-24 04:22:00,36.6,28.4,29.91,SE,135,0.0,0.0,72,0.00,,---,0.00,VWS V14.01,2013-02-24 10:22:00,
2013-02-24 04:23:00,37.6,29.1,29.91,SE,135,0.0,0.9,71,0.00,,---,0.00,VWS V14.01,2013-02-24 10:23:00,
2013-02-24 04:24:00,37.5,29.3,29.91,SE,135,0.0,0.0,72,0.00,,---,0.00,VWS V14.01,2013-02-24 10:24:00,
2013-02-24 04:25:00,37.5,29.3,29.91,SE,135,0.0,0.0,72,0.00,,---,0.00,VWS V14.01,2013-02-24 10:25:00,
2013-02-24 04:26:00,37.3,29.1,29.91,SE,135,0.0,0.0,72,0.00,,---,0.00,VWS V14.01,2013-02-24 10:26:00,
2013-02-24 04:27:00,36.6,28.4,29.91,ESE,112,1.6,2.2,72,0.00,,---,0.00,VWS V14.01,2013-02-24 10:27:00,
2013-02-24 04:28:00,37.1,28.9,29.91,SE,135,0.0,0.0,72,0.00,,---,0.00,VWS V14.01,2013-02-24 10:28:00,
2013-02-24 04:29:00,37.1,28.9,29.91,SE,135,0.0,0.0,72,0.00,,---,0.00,VWS V14.01,2013-02-24 10:29:00,
2013-02-24 04:30:00,36.9,29.1,29.91,SE,135,0.0,0.0,73,0.00,,---,0.00,VWS V14.01,2013-02-24 10:30:00,
2013-02-24 04:31:00,36.8,28.9,29.91,SE,135,0.0,0.0,73,0.00,,---,0.00,VWS V14.01,2013-02-24 10:31:00,
2013-02-24 04:32:00,36.9,29.4,29.91,East,90,0.9,2.0,74,0.00,,---,0.00,VWS V14.01,2013-02-24 10:32:00,
2013-02-24 04:33:00,36.6,28.4,29.91,SE,135,0.0,0.0,72,0.00,,---,0.00,VWS V14.01,2013-02-24 10:33:00,
2013-02-24 04:34:00,36.6,28.8,29.91,SE,135,0.0,0.0,73,0.00,,---,0.00,VWS V14.01,2013-02-24 10:34:00,
2013-02-24 04:35:00,36.6,28.4,29.91,SE,135,0.0,0.0,72,0.00,,---,0.00,VWS V14.01,2013-02-24 10:35:00,
2013-02-24 04:36:00,36.6,28.4,29.91,SE,135,0.0,0.0,72,0.00,,---,0.00,VWS V14.01,2013-02-24 10:36:00,
2013-02-24 04:37:00,37.3,29.8,29.88,East,90,2.9,3.6,74,0.00,,---,0.00,VWS V14.01,2013-02-24 10:37:00,
2013-02-24 04:38:00,36.6,28.4,29.91,ESE,112,0.0,0.0,72,0.00,,---,0.00,VWS V14.01,2013-02-24 10:38:00,
2013-02-24 04:39:00,36.6,28.4,29.91,ESE,112,1.1,2.2,72,0.00,,---,0.00,VWS V14.01,2013-02-24 10:39:00,
2013-02-24 04:40:00,36.8,28.9,29.91,ESE,112,1.3,2.7,73,0.00,,---,0.00,VWS V14.01,2013-02-24 10:40:00,
2013-02-24 04:41:00,36.8,28.9,29.91,ESE,112,1.1,2.7,73,0.00,,---,0.00,VWS V14.01,2013-02-24 10:41:00,
2013-02-24 04:42:00,37.8,30.6,29.88,South,180,2.2,2.2,75,0.00,,---,0.00,VWS V14.01,2013-02-24 10:42:00,
2013-02-24 04:43:00,36.9,29.4,29.91,SE,135,2.0,2.7,74,0.00,,---,0.00,VWS V14.01,2013-02-24 10:43:00,
2013-02-24 04:44:00,36.9,29.4,29.91,East,90,0.9,2.0,74,0.00,,---,0.00,VWS V14.01,2013-02-24 10:44:00,
2013-02-24 04:45:00,37.1,29.3,29.91,East,90,2.5,2.5,73,0.00,,---,0.00,VWS V14.01,2013-02-24 10:45:00,
2013-02-24 04:46:00,37.1,29.6,29.88,East,90,1.3,2.5,74,0.00,,---,0.00,VWS V14.01,2013-02-24 10:46:00,
2013-02-24 04:47:00,38.0,30.5,29.88,SE,135,2.2,2.7,74,0.00,,---,0.00,VWS V14.01,2013-02-24 10:47:00,
2013-02-24 04:48:00,37.3,29.8,29.88,East,90,3.6,3.6,74,0.00,,---,0.00,VWS V14.01,2013-02-24 10:48:00,
2013-02-24 04:49:00,37.5,30.3,29.88,ESE,112,3.8,3.8,75,0.00,,---,0.00,VWS V14.01,2013-02-24 10:49:00,
2013-02-24 04:50:00,37.6,30.5,29.88,East,90,2.9,3.8,75,0.00,,---,0.00,VWS V14.01,2013-02-24 10:50:00,
2013-02-24 04:51:00,37.6,30.5,29.88,East,90,2.0,3.8,75,0.00,,---,0.00,VWS V14.01,2013-02-24 10:51:00,
2013-02-24 04:52:00,37.8,30.3,29.91,East,90,1.6,2.5,74,0.00,,---,0.00,VWS V14.01,2013-02-24 10:52:00,
2013-02-24 04:53:00,37.8,30.6,29.88,ESE,112,2.0,2.7,75,0.00,,---,0.00,VWS V14.01,2013-02-24 10:53:00,
2013-02-24 04:54:00,37.8,30.6,29.88,SE,135,1.6,2.2,75,0.00,,---,0.00,VWS V14.01,2013-02-24 10:54:00,
2013-02-24 04:55:00,38.0,30.5,29.88,SSE,158,1.6,2.2,74,0.00,,---,0.00,VWS V14.01,2013-02-24 10:55:00,
2013-02-24 04:56:00,38.0,30.5,29.88,SE,135,2.9,2.9,74,0.00,,---,0.00,VWS V14.01,2013-02-24 10:56:00,
2013-02-24 04:57:00,37.5,30.0,29.91,SE,135,2.9,3.1,74,0.00,,---,0.00,VWS V14.01,2013-02-24 10:57:00,
2013-02-24 04:58:00,38.0,30.5,29.88,ESE,112,2.7,3.4,74,0.00,,---,0.00,VWS V14.01,2013-02-24 10:58:00,
2013-02-24 04:59:00,38.0,30.5,29.88,SE,135,1.1,2.7,74,0.00,,---,0.00,VWS V14.01,2013-02-24 10:59:00,
2013-02-24 05:00:00,38.0,30.5,29.88,SE,135,0.0,1.3,74,0.00,,---,0.00,VWS V14.01,2013-02-24 11:00:00,
2013-02-24 05:01:00,37.8,30.3,29.88,SE,135,0.0,0.0,74,0.00,,---,0.00,VWS V14.01,2013-02-24 11:01:00,
2013-02-24 05:02:00,37.3,30.4,29.91,SE,135,2.7,4.0,76,0.00,,---,0.00,VWS V14.01,2013-02-24 11:02:00,
2013-02-24 05:03:00,37.8,30.3,29.91,ESE,112,1.1,2.2,74,0.00,,---,0.00,VWS V14.01,2013-02-24 11:03:00,
2013-02-24 05:04:00,37.6,30.1,29.91,East,90,2.0,2.5,74,0.00,,---,0.00,VWS V14.01,2013-02-24 11:04:00,
2013-02-24 05:05:00,37.6,30.1,29.91,ESE,112,1.3,2.5,74,0.00,,---,0.00,VWS V14.01,2013-02-24 11:05:00,
2013-02-24 05:06:00,37.6,30.1,29.91,East,90,2.5,2.5,74,0.00,,---,0.00,VWS V14.01,2013-02-24 11:06:00,
2013-02-24 05:07:00,37.1,30.9,29.91,ESE,112,2.7,3.1,78,0.00,,---,0.00,VWS V14.01,2013-02-24 11:07:00,
2013-02-24 05:08:00,37.5,30.0,29.91,SE,135,2.5,2.5,74,0.00,,---,0.00,VWS V14.01,2013-02-24 11:08:00,
2013-02-24 05:09:00,37.5,30.0,29.91,SE,135,2.5,3.1,74,0.00,,---,0.00,VWS V14.01,2013-02-24 11:09:00,
2013-02-24 05:10:00,37.5,30.0,29.91,SE,135,2.7,2.7,74,0.00,,---,0.00,VWS V14.01,2013-02-24 11:10:00,
2013-02-24 05:11:00,37.5,30.0,29.91,SE,135,2.9,2.9,74,0.00,,---,0.00,VWS V14.01,2013-02-24 11:11:00,
2013-02-24 05:12:00,36.6,30.4,29.91,ESE,112,1.6,3.1,78,0.00,,---,0.00,VWS V14.01,2013-02-24 11:12:00,
2013-02-24 05:13:00,37.5,30.6,29.91,ESE,112,4.0,4.7,76,0.00,,---,0.00,VWS V14.01,2013-02-24 11:13:00,
2013-02-24 05:14:00,37.3,30.4,29.91,ESE,112,2.7,4.0,76,0.00,,---,0.00,VWS V14.01,2013-02-24 11:14:00,
2013-02-24 05:15:00,37.3,30.8,29.91,ESE,112,2.9,3.4,77,0.00,,---,0.00,VWS V14.01,2013-02-24 11:15:00,
2013-02-24 05:16:00,37.3,30.8,29.91,ESE,112,3.4,3.4,77,0.00,,---,0.00,VWS V14.01,2013-02-24 11:16:00,
2013-02-24 05:17:00,36.2,30.0,29.91,East,90,1.1,2.5,78,0.00,,---,0.00,VWS V14.01,2013-02-24 11:17:00,
2013-02-24 05:18:00,37.1,30.6,29.91,SE,135,2.2,3.8,77,0.00,,---,0.00,VWS V14.01,2013-02-24 11:18:00,
2013-02-24 05:19:00,37.1,30.9,29.91,ESE,112,2.7,3.1,78,0.00,,---,0.00,VWS V14.01,2013-02-24 11:19:00,
2013-02-24 05:20:00,36.9,30.7,29.91,SE,135,2.0,2.7,78,0.00,,---,0.00,VWS V14.01,2013-02-24 11:20:00,
2013-02-24 05:21:00,36.8,30.5,29.91,ESE,112,2.7,3.1,78,0.00,,---,0.00,VWS V14.01,2013-02-24 11:21:00,
2013-02-24 05:22:00,36.8,30.5,29.88,SSE,158,0.0,0.0,78,0.00,,---,0.00,VWS V14.01,2013-02-24 11:22:00,
2013-02-24 05:23:00,36.6,30.4,29.91,East,90,2.2,2.2,78,0.00,,---,0.00,VWS V14.01,2013-02-24 11:23:00,
2013-02-24 05:24:00,36.6,30.4,29.91,ESE,112,2.0,3.1,78,0.00,,---,0.00,VWS V14.01,2013-02-24 11:24:00,
2013-02-24 05:25:00,36.4,30.2,29.91,East,90,2.7,3.1,78,0.00,,---,0.00,VWS V14.01,2013-02-24 11:25:00,
2013-02-24 05:26:00,36.4,30.2,29.91,East,90,3.1,3.1,78,0.00,,---,0.00,VWS V14.01,2013-02-24 11:26:00,
2013-02-24 05:27:00,37.1,30.9,29.88,SE,135,1.6,2.5,78,0.00,,---,0.00,VWS V14.01,2013-02-24 11:27:00,
2013-02-24 05:28:00,36.2,30.4,29.91,East,90,2.5,2.5,79,0.00,,---,0.00,VWS V14.01,2013-02-24 11:28:00,
2013-02-24 05:29:00,36.2,30.0,29.91,East,90,1.3,2.5,78,0.00,,---,0.00,VWS V14.01,2013-02-24 11:29:00,
2013-02-24 05:30:00,36.2,30.0,29.91,East,90,1.1,3.4,78,0.00,,---,0.00,VWS V14.01,2013-02-24 11:30:00,
2013-02-24 05:31:00,36.2,30.0,29.88,NNE,22,3.6,4.0,78,0.00,,---,0.00,VWS V14.01,2013-02-24 11:31:00,
2013-02-24 05:32:00,36.8,30.5,29.88,ESE,112,2.7,3.1,78,0.00,,---,0.00,VWS V14.01,2013-02-24 11:32:00,
2013-02-24 05:33:00,36.6,30.7,29.88,East,90,0.0,3.8,79,0.00,,---,0.00,VWS V14.01,2013-02-24 11:33:00,
2013-02-24 05:34:00,36.8,30.5,29.88,SSE,158,0.0,0.0,78,0.00,,---,0.00,VWS V14.01,2013-02-24 11:34:00,
2013-02-24 05:35:00,36.8,30.5,29.88,ESE,112,2.5,2.5,78,0.00,,---,0.00,VWS V14.01,2013-02-24 11:35:00,
2013-02-24 05:36:00,36.8,30.5,29.88,ESE,112,2.5,2.5,78,0.00,,---,0.00,VWS V14.01,2013-02-24 11:36:00,
2013-02-24 05:37:00,36.8,30.5,29.91,ESE,112,2.0,3.1,78,0.00,,---,0.00,VWS V14.01,2013-02-24 11:37:00,
2013-02-24 05:38:00,36.9,30.7,29.88,ESE,112,2.2,2.5,78,0.00,,---,0.00,VWS V14.01,2013-02-24 11:38:00,
2013-02-24 05:39:00,37.1,30.9,29.88,SSE,158,2.9,2.9,78,0.00,,---,0.00,VWS V14.01,2013-02-24 11:39:00,
2013-02-24 05:40:00,37.1,30.9,29.88,SSE,158,1.6,2.9,78,0.00,,---,0.00,VWS V14.01,2013-02-24 11:40:00,
2013-02-24 05:41:00,37.1,30.9,29.88,SE,135,3.1,3.1,78,0.00,,---,0.00,VWS V14.01,2013-02-24 11:41:00,
2013-02-24 05:42:00,36.6,30.4,29.91,SE,135,2.9,3.4,78,0.00,,---,0.00,VWS V14.01,2013-02-24 11:42:00,
2013-02-24 05:43:00,36.9,30.7,29.88,ESE,112,2.7,2.7,78,0.00,,---,0.00,VWS V14.01,2013-02-24 11:43:00,
2013-02-24 05:44:00,36.8,30.5,29.88,ESE,112,2.7,3.1,78,0.00,,---,0.00,VWS V14.01,2013-02-24 11:44:00,
2013-02-24 05:45:00,36.8,30.5,29.88,SE,135,2.7,2.7,78,0.00,,---,0.00,VWS V14.01,2013-02-24 11:45:00,
2013-02-24 05:46:00,36.8,30.5,29.91,SE,135,2.7,3.1,78,0.00,,---,0.00,VWS V14.01,2013-02-24 11:46:00,
2013-02-24 05:47:00,36.4,30.8,29.91,East,90,3.1,3.1,80,0.00,,---,0.00,VWS V14.01,2013-02-24 11:47:00,
2013-02-24 05:48:00,36.8,30.5,29.91,SE,135,2.5,2.9,78,0.00,,---,0.00,VWS V14.01,2013-02-24 11:48:00,
2013-02-24 05:49:00,36.8,30.5,29.91,ESE,112,2.2,3.1,78,0.00,,---,0.00,VWS V14.01,2013-02-24 11:49:00,
2013-02-24 05:50:00,36.8,30.5,29.91,SE,135,1.6,2.2,78,0.00,,---,0.00,VWS V14.01,2013-02-24 11:50:00,
2013-02-24 05:51:00,36.8,30.5,29.91,SE,135,3.1,3.1,78,0.00,,---,0.00,VWS V14.01,2013-02-24 11:51:00,
2013-02-24 05:52:00,36.0,30.5,29.88,East,90,1.6,2.7,80,0.00,,---,0.00,VWS V14.01,2013-02-24 11:52:00,
2013-02-24 05:53:00,36.6,30.4,29.91,East,90,2.9,2.9,78,0.00,,---,0.00,VWS V14.01,2013-02-24 11:53:00,
2013-02-24 05:54:00,36.6,30.4,29.91,SE,135,2.9,3.4,78,0.00,,---,0.00,VWS V14.01,2013-02-24 11:54:00,
2013-02-24 05:55:00,36.6,30.7,29.91,ESE,112,4.0,4.0,79,0.00,,---,0.00,VWS V14.01,2013-02-24 11:55:00,
2013-02-24 05:56:00,36.6,30.7,29.91,SE,135,2.7,4.0,79,0.00,,---,0.00,VWS V14.01,2013-02-24 11:56:00,
2013-02-24 05:57:00,35.9,30.0,29.88,ESE,112,1.3,1.3,79,0.00,,---,0.00,VWS V14.01,2013-02-24 11:57:00,
2013-02-24 05:58:00,36.4,30.8,29.91,SE,135,2.2,2.9,80,0.00,,---,0.00,VWS V14.01,2013-02-24 11:58:00,
2013-02-24 05:59:00,36.4,30.8,29.91,East,90,3.1,3.1,80,0.00,,---,0.00,VWS V14.01,2013-02-24 11:59:00,
2013-02-24 06:00:00,36.4,30.8,29.91,ESE,112,2.7,3.1,80,0.00,,---,0.00,VWS V14.01,2013-02-24 12:00:00,
2013-02-24 06:01:00,36.2,30.7,29.88,ESE,112,2.5,2.7,80,0.00,,---,0.00,VWS V14.01,2013-02-24 12:01:00,
2013-02-24 06:02:00,35.5,30.0,29.88,ESE,112,0.0,0.0,80,0.00,,---,0.00,VWS V14.01,2013-02-24 12:02:00,
2013-02-24 06:03:00,36.0,30.5,29.88,ESE,112,2.0,2.9,80,0.00,,---,0.00,VWS V14.01,2013-02-24 12:03:00,
2013-02-24 06:04:00,36.0,30.5,29.88,East,90,1.6,2.7,80,0.00,,---,0.00,VWS V14.01,2013-02-24 12:04:00,
2013-02-24 06:05:00,36.0,30.5,29.88,East,90,0.9,2.5,80,0.00,,---,0.00,VWS V14.01,2013-02-24 12:05:00,
2013-02-24 06:06:00,36.0,30.5,29.88,ESE,112,1.3,2.0,80,0.00,,---,0.00,VWS V14.01,2013-02-24 12:06:00,
2013-02-24 06:07:00,35.2,29.6,29.91,ESE,112,0.0,0.0,80,0.00,,---,0.00,VWS V14.01,2013-02-24 12:07:00,
2013-02-24 06:08:00,35.9,30.0,29.88,ESE,112,0.0,1.1,79,0.00,,---,0.00,VWS V14.01,2013-02-24 12:08:00,
2013-02-24 06:09:00,35.9,30.0,29.88,ESE,112,1.3,1.3,79,0.00,,---,0.00,VWS V14.01,2013-02-24 12:09:00,
2013-02-24 06:10:00,35.7,29.8,29.88,ESE,112,0.0,1.3,79,0.00,,---,0.00,VWS V14.01,2013-02-24 12:10:00,
2013-02-24 06:11:00,35.7,30.1,29.88,ESE,112,0.0,0.0,80,0.00,,---,0.00,VWS V14.01,2013-02-24 12:11:00,
2013-02-24 06:12:00,35.0,29.1,29.91,ESE,112,0.0,0.0,79,0.00,,---,0.00,VWS V14.01,2013-02-24 12:12:00,
2013-02-24 06:13:00,35.5,30.0,29.88,ESE,112,0.0,0.0,80,0.00,,---,0.00,VWS V14.01,2013-02-24 12:13:00,
2013-02-24 06:14:00,35.5,30.0,29.88,ESE,112,0.0,0.0,80,0.00,,---,0.00,VWS V14.01,2013-02-24 12:14:00,
2013-02-24 06:15:00,35.5,30.0,29.88,ESE,112,0.0,0.0,80,0.00,,---,0.00,VWS V14.01,2013-02-24 12:15:00,
2013-02-24 06:16:00,35.5,30.0,29.88,ESE,112,1.1,1.6,80,0.00,,---,0.00,VWS V14.01,2013-02-24 12:16:00,
2013-02-24 06:17:00,34.5,28.9,29.91,ESE,112,0.0,0.0,80,0.00,,---,0.00,VWS V14.01,2013-02-24 12:17:00,
2013-02-24 06:18:00,35.3,29.5,29.91,ESE,112,0.0,1.3,79,0.00,,---,0.00,VWS V14.01,2013-02-24 12:18:00,
2013-02-24 06:19:00,35.2,29.6,29.91,ESE,112,0.0,0.0,80,0.00,,---,0.00,VWS V14.01,2013-02-24 12:19:00,
2013-02-24 06:21:00,35.0,29.1,29.91,ESE,112,0.0,0.0,79,0.00,,---,0.00,VWS V14.01,2013-02-24 12:21:00,
2013-02-24 06:22:00,34.3,28.5,29.91,ESE,112,0.0,0.0,79,0.00,,---,0.00,VWS V14.01,2013-02-24 12:22:00,
2013-02-24 06:23:00,35.0,29.1,29.91,ESE,112,0.0,0.0,79,0.00,,---,0.00,VWS V14.01,2013-02-24 12:23:00,
2013-02-24 06:26:00,34.6,28.8,29.91,ESE,112,0.0,0.0,79,0.00,,---,0.00,VWS V14.01,2013-02-24 12:26:00,
2013-02-24 06:27:00,34.3,28.8,29.91,NNE,22,1.6,1.6,80,0.00,,---,0.00,VWS V14.01,2013-02-24 12:27:00,
2013-02-24 06:28:00,34.6,28.8,29.91,ESE,112,0.0,0.0,79,0.00,,---,0.00,VWS V14.01,2013-02-24 12:28:00,
2013-02-24 06:29:00,34.5,28.9,29.91,ESE,112,0.0,0.0,80,0.00,,---,0.00,VWS V14.01,2013-02-24 12:29:00,
2013-02-24 06:31:00,34.3,28.8,29.91,ESE,112,0.0,0.0,80,0.00,,---,0.00,VWS V14.01,2013-02-24 12:31:00,
2013-02-24 06:32:00,34.6,29.4,29.91,NNE,22,1.3,1.3,81,0.00,,---,0.00,VWS V14.01,2013-02-24 12:32:00,
2013-02-24 06:33:00,34.3,28.5,29.91,ESE,112,0.0,0.0,79,0.00,,---,0.00,VWS V14.01,2013-02-24 12:33:00,
2013-02-24 06:34:00,34.3,28.5,29.91,ESE,112,0.0,0.0,79,0.00,,---,0.00,VWS V14.01,2013-02-24 12:34:00,
2013-02-24 06:35:00,34.3,28.5,29.91,East,90,1.1,1.3,79,0.00,,---,0.00,VWS V14.01,2013-02-24 12:35:00,
2013-02-24 06:36:00,34.3,28.5,29.91,North,0,1.1,1.3,79,0.00,,---,0.00,VWS V14.01,2013-02-24 12:36:00,
2013-02-24 06:37:00,34.8,29.3,29.91,East,90,0.0,0.0,80,0.00,,---,0.00,VWS V14.01,2013-02-24 12:37:00,
2013-02-24 06:38:00,34.3,28.8,29.91,NNE,22,1.1,1.6,80,0.00,,---,0.00,VWS V14.01,2013-02-24 12:38:00,
2013-02-24 06:39:00,34.3,28.8,29.91,NNE,22,1.6,2.0,80,0.00,,---,0.00,VWS V14.01,2013-02-24 12:39:00,
2013-02-24 06:40:00,34.3,29.1,29.91,NNE,22,1.6,1.6,81,0.00,,---,0.00,VWS V14.01,2013-02-24 12:40:00,
2013-02-24 06:41:00,34.5,29.2,29.91,NNE,22,2.5,2.5,81,0.00,,---,0.00,VWS V14.01,2013-02-24 12:41:00,
2013-02-24 06:42:00,35.2,29.9,29.91,East,90,1.6,3.8,81,0.00,,---,0.00,VWS V14.01,2013-02-24 12:42:00,
2013-02-24 06:43:00,34.6,29.4,29.91,NNE,22,1.1,1.3,81,0.00,,---,0.00,VWS V14.01,2013-02-24 12:43:00,
2013-02-24 06:44:00,34.6,29.4,29.91,NNE,22,1.3,1.3,81,0.00,,---,0.00,VWS V14.01,2013-02-24 12:44:00,
2013-02-24 06:45:00,34.6,29.1,29.91,NE,45,0.0,2.2,80,0.00,,---,0.00,VWS V14.01,2013-02-24 12:45:00,
2013-02-24 06:46:00,34.6,29.1,29.91,East,90,0.0,0.0,80,0.00,,---,0.00,VWS V14.01,2013-02-24 12:46:00,
2013-02-24 06:47:00,35.5,30.6,29.91,SE,135,2.5,2.9,82,0.00,,---,0.00,VWS V14.01,2013-02-24 12:47:00,
2013-02-24 06:48:00,34.8,29.3,29.91,East,90,0.0,1.1,80,0.00,,---,0.00,VWS V14.01,2013-02-24 12:48:00,
2013-02-24 06:49:00,34.8,29.3,29.91,East,90,0.0,0.0,80,0.00,,---,0.00,VWS V14.01,2013-02-24 12:49:00,
2013-02-24 06:50:00,34.8,29.3,29.91,ESE,112,0.9,2.0,80,0.00,,---,0.00,VWS V14.01,2013-02-24 12:50:00,
2013-02-24 06:51:00,35.0,29.5,29.91,ENE,68,2.2,2.2,80,0.00,,---,0.00,VWS V14.01,2013-02-24 12:51:00,
2013-02-24 06:52:00,35.7,31.0,29.94,East,90,2.9,2.9,83,0.00,,---,0.00,VWS V14.01,2013-02-24 12:52:00,
2013-02-24 06:53:00,35.0,29.8,29.91,East,90,3.8,3.8,81,0.00,,---,0.00,VWS V14.01,2013-02-24 12:53:00,
2013-02-24 06:54:00,35.2,29.9,29.91,East,90,1.6,3.8,81,0.00,,---,0.00,VWS V14.01,2013-02-24 12:54:00,
2013-02-24 06:55:00,35.3,30.4,29.91,East,90,2.9,3.1,82,0.00,,---,0.00,VWS V14.01,2013-02-24 12:55:00,
2013-02-24 06:56:00,35.5,30.6,29.91,ESE,112,4.0,4.0,82,0.00,,---,0.00,VWS V14.01,2013-02-24 12:56:00,
2013-02-24 06:57:00,35.5,30.6,29.94,ESE,112,1.6,2.5,82,0.00,,---,0.00,VWS V14.01,2013-02-24 12:57:00,
2013-02-24 06:58:00,35.5,30.6,29.91,SE,135,2.7,3.1,82,0.00,,---,0.00,VWS V14.01,2013-02-24 12:58:00,
2013-02-24 06:59:00,35.5,30.6,29.91,SE,135,2.5,2.9,82,0.00,,---,0.00,VWS V14.01,2013-02-24 12:59:00,
2013-02-24 07:00:00,35.5,30.6,29.91,NE,45,1.6,2.5,82,0.00,,---,0.00,VWS V14.01,2013-02-24 13:00:00,
2013-02-24 07:01:00,35.7,31.0,29.94,ESE,112,2.0,2.9,83,0.00,,---,0.00,VWS V14.01,2013-02-24 13:01:00,
2013-02-24 07:02:00,35.5,30.3,29.94,SE,135,2.5,2.5,81,0.00,,---,0.00,VWS V14.01,2013-02-24 13:02:00,
2013-02-24 07:03:00,35.7,31.0,29.94,SE,135,2.5,2.9,83,0.00,,---,0.00,VWS V14.01,2013-02-24 13:03:00,
2013-02-24 07:04:00,35.7,31.0,29.94,East,90,2.9,2.9,83,0.00,,---,0.00,VWS V14.01,2013-02-24 13:04:00,
2013-02-24 07:05:00,35.7,31.0,29.94,ESE,112,3.4,3.4,83,0.00,,---,0.00,VWS V14.01,2013-02-24 13:05:00,
2013-02-24 07:06:00,35.7,30.8,29.94,ESE,112,2.2,3.4,82,0.00,,---,0.00,VWS V14.01,2013-02-24 13:06:00,
2013-02-24 07:07:00,35.5,30.0,29.91,East,90,3.6,3.6,80,0.00,,---,0.00,VWS V14.01,2013-02-24 13:07:00,
2013-02-24 07:08:00,35.7,30.8,29.94,ESE,112,2.5,2.5,82,0.00,,---,0.00,VWS V14.01,2013-02-24 13:08:00,
2013-02-24 07:09:00,35.5,30.6,29.94,ESE,112,1.6,2.5,82,0.00,,---,0.00,VWS V14.01,2013-02-24 13:09:00,
2013-02-24 07:10:00,35.5,30.3,29.94,SE,135,2.7,2.7,81,0.00,,---,0.00,VWS V14.01,2013-02-24 13:10:00,
2013-02-24 07:11:00,35.5,30.3,29.94,SE,135,2.2,2.7,81,0.00,,---,0.00,VWS V14.01,2013-02-24 13:11:00,
2013-02-24 07:12:00,35.3,30.4,29.91,ESE,112,3.6,3.6,82,0.00,,---,0.00,VWS V14.01,2013-02-24 13:12:00,
2013-02-24 07:13:00,35.5,30.3,29.94,SE,135,2.0,2.7,81,0.00,,---,0.00,VWS V14.01,2013-02-24 13:13:00,
2013-02-24 07:14:00,35.5,30.3,29.94,SE,135,2.5,2.5,81,0.00,,---,0.00,VWS V14.01,2013-02-24 13:14:00,
2013-02-24 07:15:00,35.5,30.3,29.94,SE,135,0.0,2.5,81,0.00,,---,0.00,VWS V14.01,2013-02-24 13:15:00,
2013-02-24 07:16:00,35.5,30.3,29.91,SE,135,1.6,1.6,81,0.00,,---,0.00,VWS V14.01,2013-02-24 13:16:00,
2013-02-24 07:17:00,35.2,30.2,29.91,SE,135,3.1,3.4,82,0.00,,---,0.00,VWS V14.01,2013-02-24 13:17:00,
2013-02-24 07:18:00,35.5,30.0,29.91,ESE,112,2.0,2.0,80,0.00,,---,0.00,VWS V14.01,2013-02-24 13:18:00,
2013-02-24 07:19:00,35.5,30.0,29.91,East,90,3.6,3.6,80,0.00,,---,0.00,VWS V14.01,2013-02-24 13:19:00,
2013-02-24 07:20:00,35.5,30.3,29.91,ESE,112,2.0,3.8,81,0.00,,---,0.00,VWS V14.01,2013-02-24 13:20:00,
2013-02-24 07:21:00,35.5,30.3,29.91,SE,135,2.9,3.4,81,0.00,,---,0.00,VWS V14.01,2013-02-24 13:21:00,
2013-02-24 07:22:00,35.2,30.8,29.91,ESE,112,3.4,3.6,84,0.00,,---,0.00,VWS V14.01,2013-02-24 13:22:00,
2013-02-24 07:23:00,35.3,30.4,29.91,ESE,112,2.5,2.5,82,0.00,,---,0.00,VWS V14.01,2013-02-24 13:23:00,
2013-02-24 07:24:00,35.3,30.4,29.91,ESE,112,3.6,3.6,82,0.00,,---,0.00,VWS V14.01,2013-02-24 13:24:00,
2013-02-24 07:25:00,35.3,30.4,29.91,East,90,2.5,3.6,82,0.00,,---,0.00,VWS V14.01,2013-02-24 13:25:00,
2013-02-24 07:26:00,35.3,30.4,29.91,ESE,112,2.0,2.5,82,0.00,,---,0.00,VWS V14.01,2013-02-24 13:26:00,
2013-02-24 07:27:00,35.3,30.7,29.91,SE,135,2.2,2.5,83,0.00,,---,0.00,VWS V14.01,2013-02-24 13:27:00,
2013-02-24 07:28:00,35.2,30.2,29.91,SE,135,2.2,3.4,82,0.00,,---,0.00,VWS V14.01,2013-02-24 13:28:00,
2013-02-24 07:29:00,35.2,30.2,29.91,SE,135,3.1,3.4,82,0.00,,---,0.00,VWS V14.01,2013-02-24 13:29:00,
2013-02-24 07:30:00,35.2,30.2,29.91,ESE,112,2.7,3.8,82,0.00,,---,0.00,VWS V14.01,2013-02-24 13:30:00,
2013-02-24 07:31:00,35.2,30.2,29.91,ESE,112,2.7,2.7,82,0.00,,---,0.00,VWS V14.01,2013-02-24 13:31:00,
2013-02-24 07:32:00,36.0,31.7,29.91,ESE,112,2.0,2.7,84,0.00,,---,0.00,VWS V14.01,2013-02-24 13:32:00,
2013-02-24 07:33:00,35.2,30.8,29.91,ESE,112,2.9,3.4,84,0.00,,---,0.00,VWS V14.01,2013-02-24 13:33:00,
2013-02-24 07:34:00,35.2,30.8,29.91,ESE,112,3.4,3.6,84,0.00,,---,0.00,VWS V14.01,2013-02-24 13:34:00,
2013-02-24 07:35:00,35.3,30.7,29.91,SE,135,2.7,3.4,83,0.00,,---,0.00,VWS V14.01,2013-02-24 13:35:00,
2013-02-24 07:36:00,35.3,30.7,29.91,SE,135,2.7,2.7,83,0.00,,---,0.00,VWS V14.01,2013-02-24 13:36:00,
2013-02-24 07:37:00,37.1,33.0,29.91,SE,135,4.0,4.0,85,0.00,,---,0.00,VWS V14.01,2013-02-24 13:37:00,
2013-02-24 07:38:00,35.3,30.7,29.91,SE,135,2.5,2.9,83,0.00,,---,0.00,VWS V14.01,2013-02-24 13:38:00,
2013-02-24 07:39:00,35.3,30.7,29.91,SE,135,2.2,2.5,83,0.00,,---,0.00,VWS V14.01,2013-02-24 13:39:00,
2013-02-24 07:40:00,35.5,30.9,29.91,SE,135,2.7,2.7,83,0.00,,---,0.00,VWS V14.01,2013-02-24 13:40:00,
2013-02-24 07:41:00,35.7,31.0,29.91,SE,135,2.5,2.9,83,0.00,,---,0.00,VWS V14.01,2013-02-24 13:41:00,
2013-02-24 07:42:00,37.8,33.7,29.91,SE,135,2.7,2.7,85,0.00,,---,0.00,VWS V14.01,2013-02-24 13:42:00,
2013-02-24 07:43:00,35.9,31.5,29.91,ESE,112,2.7,2.9,84,0.00,,---,0.00,VWS V14.01,2013-02-24 13:43:00,
2013-02-24 07:44:00,36.0,31.7,29.91,ESE,112,2.0,2.7,84,0.00,,---,0.00,VWS V14.01,2013-02-24 13:44:00,
2013-02-24 07:45:00,36.2,31.9,29.91,ESE,112,3.1,3.8,84,0.00,,---,0.00,VWS V14.01,2013-02-24 13:45:00,
2013-02-24 07:46:00,36.4,32.3,29.91,SE,135,2.5,3.1,85,0.00,,---,0.00,VWS V14.01,2013-02-24 13:46:00,
2013-02-24 07:47:00,39.1,34.3,29.91,ESE,112,2.5,2.5,83,0.00,,---,0.00,VWS V14.01,2013-02-24 13:47:00,
2013-02-24 07:48:00,36.9,32.8,29.91,ESE,112,3.1,3.1,85,0.00,,---,0.00,VWS V14.01,2013-02-24 13:48:00,
2013-02-24 07:49:00,37.1,33.0,29.91,SE,135,4.0,4.0,85,0.00,,---,0.00,VWS V14.01,2013-02-24 13:49:00,
2013-02-24 07:50:00,37.3,33.2,29.91,SE,135,2.5,4.0,85,0.00,,---,0.00,VWS V14.01,2013-02-24 13:50:00,
2013-02-24 07:51:00,37.5,33.4,29.91,SE,135,3.1,3.1,85,0.00,,---,0.00,VWS V14.01,2013-02-24 13:51:00,
2013-02-24 07:52:00,40.7,35.0,29.94,SE,135,1.6,1.6,80,0.00,,---,0.00,VWS V14.01,2013-02-24 13:52:00,
2013-02-24 07:53:00,37.8,33.7,29.91,SE,135,2.5,2.9,85,0.00,,---,0.00,VWS V14.01,2013-02-24 13:53:00,
2013-02-24 07:54:00,37.8,33.7,29.91,SE,135,1.3,2.5,85,0.00,,---,0.00,VWS V14.01,2013-02-24 13:54:00,
2013-02-24 07:55:00,38.3,34.0,29.91,SE,135,1.6,2.7,84,0.00,,---,0.00,VWS V14.01,2013-02-24 13:55:00,
2013-02-24 07:56:00,38.3,34.0,29.91,SE,135,1.1,1.6,84,0.00,,---,0.00,VWS V14.01,2013-02-24 13:56:00,
2013-02-24 07:57:00,41.7,35.4,29.94,ESE,112,0.9,0.9,78,0.00,,---,0.00,VWS V14.01,2013-02-24 13:57:00,
2013-02-24 07:58:00,39.1,34.3,29.91,ESE,112,2.0,2.7,83,0.00,,---,0.00,VWS V14.01,2013-02-24 13:58:00,
2013-02-24 07:59:00,39.1,34.3,29.91,ESE,112,2.5,3.4,83,0.00,,---,0.00,VWS V14.01,2013-02-24 13:59:00,
2013-02-24 08:00:00,39.6,34.9,29.91,ESE,112,2.7,2.7,83,0.00,,---,0.00,VWS V14.01,2013-02-24 14:00:00,
2013-02-24 08:01:00,39.8,34.7,29.94,SE,135,2.9,2.9,82,0.00,,---,0.00,VWS V14.01,2013-02-24 14:01:00,
2013-02-24 08:02:00,43.0,35.6,29.94,SE,135,2.2,2.2,75,0.00,,---,0.00,VWS V14.01,2013-02-24 14:02:00,
2013-02-24 08:03:00,40.1,34.8,29.94,SE,135,2.0,2.0,81,0.00,,---,0.00,VWS V14.01,2013-02-24 14:03:00,
2013-02-24 08:04:00,40.7,35.0,29.94,SE,135,1.1,2.0,80,0.00,,---,0.00,VWS V14.01,2013-02-24 14:04:00,
2013-02-24 08:05:00,40.8,34.8,29.94,SE,135,2.0,2.0,79,0.00,,---,0.00,VWS V14.01,2013-02-24 14:05:00,
2013-02-24 08:06:00,41.0,35.0,29.94,SE,135,2.0,2.2,79,0.00,,---,0.00,VWS V14.01,2013-02-24 14:06:00,
2013-02-24 08:07:00,44.0,36.3,29.94,SE,135,2.7,2.7,74,0.00,,---,0.00,VWS V14.01,2013-02-24 14:07:00,
2013-02-24 08:08:00,41.5,35.2,29.94,ESE,112,1.3,2.9,78,0.00,,---,0.00,VWS V14.01,2013-02-24 14:08:00,
2013-02-24 08:09:00,41.7,35.4,29.94,ESE,112,0.9,1.3,78,0.00,,---,0.00,VWS V14.01,2013-02-24 14:09:00,
2013-02-24 08:10:00,41.9,35.2,29.94,SE,135,1.6,2.0,77,0.00,,---,0.00,VWS V14.01,2013-02-24 14:10:00,
2013-02-24 08:11:00,42.4,35.7,29.94,SE,135,1.1,1.6,77,0.00,,---,0.00,VWS V14.01,2013-02-24 14:11:00,
2013-02-24 08:12:00,45.1,35.9,29.94,ESE,112,0.0,1.6,70,0.00,,---,0.00,VWS V14.01,2013-02-24 14:12:00,
2013-02-24 08:13:00,42.8,35.8,29.94,ESE,112,2.9,3.1,76,0.00,,---,0.00,VWS V14.01,2013-02-24 14:13:00,
2013-02-24 08:14:00,43.0,35.6,29.94,SE,135,2.0,2.9,75,0.00,,---,0.00,VWS V14.01,2013-02-24 14:14:00,
2013-02-24 08:15:00,43.1,35.8,29.94,SE,135,0.0,2.2,75,0.00,,---,0.00,VWS V14.01,2013-02-24 14:15:00,
2013-02-24 08:16:00,43.3,35.6,29.94,SSE,158,0.9,2.9,74,0.00,,---,0.00,VWS V14.01,2013-02-24 14:16:00,
2013-02-24 08:17:00,46.0,36.0,29.94,SSE,158,2.7,2.9,68,0.00,,---,0.00,VWS V14.01,2013-02-24 14:17:00,
2013-02-24 08:18:00,43.7,35.6,29.94,SE,135,0.0,2.0,73,0.00,,---,0.00,VWS V14.01,2013-02-24 14:18:00,
2013-02-24 08:19:00,44.0,36.3,29.94,SE,135,0.9,1.3,74,0.00,,---,0.00,VWS V14.01,2013-02-24 14:19:00,
2013-02-24 08:20:00,44.0,36.3,29.94,SSE,158,2.7,2.9,74,0.00,,---,0.00,VWS V14.01,2013-02-24 14:20:00,
2013-02-24 08:21:00,44.6,36.5,29.94,SE,135,2.9,3.4,73,0.00,,---,0.00,VWS V14.01,2013-02-24 14:21:00,
2013-02-24 08:22:00,46.9,36.1,29.94,SSE,158,2.5,2.5,66,0.00,,---,0.00,VWS V14.01,2013-02-24 14:22:00,
2013-02-24 08:23:00,44.9,36.1,29.94,SE,135,2.0,2.9,71,0.00,,---,0.00,VWS V14.01,2013-02-24 14:23:00,
2013-02-24 08:24:00,44.9,36.1,29.94,ESE,112,1.6,2.5,71,0.00,,---,0.00,VWS V14.01,2013-02-24 14:24:00,
2013-02-24 08:25:00,45.1,35.9,29.94,SE,135,1.6,1.6,70,0.00,,---,0.00,VWS V14.01,2013-02-24 14:25:00,
2013-02-24 08:26:00,45.5,36.2,29.94,SE,135,2.5,2.7,70,0.00,,---,0.00,VWS V14.01,2013-02-24 14:26:00,
2013-02-24 08:27:00,47.6,36.4,29.94,ESE,112,4.9,6.0,65,0.00,,---,0.00,VWS V14.01,2013-02-24 14:27:00,
2013-02-24 08:28:00,45.8,36.2,29.94,SE,135,2.5,3.8,69,0.00,,---,0.00,VWS V14.01,2013-02-24 14:28:00,
2013-02-24 08:29:00,46.0,36.0,29.94,SE,135,2.0,4.0,68,0.00,,---,0.00,VWS V14.01,2013-02-24 14:29:00,
2013-02-24 08:30:00,46.2,36.2,29.94,SE,135,2.9,3.1,68,0.00,,---,0.00,VWS V14.01,2013-02-24 14:30:00,
2013-02-24 08:31:00,46.3,36.0,29.94,SSE,158,4.3,4.3,67,0.00,,---,0.00,VWS V14.01,2013-02-24 14:31:00,
2013-02-24 08:32:00,48.3,35.1,29.94,SSE,158,6.0,6.0,60,0.00,,---,0.00,VWS V14.01,2013-02-24 14:32:00,
2013-02-24 08:33:00,46.5,35.8,29.94,South,180,1.3,4.0,66,0.00,,---,0.00,VWS V14.01,2013-02-24 14:33:00,
2013-02-24 08:34:00,46.9,36.1,29.94,SE,135,1.3,2.7,66,0.00,,---,0.00,VWS V14.01,2013-02-24 14:34:00,
2013-02-24 08:35:00,47.0,36.3,29.94,SE,135,1.6,2.7,66,0.00,,---,0.00,VWS V14.01,2013-02-24 14:35:00,
2013-02-24 08:36:00,47.2,36.5,29.94,SE,135,1.3,2.9,66,0.00,,---,0.00,VWS V14.01,2013-02-24 14:36:00,
2013-02-24 08:37:00,49.2,35.5,29.94,SE,135,4.0,4.0,59,0.00,,---,0.00,VWS V14.01,2013-02-24 14:37:00,
2013-02-24 08:38:00,47.6,36.4,29.94,SE,135,4.0,4.0,65,0.00,,---,0.00,VWS V14.01,2013-02-24 14:38:00,
2013-02-24 08:39:00,47.6,36.4,29.94,SE,135,6.0,6.9,65,0.00,,---,0.00,VWS V14.01,2013-02-24 14:39:00,
2013-02-24 08:40:00,47.6,36.4,29.94,SE,135,6.5,6.5,65,0.00,,---,0.00,VWS V14.01,2013-02-24 14:40:00,
2013-02-24 08:41:00,47.9,34.3,29.94,SE,135,6.5,8.5,59,0.00,,---,0.00,VWS V14.01,2013-02-24 14:41:00,
2013-02-24 08:42:00,49.9,35.3,29.94,East,90,3.4,3.6,57,0.00,,---,0.00,VWS V14.01,2013-02-24 14:42:00,
2013-02-24 08:43:00,47.9,34.3,29.94,SE,135,3.4,7.4,59,0.00,,---,0.00,VWS V14.01,2013-02-24 14:43:00,
2013-02-24 08:44:00,48.3,35.1,29.94,ESE,112,4.9,4.9,60,0.00,,---,0.00,VWS V14.01,2013-02-24 14:44:00,
2013-02-24 08:45:00,48.5,35.2,29.94,SE,135,2.2,6.0,60,0.00,,---,0.00,VWS V14.01,2013-02-24 14:45:00,
2013-02-24 08:46:00,48.6,35.4,29.94,ESE,112,2.7,2.7,60,0.00,,---,0.00,VWS V14.01,2013-02-24 14:46:00,
2013-02-24 08:47:00,50.8,36.1,29.94,ESE,112,2.0,2.5,57,0.00,,---,0.00,VWS V14.01,2013-02-24 14:47:00,
2013-02-24 08:48:00,48.8,35.1,29.94,East,90,2.7,6.5,59,0.00,,---,0.00,VWS V14.01,2013-02-24 14:48:00,
2013-02-24 08:49:00,49.2,35.5,29.94,SE,135,3.4,4.0,59,0.00,,---,0.00,VWS V14.01,2013-02-24 14:49:00,
2013-02-24 08:50:00,49.3,35.6,29.94,SE,135,3.1,4.0,59,0.00,,---,0.00,VWS V14.01,2013-02-24 14:50:00,
2013-02-24 08:51:00,49.5,35.8,29.94,SE,135,4.0,4.0,59,0.00,,---,0.00,VWS V14.01,2013-02-24 14:51:00,
2013-02-24 08:52:00,51.1,35.5,29.94,ESE,112,5.8,5.8,55,0.00,,---,0.00,VWS V14.01,2013-02-24 14:52:00,
2013-02-24 08:53:00,49.7,35.5,29.94,ESE,112,5.8,6.3,58,0.00,,---,0.00,VWS V14.01,2013-02-24 14:53:00,
2013-02-24 08:54:00,49.9,35.7,29.94,East,90,3.6,5.8,58,0.00,,---,0.00,VWS V14.01,2013-02-24 14:54:00,
2013-02-24 08:55:00,49.9,35.3,29.94,SE,135,2.9,4.9,57,0.00,,---,0.00,VWS V14.01,2013-02-24 14:55:00,
2013-02-24 08:56:00,50.2,36.0,29.94,East,90,1.6,4.7,58,0.00,,---,0.00,VWS V14.01,2013-02-24 14:56:00,
2013-02-24 08:57:00,52.0,35.9,29.94,SE,135,4.5,4.5,54,0.00,,---,0.00,VWS V14.01,2013-02-24 14:57:00,
2013-02-24 08:58:00,50.6,35.9,29.94,East,90,2.7,5.4,57,0.00,,---,0.00,VWS V14.01,2013-02-24 14:58:00,
2013-02-24 08:59:00,50.8,36.1,29.94,SE,135,2.5,4.0,57,0.00,,---,0.00,VWS V14.01,2013-02-24 14:59:00,
2013-02-24 09:00:00,50.8,35.7,29.94,ENE,68,5.8,7.8,56,0.00,,---,0.00,VWS V14.01,2013-02-24 15:00:00,
2013-02-24 09:01:00,50.9,35.4,29.94,SSE,158,6.0,6.3,55,0.00,,---,0.00,VWS V14.01,2013-02-24 15:01:00,
2013-02-24 09:02:00,51.8,35.3,29.94,SE,135,8.7,8.7,53,0.00,,---,0.00,VWS V14.01,2013-02-24 15:02:00,
2013-02-24 09:03:00,50.8,34.7,29.94,ESE,112,4.9,6.5,54,0.00,,---,0.00,VWS V14.01,2013-02-24 15:03:00,
2013-02-24 09:04:00,51.1,35.5,29.94,East,90,4.3,6.0,55,0.00,,---,0.00,VWS V14.01,2013-02-24 15:04:00,
2013-02-24 09:05:00,51.1,35.1,29.94,SE,135,5.8,5.8,54,0.00,,---,0.00,VWS V14.01,2013-02-24 15:05:00,
2013-02-24 09:06:00,51.3,35.2,29.94,SE,135,4.0,5.8,54,0.00,,---,0.00,VWS V14.01,2013-02-24 15:06:00,
2013-02-24 09:07:00,52.9,36.7,29.94,ESE,112,3.6,3.6,54,0.00,,---,0.00,VWS V14.01,2013-02-24 15:07:00,
2013-02-24 09:08:00,51.7,35.6,29.94,ENE,68,7.2,7.2,54,0.00,,---,0.00,VWS V14.01,2013-02-24 15:08:00,
2013-02-24 09:09:00,51.8,35.7,29.94,ESE,112,3.1,7.2,54,0.00,,---,0.00,VWS V14.01,2013-02-24 15:09:00,
2013-02-24 09:10:00,52.0,35.9,29.94,South,180,4.7,4.7,54,0.00,,---,0.00,VWS V14.01,2013-02-24 15:10:00,
2013-02-24 09:11:00,52.2,36.1,29.94,SE,135,3.6,4.7,54,0.00,,---,0.00,VWS V14.01,2013-02-24 15:11:00,
2013-02-24 09:12:00,53.1,36.4,29.94,SSE,158,3.4,4.9,53,0.00,,---,0.00,VWS V14.01,2013-02-24 15:12:00,
2013-02-24 09:13:00,51.7,35.1,29.94,East,90,7.6,9.0,53,0.00,,---,0.00,VWS V14.01,2013-02-24 15:13:00,
2013-02-24 09:14:00,51.8,35.3,29.94,SE,135,4.0,7.6,53,0.00,,---,0.00,VWS V14.01,2013-02-24 15:14:00,
2013-02-24 09:15:00,51.8,35.3,29.94,SE,135,7.2,10.5,53,0.00,,---,0.00,VWS V14.01,2013-02-24 15:15:00,
2013-02-24 09:16:00,52.0,35.4,29.94,SSE,158,3.8,7.4,53,0.00,,---,0.00,VWS V14.01,2013-02-24 15:16:00,
2013-02-24 09:17:00,53.6,36.4,29.94,ESE,112,3.8,5.4,52,0.00,,---,1.25,VWS V14.01,2013-02-24 15:17:00,
2013-02-24 09:18:00,52.5,36.4,29.94,SE,135,4.0,4.3,54,0.00,,---,0.00,VWS V14.01,2013-02-24 15:18:00,
2013-02-24 09:19:00,52.9,36.7,29.94,South,180,2.9,7.2,54,0.00,,---,0.00,VWS V14.01,2013-02-24 15:19:00,
2013-02-24 09:20:00,53.1,36.4,29.94,SE,135,4.9,4.9,53,0.00,,---,0.00,VWS V14.01,2013-02-24 15:20:00,
2013-02-24 09:21:00,52.7,36.1,29.94,ESE,112,7.6,9.6,53,0.00,,---,0.00,VWS V14.01,2013-02-24 15:21:00,
2013-02-24 09:22:00,52.9,36.2,29.94,SSE,158,3.4,8.5,53,0.00,,---,0.00,VWS V14.01,2013-02-24 15:22:00,
2013-02-24 09:23:00,54.3,37.1,29.91,SSE,158,3.4,6.0,52,0.00,,---,0.00,VWS V14.01,2013-02-24 15:23:00,
2013-02-24 09:24:00,53.1,35.9,29.94,NE,45,4.9,6.5,52,0.00,,---,0.00,VWS V14.01,2013-02-24 15:24:00,
2013-02-24 09:25:00,53.1,36.4,29.94,SE,135,5.8,6.3,53,0.00,,---,0.00,VWS V14.01,2013-02-24 15:25:00,
2013-02-24 09:26:00,53.1,36.4,29.94,SSE,158,10.3,10.3,53,0.00,,---,0.00,VWS V14.01,2013-02-24 15:26:00,
2013-02-24 09:27:00,53.1,35.9,29.94,SSE,158,4.9,10.3,52,0.00,,---,0.00,VWS V14.01,2013-02-24 15:27:00,
2013-02-24 09:28:00,54.3,36.6,29.91,ESE,112,11.0,11.0,51,0.00,,---,0.00,VWS V14.01,2013-02-24 15:28:00,
2013-02-24 09:29:00,53.6,36.4,29.94,ESE,112,4.3,10.1,52,0.00,,---,0.00,VWS V14.01,2013-02-24 15:29:00,
2013-02-24 09:30:00,53.6,36.4,29.94,SE,135,3.6,5.4,52,0.00,,---,0.00,VWS V14.01,2013-02-24 15:30:00,
2013-02-24 09:31:00,53.8,36.6,29.91,SE,135,3.6,5.4,52,0.00,,---,0.00,VWS V14.01,2013-02-24 15:31:00,
2013-02-24 09:32:00,54.1,37.4,29.91,East,90,3.8,3.8,53,0.00,,---,0.00,VWS V14.01,2013-02-24 15:32:00,
2013-02-24 09:33:00,54.8,37.1,29.91,SE,135,4.0,4.0,51,0.00,,---,0.00,VWS V14.01,2013-02-24 15:33:00,
2013-02-24 09:34:00,54.1,36.9,29.91,ESE,112,6.0,6.0,52,0.00,,---,0.00,VWS V14.01,2013-02-24 15:34:00,
2013-02-24 09:35:00,54.3,37.1,29.91,SE,135,8.7,8.7,52,0.00,,---,0.00,VWS V14.01,2013-02-24 15:35:00,
2013-02-24 09:36:00,54.3,37.1,29.91,SSE,158,5.4,9.8,52,0.00,,---,0.00,VWS V14.01,2013-02-24 15:36:00,
2013-02-24 09:37:00,55.5,37.7,29.88,SE,135,4.0,6.0,51,0.00,,---,0.00,VWS V14.01,2013-02-24 15:37:00,
2013-02-24 09:38:00,54.3,37.1,29.91,South,180,6.5,7.4,52,0.00,,---,0.00,VWS V14.01,2013-02-24 15:38:00,
2013-02-24 09:39:00,54.5,37.2,29.91,SE,135,7.4,7.4,52,0.00,,---,0.00,VWS V14.01,2013-02-24 15:39:00,
2013-02-24 09:40:00,54.3,36.6,29.91,SSE,158,4.9,11.0,51,0.00,,---,0.00,VWS V14.01,2013-02-24 15:40:00,
2013-02-24 09:41:00,54.5,37.2,29.91,SE,135,6.3,7.4,52,0.00,,---,0.00,VWS V14.01,2013-02-24 15:41:00,
2013-02-24 09:42:00,56.1,38.2,29.88,ESE,112,3.8,6.5,51,0.00,,---,1.25,VWS V14.01,2013-02-24 15:42:00,
2013-02-24 09:43:00,54.8,37.1,29.91,SE,135,9.8,10.7,51,0.00,,---,0.00,VWS V14.01,2013-02-24 15:43:00,
2013-02-24 09:44:00,54.8,37.1,29.91,ESE,112,4.0,9.8,51,0.00,,---,0.00,VWS V14.01,2013-02-24 15:44:00,
2013-02-24 09:45:00,55.0,37.2,29.91,South,180,6.0,6.5,51,0.00,,---,0.00,VWS V14.01,2013-02-24 15:45:00,
2013-02-24 09:46:00,55.0,37.2,29.88,ESE,112,6.7,10.7,51,0.00,,---,0.00,VWS V14.01,2013-02-24 15:46:00,
2013-02-24 09:47:00,55.2,37.4,29.88,SE,135,6.3,7.6,51,0.00,,---,0.00,VWS V14.01,2013-02-24 15:47:00,
2013-02-24 09:48:00,57.0,38.5,29.88,SE,135,6.5,8.5,50,0.00,,---,0.00,VWS V14.01,2013-02-24 15:48:00,
2013-02-24 09:49:00,55.2,37.4,29.88,SE,135,3.4,9.0,51,0.00,,---,0.00,VWS V14.01,2013-02-24 15:49:00,
2013-02-24 09:50:00,55.7,37.9,29.88,SE,135,2.5,6.0,51,0.00,,---,0.00,VWS V14.01,2013-02-24 15:50:00,
2013-02-24 09:51:00,55.9,38.1,29.88,South,180,7.8,7.8,51,0.00,,---,0.00,VWS V14.01,2013-02-24 15:51:00,
2013-02-24 09:52:00,56.1,38.2,29.88,SE,135,4.9,7.8,51,0.00,,---,0.00,VWS V14.01,2013-02-24 15:52:00,
2013-02-24 09:53:00,57.5,39.0,29.91,SE,135,7.8,9.0,50,0.00,,---,0.00,VWS V14.01,2013-02-24 15:53:00,
2013-02-24 09:54:00,55.7,37.9,29.88,SSE,158,3.6,9.8,51,0.00,,---,0.00,VWS V14.01,2013-02-24 15:54:00,
2013-02-24 09:55:00,56.1,38.2,29.88,NNE,22,4.0,6.5,51,0.00,,---,0.00,VWS V14.01,2013-02-24 15:55:00,
2013-02-24 09:56:00,56.3,38.4,29.88,East,90,5.6,5.6,51,0.00,,---,0.00,VWS V14.01,2013-02-24 15:56:00,
2013-02-24 09:57:00,56.8,38.4,29.88,SE,135,3.1,5.6,50,0.00,,---,0.00,VWS V14.01,2013-02-24 15:57:00,
2013-02-24 09:58:00,58.6,40.0,29.91,SE,135,7.6,7.8,50,0.00,,---,0.00,VWS V14.01,2013-02-24 15:58:00,
2013-02-24 09:59:00,57.0,38.5,29.88,ESE,112,8.5,8.5,50,0.00,,---,0.00,VWS V14.01,2013-02-24 15:59:00,
2013-02-24 10:00:00,57.0,38.5,29.88,SE,135,6.0,8.5,50,0.00,,---,0.00,VWS V14.01,2013-02-24 16:00:00,
2013-02-24 10:01:00,57.0,38.5,29.91,ESE,112,9.2,9.8,50,0.00,,---,0.00,VWS V14.01,2013-02-24 16:01:00,
2013-02-24 10:02:00,57.0,38.5,29.91,ESE,112,7.6,10.3,50,0.00,,---,0.00,VWS V14.01,2013-02-24 16:02:00,
2013-02-24 10:03:00,59.6,41.0,29.91,SE,135,8.7,8.7,50,0.00,,---,0.00,VWS V14.01,2013-02-24 16:03:00,
2013-02-24 10:04:00,57.3,38.9,29.91,SE,135,5.6,7.8,50,0.00,,---,0.00,VWS V14.01,2013-02-24 16:04:00,
2013-02-24 10:05:00,57.7,39.2,29.91,South,180,6.3,9.0,50,0.00,,---,0.00,VWS V14.01,2013-02-24 16:05:00,
2013-02-24 10:06:00,57.7,39.2,29.91,SE,135,5.4,7.4,50,0.00,,---,0.00,VWS V14.01,2013-02-24 16:06:00,
2013-02-24 10:07:00,58.0,39.5,29.91,ESE,112,9.4,9.4,50,0.00,,---,0.00,VWS V14.01,2013-02-24 16:07:00,
2013-02-24 10:08:00,60.5,41.3,29.88,East,90,4.9,6.0,49,0.00,,---,0.00,VWS V14.01,2013-02-24 16:08:00,
2013-02-24 10:09:00,58.4,39.8,29.91,SE,135,5.8,5.8,50,0.00,,---,0.00,VWS V14.01,2013-02-24 16:09:00,
2013-02-24 10:10:00,58.6,40.0,29.91,ESE,112,3.8,7.8,50,0.00,,---,0.00,VWS V14.01,2013-02-24 16:10:00,
2013-02-24 10:11:00,58.7,40.2,29.91,SE,135,4.3,5.6,50,0.00,,---,0.00,VWS V14.01,2013-02-24 16:11:00,
2013-02-24 10:12:00,58.9,40.3,29.91,South,180,3.6,7.6,50,0.00,,---,0.00,VWS V14.01,2013-02-24 16:12:00,
2013-02-24 10:13:00,61.4,42.1,29.88,ESE,112,10.1,10.1,49,0.00,,---,0.00,VWS V14.01,2013-02-24 16:13:00,
2013-02-24 10:14:00,59.6,41.0,29.91,SE,135,5.6,6.0,50,0.00,,---,0.00,VWS V14.01,2013-02-24 16:14:00,
2013-02-24 10:15:00,59.6,40.5,29.91,SE,135,6.5,8.7,49,0.00,,---,0.00,VWS V14.01,2013-02-24 16:15:00,
2013-02-24 10:16:00,59.8,40.6,29.91,ESE,112,6.5,6.5,49,0.00,,---,0.00,VWS V14.01,2013-02-24 16:16:00,
2013-02-24 10:17:00,60.0,40.8,29.88,SSE,158,6.0,8.1,49,0.00,,---,0.00,VWS V14.01,2013-02-24 16:17:00,
2013-02-24 10:18:00,61.9,42.0,29.88,SE,135,6.3,9.8,48,0.00,,---,0.00,VWS V14.01,2013-02-24 16:18:00,
2013-02-24 10:20:00,60.5,41.3,29.88,SE,135,8.1,8.7,49,0.00,,---,0.00,VWS V14.01,2013-02-24 16:20:00,
2013-02-24 10:21:00,60.7,41.4,29.88,SE,135,7.2,8.1,49,0.00,,---,0.00,VWS V14.01,2013-02-24 16:21:00,
2013-02-24 10:22:00,60.9,41.1,29.88,SE,135,8.7,8.7,48,0.00,,---,0.00,VWS V14.01,2013-02-24 16:22:00,
2013-02-24 10:23:00,62.5,42.0,29.88,SE,135,10.5,10.5,47,0.00,,---,0.00,VWS V14.01,2013-02-24 16:23:00,
2013-02-24 10:24:00,61.2,41.9,29.88,SE,135,7.8,9.8,49,0.00,,---,0.00,VWS V14.01,2013-02-24 16:24:00,
2013-02-24 10:25:00,61.4,42.1,29.88,SE,135,10.1,10.1,49,0.00,,---,0.00,VWS V14.01,2013-02-24 16:25:00,
2013-02-24 10:26:00,61.4,41.6,29.88,South,180,5.4,10.5,48,0.00,,---,0.00,VWS V14.01,2013-02-24 16:26:00,
2013-02-24 10:27:00,61.6,41.7,29.88,East,90,5.6,10.1,48,0.00,,---,0.00,VWS V14.01,2013-02-24 16:27:00,
2013-02-24 10:28:00,63.3,42.8,29.88,South,180,8.1,11.4,47,0.00,,---,0.00,VWS V14.01,2013-02-24 16:28:00,
2013-02-24 10:29:00,61.9,42.0,29.88,SE,135,7.6,8.5,48,0.00,,---,0.00,VWS V14.01,2013-02-24 16:29:00,
2013-02-24 10:30:00,61.9,41.5,29.88,ESE,112,7.4,9.8,47,0.00,,---,0.00,VWS V14.01,2013-02-24 16:30:00,
2013-02-24 10:31:00,62.1,41.7,29.88,ESE,112,6.9,7.4,47,0.00,,---,0.00,VWS V14.01,2013-02-24 16:31:00,
2013-02-24 10:32:00,62.3,42.4,29.88,ESE,112,4.3,6.9,48,0.00,,---,0.00,VWS V14.01,2013-02-24 16:32:00,
2013-02-24 10:33:00,64.1,42.9,29.88,SSE,158,3.1,10.1,46,0.00,,---,0.00,VWS V14.01,2013-02-24 16:33:00,
2013-02-24 10:34:00,62.5,42.0,29.88,SE,135,9.8,9.8,47,0.00,,---,0.00,VWS V14.01,2013-02-24 16:34:00,
2013-02-24 10:35:00,62.5,42.0,29.88,SE,135,5.6,10.5,47,0.00,,---,0.00,VWS V14.01,2013-02-24 16:35:00,
2013-02-24 10:36:00,63.0,42.5,29.88,SSE,158,4.0,8.1,47,0.00,,---,0.00,VWS V14.01,2013-02-24 16:36:00,
2013-02-24 10:37:00,63.2,42.6,29.88,ESE,112,4.0,6.5,47,0.00,,---,0.00,VWS V14.01,2013-02-24 16:37:00,
2013-02-24 10:38:00,64.2,42.5,29.88,SE,135,6.5,13.4,45,0.00,,---,0.00,VWS V14.01,2013-02-24 16:38:00,
2013-02-24 10:39:00,63.3,42.8,29.88,ESE,112,11.4,13.9,47,0.00,,---,0.00,VWS V14.01,2013-02-24 16:39:00,
2013-02-24 10:40:00,63.3,42.8,29.88,SE,135,6.3,11.4,47,0.00,,---,0.00,VWS V14.01,2013-02-24 16:40:00,
2013-02-24 10:41:00,63.5,43.0,29.88,SSE,158,7.4,9.4,47,0.00,,---,0.00,VWS V14.01,2013-02-24 16:41:00,
2013-02-24 10:42:00,63.7,43.1,29.88,SE,135,10.1,12.5,47,0.00,,---,0.00,VWS V14.01,2013-02-24 16:42:00,
2013-02-24 10:43:00,64.6,42.2,29.88,SE,135,13.0,13.2,44,0.00,,---,0.00,VWS V14.01,2013-02-24 16:43:00,
2013-02-24 10:44:00,63.9,42.7,29.88,SE,135,10.1,10.1,46,0.00,,---,0.00,VWS V14.01,2013-02-24 16:44:00,
2013-02-24 10:45:00,64.1,42.9,29.88,SSE,158,8.7,10.1,46,0.00,,---,0.00,VWS V14.01,2013-02-24 16:45:00,
2013-02-24 10:46:00,64.1,42.9,29.88,SE,135,9.6,9.6,46,0.00,,---,0.00,VWS V14.01,2013-02-24 16:46:00,
2013-02-24 10:47:00,64.2,43.0,29.88,SE,135,10.3,12.3,46,0.00,,---,0.00,VWS V14.01,2013-02-24 16:47:00,
2013-02-24 10:48:00,64.9,41.9,29.88,South,180,8.7,10.7,43,0.00,,---,0.00,VWS V14.01,2013-02-24 16:48:00,
2013-02-24 10:49:00,64.2,43.0,29.88,SE,135,13.4,15.4,46,0.00,,---,0.00,VWS V14.01,2013-02-24 16:49:00,
2013-02-24 10:50:00,64.2,42.5,29.88,South,180,11.0,13.4,45,0.00,,---,0.00,VWS V14.01,2013-02-24 16:50:00,
2013-02-24 10:51:00,64.4,42.6,29.88,East,90,7.8,13.2,45,0.00,,---,0.00,VWS V14.01,2013-02-24 16:51:00,
2013-02-24 10:52:00,64.6,42.8,29.88,South,180,10.1,10.1,45,0.00,,---,0.00,VWS V14.01,2013-02-24 16:52:00,
2013-02-24 10:53:00,64.9,41.9,29.91,South,180,7.8,12.8,43,0.00,,---,0.00,VWS V14.01,2013-02-24 16:53:00,
2013-02-24 10:54:00,64.6,42.8,29.88,ESE,112,8.5,12.3,45,0.00,,---,0.00,VWS V14.01,2013-02-24 16:54:00,
2013-02-24 10:55:00,64.6,42.2,29.88,SE,135,12.5,13.2,44,0.00,,---,0.00,VWS V14.01,2013-02-24 16:55:00,
2013-02-24 10:56:00,64.6,42.2,29.88,ESE,112,5.8,12.5,44,0.00,,---,0.00,VWS V14.01,2013-02-24 16:56:00,
2013-02-24 10:57:00,64.8,42.4,29.88,SSE,158,11.9,13.6,44,0.00,,---,0.00,VWS V14.01,2013-02-24 16:57:00,
2013-02-24 10:58:00,65.3,42.3,29.91,SSE,158,17.9,17.9,43,0.00,,---,0.00,VWS V14.01,2013-02-24 16:58:00,
2013-02-24 11:00:00,64.9,41.9,29.88,SE,135,17.0,17.0,43,0.00,,---,0.00,VWS V14.01,2013-02-24 17:00:00,
2013-02-24 11:01:00,64.9,41.9,29.88,SSE,158,7.4,17.0,43,0.00,,---,0.00,VWS V14.01,2013-02-24 17:01:00,
2013-02-24 11:02:00,64.9,41.9,29.91,South,180,14.3,14.3,43,0.00,,---,0.00,VWS V14.01,2013-02-24 17:02:00,
2013-02-24 11:03:00,65.5,41.8,29.91,SSE,158,10.3,10.5,42,0.00,,---,0.00,VWS V14.01,2013-02-24 17:03:00,
2013-02-24 11:04:00,65.1,42.1,29.91,SE,135,11.4,12.8,43,0.00,,---,0.00,VWS V14.01,2013-02-24 17:04:00,
2013-02-24 11:05:00,64.9,41.9,29.91,South,180,10.5,12.8,43,0.00,,---,0.00,VWS V14.01,2013-02-24 17:05:00,
2013-02-24 11:06:00,64.9,41.9,29.91,SE,135,10.3,19.9,43,0.00,,---,0.00,VWS V14.01,2013-02-24 17:06:00,
2013-02-24 11:07:00,64.9,41.9,29.91,South,180,8.7,12.5,43,0.00,,---,0.00,VWS V14.01,2013-02-24 17:07:00,
2013-02-24 11:08:00,66.0,42.3,29.88,SE,135,16.1,16.1,42,0.00,,---,0.00,VWS V14.01,2013-02-24 17:08:00,
2013-02-24 11:09:00,65.3,42.3,29.91,South,180,6.5,10.5,43,0.00,,---,0.00,VWS V14.01,2013-02-24 17:09:00,
2013-02-24 11:10:00,65.3,42.3,29.91,SE,135,9.6,17.9,43,0.00,,---,0.00,VWS V14.01,2013-02-24 17:10:00,
2013-02-24 11:11:00,65.3,42.3,29.91,South,180,13.0,13.0,43,0.00,,---,0.00,VWS V14.01,2013-02-24 17:11:00,
2013-02-24 11:12:00,65.5,42.4,29.91,SSE,158,8.1,13.0,43,0.00,,---,0.00,VWS V14.01,2013-02-24 17:12:00,
2013-02-24 11:13:00,66.4,42.6,29.88,SE,135,11.9,11.9,42,0.00,,---,0.00,VWS V14.01,2013-02-24 17:13:00,
2013-02-24 11:14:00,65.5,41.8,29.91,SE,135,9.2,14.1,42,0.00,,---,0.00,VWS V14.01,2013-02-24 17:14:00,
2013-02-24 11:15:00,65.5,41.8,29.91,SSE,158,10.3,10.5,42,0.00,,---,0.00,VWS V14.01,2013-02-24 17:15:00,
2013-02-24 11:16:00,65.7,42.0,29.88,East,90,11.0,11.0,42,0.00,,---,0.00,VWS V14.01,2013-02-24 17:16:00,
2013-02-24 11:17:00,65.8,42.1,29.88,East,90,4.0,11.0,42,0.00,,---,0.00,VWS V14.01,2013-02-24 17:17:00,
2013-02-24 11:18:00,66.9,42.5,29.88,SSE,158,10.5,10.5,41,0.00,,---,0.00,VWS V14.01,2013-02-24 17:18:00,
2013-02-24 11:19:00,66.0,42.3,29.88,SE,135,12.3,14.1,42,0.00,,---,0.00,VWS V14.01,2013-02-24 17:19:00,
2013-02-24 11:20:00,66.2,42.4,29.88,SE,135,7.4,16.1,42,0.00,,---,0.00,VWS V14.01,2013-02-24 17:20:00,
2013-02-24 11:21:00,66.2,42.4,29.88,SE,135,10.1,14.8,42,0.00,,---,0.00,VWS V14.01,2013-02-24 17:21:00,
2013-02-24 11:22:00,66.0,42.3,29.88,ESE,112,12.8,13.2,42,0.00,,---,0.00,VWS V14.01,2013-02-24 17:22:00,
2013-02-24 11:23:00,67.2,42.8,29.88,SE,135,8.7,10.5,41,0.00,,---,0.00,VWS V14.01,2013-02-24 17:23:00,
2013-02-24 11:24:00,66.2,42.4,29.88,SE,135,6.5,10.3,42,0.00,,---,0.00,VWS V14.01,2013-02-24 17:24:00,
2013-02-24 11:25:00,66.4,42.6,29.88,SE,135,7.8,11.9,42,0.00,,---,0.00,VWS V14.01,2013-02-24 17:25:00,
2013-02-24 11:26:00,66.5,42.8,29.88,SE,135,7.8,11.0,42,0.00,,---,0.00,VWS V14.01,2013-02-24 17:26:00,
2013-02-24 11:27:00,66.7,42.9,29.88,SE,135,11.2,11.2,42,0.00,,---,0.00,VWS V14.01,2013-02-24 17:27:00,
2013-02-24 11:28:00,67.4,42.3,29.88,SSE,158,10.3,12.5,40,0.00,,---,0.00,VWS V14.01,2013-02-24 17:28:00,
2013-02-24 11:29:00,66.9,43.1,29.88,SSE,158,7.6,8.7,42,0.00,,---,0.00,VWS V14.01,2013-02-24 17:29:00,
2013-02-24 11:30:00,66.9,42.5,29.88,SSE,158,7.2,10.5,41,0.00,,---,0.00,VWS V14.01,2013-02-24 17:30:00,
2013-02-24 11:31:00,66.9,42.5,29.88,SE,135,8.1,8.1,41,0.00,,---,0.00,VWS V14.01,2013-02-24 17:31:00,
2013-02-24 11:32:00,67.2,42.8,29.88,ESE,112,6.5,10.1,41,0.00,,---,0.00,VWS V14.01,2013-02-24 17:32:00,
2013-02-24 11:33:00,67.2,41.5,29.88,SSE,158,10.7,12.3,39,0.00,,---,0.00,VWS V14.01,2013-02-24 17:33:00,
2013-02-24 11:34:00,67.2,42.8,29.88,ESE,112,10.5,10.7,41,0.00,,---,0.00,VWS V14.01,2013-02-24 17:34:00,
2013-02-24 11:35:00,67.2,42.8,29.88,SE,135,8.5,10.5,41,0.00,,---,0.00,VWS V14.01,2013-02-24 17:35:00,
2013-02-24 11:36:00,67.2,42.1,29.88,SE,135,10.5,10.5,40,0.00,,---,0.00,VWS V14.01,2013-02-24 17:36:00,
2013-02-24 11:37:00,67.2,42.1,29.88,ESE,112,8.1,10.5,40,0.00,,---,0.00,VWS V14.01,2013-02-24 17:37:00,
2013-02-24 11:38:00,67.4,42.3,29.85,ESE,112,8.7,8.7,40,0.00,,---,0.00,VWS V14.01,2013-02-24 17:38:00,
2013-02-24 11:39:00,67.4,42.3,29.88,ESE,112,8.5,8.5,40,0.00,,---,0.00,VWS V14.01,2013-02-24 17:39:00,
2013-02-24 11:40:00,67.4,42.3,29.88,SSE,158,10.3,12.5,40,0.00,,---,0.00,VWS V14.01,2013-02-24 17:40:00,
2013-02-24 11:41:00,67.4,41.6,29.88,SSE,158,9.2,13.0,39,0.00,,---,0.00,VWS V14.01,2013-02-24 17:41:00,
2013-02-24 11:42:00,67.6,42.5,29.88,SSE,158,7.6,10.7,40,0.00,,---,0.00,VWS V14.01,2013-02-24 17:42:00,
2013-02-24 11:43:00,68.1,42.9,29.85,SE,135,7.4,10.1,40,0.00,,---,0.00,VWS V14.01,2013-02-24 17:43:00,
2013-02-24 11:44:00,67.1,42.0,29.88,SE,135,9.4,15.2,40,0.00,,---,0.00,VWS V14.01,2013-02-24 17:44:00,
2013-02-24 11:45:00,67.2,41.5,29.88,SSE,158,10.7,12.3,39,0.00,,---,0.00,VWS V14.01,2013-02-24 17:45:00,
2013-02-24 11:46:00,67.2,42.1,29.85,SSE,158,7.8,14.3,40,0.00,,---,0.00,VWS V14.01,2013-02-24 17:46:00,
2013-02-24 11:47:00,67.2,41.5,29.85,South,180,7.8,12.1,39,0.00,,---,0.00,VWS V14.01,2013-02-24 17:47:00,
2013-02-24 11:48:00,68.1,42.3,29.85,South,180,5.4,12.5,39,0.00,,---,1.25,VWS V14.01,2013-02-24 17:48:00,
2013-02-24 11:49:00,67.2,42.1,29.85,South,180,5.4,12.1,40,0.00,,---,0.00,VWS V14.01,2013-02-24 17:49:00,
2013-02-24 11:50:00,67.4,42.3,29.85,SE,135,6.3,8.7,40,0.00,,---,0.00,VWS V14.01,2013-02-24 17:50:00,
2013-02-24 11:51:00,67.8,42.6,29.85,SSE,158,4.9,8.5,40,0.00,,---,0.00,VWS V14.01,2013-02-24 17:51:00,
2013-02-24 11:52:00,68.1,42.9,29.85,SE,135,7.8,7.8,40,0.00,,---,0.00,VWS V14.01,2013-02-24 17:52:00,
2013-02-24 11:53:00,68.7,42.7,29.85,SE,135,10.5,12.1,39,0.00,,---,0.00,VWS V14.01,2013-02-24 17:53:00,
2013-02-24 11:54:00,68.1,42.3,29.85,SSE,158,6.5,11.2,39,0.00,,---,0.00,VWS V14.01,2013-02-24 17:54:00,
2013-02-24 11:55:00,68.1,42.9,29.85,SE,135,7.4,10.1,40,0.00,,---,0.00,VWS V14.01,2013-02-24 17:55:00,
2013-02-24 11:56:00,68.3,43.1,29.85,SSE,158,14.1,14.1,40,0.00,,---,0.00,VWS V14.01,2013-02-24 17:56:00,
2013-02-24 11:57:00,68.0,42.1,29.85,South,180,10.3,14.1,39,0.00,,---,0.00,VWS V14.01,2013-02-24 17:57:00,
2013-02-24 11:58:00,68.7,42.7,29.85,South,180,9.6,9.6,39,0.00,,---,0.00,VWS V14.01,2013-02-24 17:58:00,
2013-02-24 11:59:00,68.1,42.3,29.85,SE,135,12.5,13.0,39,0.00,,---,0.00,VWS V14.01,2013-02-24 17:59:00,
2013-02-24 12:00:00,68.1,42.3,29.85,SSW,202,8.1,12.5,39,0.00,,---,0.00,VWS V14.01,2013-02-24 18:00:00,
2013-02-24 12:01:00,68.3,43.1,29.85,SSE,158,10.7,10.7,40,0.00,,---,0.00,VWS V14.01,2013-02-24 18:01:00,
2013-02-24 12:02:00,68.5,42.6,29.85,SE,135,4.9,10.7,39,0.00,,---,0.00,VWS V14.01,2013-02-24 18:02:00,
2013-02-24 12:03:00,68.7,42.1,29.85,SE,135,10.1,10.1,38,0.00,,---,0.00,VWS V14.01,2013-02-24 18:03:00,
2013-02-24 12:04:00,68.7,42.7,29.85,SE,135,11.0,13.0,39,0.00,,---,0.00,VWS V14.01,2013-02-24 18:04:00,
2013-02-24 12:05:00,68.7,42.7,29.85,SE,135,10.5,12.1,39,0.00,,---,0.00,VWS V14.01,2013-02-24 18:05:00,
2013-02-24 12:06:00,68.7,42.1,29.85,East,90,9.8,10.5,38,0.00,,---,0.00,VWS V14.01,2013-02-24 18:06:00,
2013-02-24 12:07:00,68.5,42.6,29.85,SSE,158,12.8,12.8,39,0.00,,---,0.00,VWS V14.01,2013-02-24 18:07:00,
2013-02-24 12:08:00,68.8,42.9,29.85,SSE,158,10.1,10.1,39,0.00,,---,0.00,VWS V14.01,2013-02-24 18:08:00,
2013-02-24 12:09:00,68.5,42.6,29.85,SE,135,11.9,13.2,39,0.00,,---,0.00,VWS V14.01,2013-02-24 18:09:00,
2013-02-24 12:10:00,68.7,42.7,29.85,SE,135,3.4,11.9,39,0.00,,---,0.00,VWS V14.01,2013-02-24 18:10:00,
2013-02-24 12:11:00,68.8,42.9,29.85,South,180,8.7,11.0,39,0.00,,---,0.00,VWS V14.01,2013-02-24 18:11:00,
2013-02-24 12:13:00,68.8,42.9,29.85,SE,135,10.7,10.7,39,0.00,,---,0.00,VWS V14.01,2013-02-24 18:13:00,
2013-02-24 12:14:00,68.5,41.9,29.85,East,90,10.1,14.8,38,0.00,,---,0.00,VWS V14.01,2013-02-24 18:14:00,
2013-02-24 12:15:00,68.7,42.1,29.85,SE,135,10.1,12.3,38,0.00,,---,0.00,VWS V14.01,2013-02-24 18:15:00,
2013-02-24 12:16:00,68.7,42.1,29.85,SSE,158,6.9,10.1,38,0.00,,---,0.00,VWS V14.01,2013-02-24 18:16:00,
2013-02-24 12:17:00,68.8,42.2,29.85,South,180,12.3,12.3,38,0.00,,---,0.00,VWS V14.01,2013-02-24 18:17:00,
2013-02-24 12:18:00,69.4,42.7,29.85,South,180,6.3,6.7,38,0.00,,---,0.00,VWS V14.01,2013-02-24 18:18:00,
2013-02-24 12:19:00,68.8,42.2,29.85,ESE,112,11.0,15.4,38,0.00,,---,0.00,VWS V14.01,2013-02-24 18:19:00,
2013-02-24 12:20:00,68.8,42.9,29.85,SSE,158,10.1,14.3,39,0.00,,---,0.00,VWS V14.01,2013-02-24 18:20:00,
2013-02-24 12:21:00,69.0,42.4,29.85,SE,135,7.6,12.5,38,0.00,,---,0.00,VWS V14.01,2013-02-24 18:21:00,
2013-02-24 12:22:00,68.8,42.9,29.85,SE,135,12.5,12.5,39,0.00,,---,0.00,VWS V14.01,2013-02-24 18:22:00,
2013-02-24 12:23:00,69.2,42.5,29.82,South,180,5.6,5.6,38,0.00,,---,0.00,VWS V14.01,2013-02-24 18:23:00,
2013-02-24 12:24:00,68.7,42.1,29.85,ESE,112,8.5,15.2,38,0.00,,---,0.00,VWS V14.01,2013-02-24 18:24:00,
2013-02-24 12:25:00,68.8,42.9,29.85,SE,135,10.7,13.2,39,0.00,,---,0.00,VWS V14.01,2013-02-24 18:25:00,
2013-02-24 12:26:00,69.0,42.4,29.85,SE,135,5.4,13.0,38,0.00,,---,0.00,VWS V14.01,2013-02-24 18:26:00,
2013-02-24 12:27:00,68.8,42.2,29.85,SSE,158,11.0,11.0,38,0.00,,---,0.00,VWS V14.01,2013-02-24 18:27:00,
2013-02-24 12:28:00,70.1,43.3,29.82,South,180,8.7,8.7,38,0.00,,---,0.00,VWS V14.01,2013-02-24 18:28:00,
2013-02-24 12:29:00,69.2,42.5,29.85,SE,135,5.8,13.0,38,0.00,,---,0.00,VWS V14.01,2013-02-24 18:29:00,
2013-02-24 12:30:00,69.4,42.7,29.85,SE,135,6.7,8.1,38,0.00,,---,0.00,VWS V14.01,2013-02-24 18:30:00,
2013-02-24 12:31:00,69.4,42.7,29.82,SSE,158,13.9,15.2,38,0.00,,---,0.00,VWS V14.01,2013-02-24 18:31:00,
2013-02-24 12:32:00,69.4,42.7,29.82,SE,135,10.3,13.9,38,0.00,,---,0.00,VWS V14.01,2013-02-24 18:32:00,
2013-02-24 12:33:00,69.6,42.2,29.82,South,180,10.1,10.1,37,0.00,,---,0.00,VWS V14.01,2013-02-24 18:33:00,
2013-02-24 12:34:00,69.2,42.5,29.82,South,180,7.6,14.5,38,0.00,,---,0.00,VWS V14.01,2013-02-24 18:34:00,
2013-02-24 12:35:00,69.2,42.5,29.82,South,180,5.6,11.9,38,0.00,,---,0.00,VWS V14.01,2013-02-24 18:35:00,
2013-02-24 12:36:00,69.7,43.0,29.82,SE,135,4.9,6.3,38,0.00,,---,0.00,VWS V14.01,2013-02-24 18:36:00,
2013-02-24 12:37:00,69.9,43.2,29.82,SSE,158,8.1,10.3,38,0.00,,---,0.00,VWS V14.01,2013-02-24 18:37:00,
2013-02-24 12:38:00,70.1,42.6,29.82,SE,135,6.3,13.0,37,0.00,,---,0.00,VWS V14.01,2013-02-24 18:38:00,
2013-02-24 12:39:00,70.1,43.3,29.82,SE,135,7.6,9.0,38,0.00,,---,0.00,VWS V14.01,2013-02-24 18:39:00,
2013-02-24 12:40:00,70.1,43.3,29.82,SE,135,7.8,13.2,38,0.00,,---,0.00,VWS V14.01,2013-02-24 18:40:00,
2013-02-24 12:41:00,70.1,43.3,29.82,ESE,112,8.5,8.7,38,0.00,,---,0.00,VWS V14.01,2013-02-24 18:41:00,
2013-02-24 12:42:00,70.3,42.8,29.82,SE,135,9.0,9.0,37,0.00,,---,0.00,VWS V14.01,2013-02-24 18:42:00,
2013-02-24 12:43:00,69.9,42.5,29.82,SSE,158,8.5,8.5,37,0.00,,---,0.00,VWS V14.01,2013-02-24 18:43:00,
2013-02-24 12:44:00,69.7,42.3,29.82,ESE,112,13.4,15.2,37,0.00,,---,0.00,VWS V14.01,2013-02-24 18:44:00,
2013-02-24 12:45:00,69.6,42.2,29.82,South,180,10.1,14.8,37,0.00,,---,0.00,VWS V14.01,2013-02-24 18:45:00,
2013-02-24 12:46:00,69.6,42.2,29.82,South,180,9.2,10.1,37,0.00,,---,0.00,VWS V14.01,2013-02-24 18:46:00,
2013-02-24 12:47:00,69.7,42.3,29.82,South,180,10.5,11.0,37,0.00,,---,0.00,VWS V14.01,2013-02-24 18:47:00,
2013-02-24 12:48:00,70.8,43.3,29.82,SE,135,6.7,13.2,37,0.00,,---,0.00,VWS V14.01,2013-02-24 18:48:00,
2013-02-24 12:49:00,69.9,42.5,29.82,ESE,112,9.6,10.3,37,0.00,,---,0.00,VWS V14.01,2013-02-24 18:49:00,
2013-02-24 12:50:00,70.1,42.6,29.82,South,180,13.0,17.7,37,0.00,,---,0.00,VWS V14.01,2013-02-24 18:50:00,
2013-02-24 12:51:00,70.1,42.6,29.82,SSE,158,10.1,13.0,37,0.00,,---,0.00,VWS V14.01,2013-02-24 18:51:00,
2013-02-24 12:52:00,70.1,42.6,29.82,SSE,158,7.8,12.3,37,0.00,,---,0.00,VWS V14.01,2013-02-24 18:52:00,
2013-02-24 12:53:00,70.8,42.5,29.82,SE,135,4.3,9.8,36,0.00,,---,0.00,VWS V14.01,2013-02-24 18:53:00,
2013-02-24 12:54:00,69.9,42.5,29.82,South,180,15.4,15.4,37,0.00,,---,0.00,VWS V14.01,2013-02-24 18:54:00,
2013-02-24 12:55:00,69.9,42.5,29.82,South,180,5.8,15.4,37,0.00,,---,0.00,VWS V14.01,2013-02-24 18:55:00,
2013-02-24 12:56:00,70.1,42.6,29.82,South,180,7.4,10.5,37,0.00,,---,0.00,VWS V14.01,2013-02-24 18:56:00,
2013-02-24 12:57:00,70.3,42.8,29.82,South,180,6.5,10.5,37,0.00,,---,0.00,VWS V14.01,2013-02-24 18:57:00,
2013-02-24 12:58:00,71.0,42.7,29.82,SSE,158,8.1,10.1,36,0.00,,---,0.00,VWS V14.01,2013-02-24 18:58:00,
2013-02-24 12:59:00,70.6,43.1,29.82,South,180,6.0,12.5,37,0.00,,---,0.00,VWS V14.01,2013-02-24 18:59:00,
2013-02-24 13:00:00,70.8,43.3,29.82,ESE,112,13.2,13.2,37,0.00,,---,0.00,VWS V14.01,2013-02-24 19:00:00,
2013-02-24 13:01:00,70.8,43.3,29.82,South,180,6.3,13.2,37,0.00,,---,0.00,VWS V14.01,2013-02-24 19:01:00,
2013-02-24 13:02:00,70.8,43.3,29.82,SE,135,8.1,9.8,37,0.00,,---,0.00,VWS V14.01,2013-02-24 19:02:00,
2013-02-24 13:03:00,71.0,42.7,29.82,SSE,158,10.7,13.4,36,0.00,,---,0.00,VWS V14.01,2013-02-24 19:03:00,
2013-02-24 13:04:00,71.0,43.4,29.82,SE,135,9.0,10.5,37,0.00,,---,0.00,VWS V14.01,2013-02-24 19:04:00,
2013-02-24 13:05:00,71.0,42.7,29.82,ENE,68,9.8,12.3,36,0.00,,---,0.00,VWS V14.01,2013-02-24 19:05:00,
2013-02-24 13:06:00,70.6,42.4,29.82,SE,135,10.3,13.9,36,0.00,,---,0.00,VWS V14.01,2013-02-24 19:06:00,
2013-02-24 13:07:00,71.0,42.7,29.82,South,180,4.7,10.3,36,0.00,,---,0.00,VWS V14.01,2013-02-24 19:07:00,
2013-02-24 13:08:00,70.6,43.1,29.79,SE,135,12.8,13.9,37,0.00,,---,0.00,VWS V14.01,2013-02-24 19:08:00,
2013-02-24 13:09:00,71.0,42.7,29.82,South,180,13.2,13.2,36,0.00,,---,0.00,VWS V14.01,2013-02-24 19:09:00,
2013-02-24 13:10:00,71.0,42.7,29.82,ESE,112,10.1,13.2,36,0.00,,---,0.00,VWS V14.01,2013-02-24 19:10:00,
2013-02-24 13:11:00,70.8,42.5,29.82,SSE,158,11.0,11.9,36,0.00,,---,0.00,VWS V14.01,2013-02-24 19:11:00,
2013-02-24 13:12:00,70.8,42.5,29.82,ESE,112,5.6,12.3,36,0.00,,---,0.00,VWS V14.01,2013-02-24 19:12:00,
2013-02-24 13:13:00,70.8,42.5,29.79,SE,135,8.1,10.3,36,0.00,,---,0.00,VWS V14.01,2013-02-24 19:13:00,
2013-02-24 13:14:00,71.0,42.7,29.82,South,180,11.0,12.5,36,0.00,,---,0.00,VWS V14.01,2013-02-24 19:14:00,
2013-02-24 13:16:00,71.2,42.9,29.79,SE,135,8.7,13.4,36,0.00,,---,0.00,VWS V14.01,2013-02-24 19:16:00,
2013-02-24 13:17:00,71.3,43.7,29.79,ESE,112,12.3,12.3,37,0.00,,---,0.00,VWS V14.01,2013-02-24 19:17:00,
2013-02-24 13:18:00,70.3,42.8,29.79,SE,135,11.9,16.8,37,0.00,,---,0.00,VWS V14.01,2013-02-24 19:18:00,
2013-02-24 13:19:00,70.8,43.3,29.79,SE,135,12.1,16.1,37,0.00,,---,0.00,VWS V14.01,2013-02-24 19:19:00,
2013-02-24 13:20:00,70.8,42.5,29.79,SE,135,13.9,13.9,36,0.00,,---,0.00,VWS V14.01,2013-02-24 19:20:00,
2013-02-24 13:21:00,70.6,43.1,29.79,East,90,14.3,14.3,37,0.00,,---,0.00,VWS V14.01,2013-02-24 19:21:00,
2013-02-24 13:22:00,70.6,43.1,29.79,SSE,158,6.3,14.3,37,0.00,,---,0.00,VWS V14.01,2013-02-24 19:22:00,
2013-02-24 13:23:00,71.0,43.4,29.76,South,180,15.9,15.9,37,0.00,,---,0.00,VWS V14.01,2013-02-24 19:23:00,
2013-02-24 13:24:00,70.6,43.1,29.79,South,180,3.8,14.3,37,0.00,,---,0.00,VWS V14.01,2013-02-24 19:24:00,
2013-02-24 13:25:00,70.8,42.5,29.79,SE,135,10.3,14.1,36,0.00,,---,0.00,VWS V14.01,2013-02-24 19:25:00,
2013-02-24 13:26:00,70.6,43.1,29.79,SSE,158,12.3,16.3,37,0.00,,---,0.00,VWS V14.01,2013-02-24 19:26:00,
2013-02-24 13:27:00,70.6,43.1,29.79,SSE,158,21.5,21.5,37,0.00,,---,0.00,VWS V14.01,2013-02-24 19:27:00,
2013-02-24 13:28:00,71.0,43.4,29.76,SE,135,12.8,12.8,37,0.00,,---,0.00,VWS V14.01,2013-02-24 19:28:00,
2013-02-24 13:29:00,70.1,42.6,29.79,ESE,112,19.2,19.2,37,0.00,,---,0.00,VWS V14.01,2013-02-24 19:29:00,
2013-02-24 13:30:00,70.3,42.8,29.79,SE,135,13.0,19.2,37,0.00,,---,0.00,VWS V14.01,2013-02-24 19:30:00,
2013-02-24 13:31:00,70.3,42.8,29.76,South,180,14.8,16.8,37,0.00,,---,0.00,VWS V14.01,2013-02-24 19:31:00,
2013-02-24 13:32:00,70.1,42.6,29.76,South,180,10.7,16.1,37,0.00,,---,0.00,VWS V14.01,2013-02-24 19:32:00,
2013-02-24 13:33:00,71.5,44.6,29.76,NE,45,8.1,8.1,38,0.00,,---,0.00,VWS V14.01,2013-02-24 19:33:00,
2013-02-24 13:34:00,70.3,42.8,29.76,South,180,6.7,15.2,37,0.00,,---,0.00,VWS V14.01,2013-02-24 19:34:00,
2013-02-24 13:35:00,70.6,43.8,29.76,SSE,158,8.5,8.5,38,0.00,,---,0.00,VWS V14.01,2013-02-24 19:35:00,
2013-02-24 13:36:00,71.0,43.4,29.76,SSE,158,10.5,15.9,37,0.00,,---,0.00,VWS V14.01,2013-02-24 19:36:00,
2013-02-24 13:37:00,71.2,43.6,29.76,SSE,158,8.5,15.2,37,0.00,,---,0.00,VWS V14.01,2013-02-24 19:37:00,
2013-02-24 13:38:00,71.0,44.1,29.76,ESE,112,7.8,10.7,38,0.00,,---,0.00,VWS V14.01,2013-02-24 19:38:00,
2013-02-24 13:39:00,70.8,43.3,29.76,ESE,112,7.8,10.7,37,0.00,,---,0.00,VWS V14.01,2013-02-24 19:39:00,
2013-02-24 13:40:00,71.0,43.4,29.76,SE,135,11.2,11.2,37,0.00,,---,0.00,VWS V14.01,2013-02-24 19:40:00,
2013-02-24 13:41:00,70.8,43.3,29.76,SE,135,11.9,12.8,37,0.00,,---,0.00,VWS V14.01,2013-02-24 19:41:00,
2013-02-24 13:42:00,70.8,43.3,29.76,South,180,10.3,11.9,37,0.00,,---,0.00,VWS V14.01,2013-02-24 19:42:00,
2013-02-24 13:43:00,71.3,44.4,29.76,South,180,13.2,13.2,38,0.00,,---,0.00,VWS V14.01,2013-02-24 19:43:00,
2013-02-24 13:44:00,71.2,43.6,29.76,ESE,112,8.7,9.8,37,0.00,,---,0.00,VWS V14.01,2013-02-24 19:44:00,
2013-02-24 13:45:00,71.5,44.6,29.76,SE,135,5.4,8.7,38,0.00,,---,0.00,VWS V14.01,2013-02-24 19:45:00,
2013-02-24 13:46:00,71.5,44.6,29.76,ESE,112,10.5,11.4,38,0.00,,---,0.00,VWS V14.01,2013-02-24 19:46:00,
2013-02-24 13:47:00,71.3,43.7,29.76,SSE,158,12.5,14.8,37,0.00,,---,0.00,VWS V14.01,2013-02-24 19:47:00,
2013-02-24 13:48:00,71.3,43.7,29.76,SSE,158,17.2,17.2,37,0.00,,---,0.00,VWS V14.01,2013-02-24 19:48:00,
2013-02-24 13:49:00,71.7,44.8,29.76,South,180,9.8,9.8,38,0.00,,---,0.00,VWS V14.01,2013-02-24 19:49:00,
2013-02-24 13:50:00,71.0,44.1,29.76,South,180,10.7,13.0,38,0.00,,---,0.00,VWS V14.01,2013-02-24 19:50:00,
2013-02-24 13:51:00,71.0,44.1,29.76,SE,135,12.1,12.1,38,0.00,,---,0.00,VWS V14.01,2013-02-24 19:51:00,
2013-02-24 13:52:00,71.2,44.3,29.76,SE,135,8.7,12.5,38,0.00,,---,0.00,VWS V14.01,2013-02-24 19:52:00,
2013-02-24 13:53:00,71.2,44.3,29.76,SE,135,12.5,13.0,38,0.00,,---,0.00,VWS V14.01,2013-02-24 19:53:00,
2013-02-24 13:54:00,71.7,44.0,29.76,South,180,9.2,14.8,37,0.00,,---,0.00,VWS V14.01,2013-02-24 19:54:00,
2013-02-24 13:55:00,71.3,44.4,29.76,SE,135,8.7,12.5,38,0.00,,---,0.00,VWS V14.01,2013-02-24 19:55:00,
2013-02-24 13:56:00,71.3,44.4,29.76,South,180,7.8,13.2,38,0.00,,---,0.00,VWS V14.01,2013-02-24 19:56:00,
2013-02-24 13:57:00,71.3,44.4,29.76,SSE,158,9.6,12.5,38,0.00,,---,0.00,VWS V14.01,2013-02-24 19:57:00,
2013-02-24 13:58:00,71.5,44.6,29.76,South,180,8.5,12.1,38,0.00,,---,0.00,VWS V14.01,2013-02-24 19:58:00,
2013-02-24 13:59:00,70.6,43.8,29.76,South,180,7.4,10.3,38,0.00,,---,0.00,VWS V14.01,2013-02-24 19:59:00,
2013-02-24 14:00:00,71.7,44.8,29.76,SE,135,9.8,10.7,38,0.00,,---,0.00,VWS V14.01,2013-02-24 20:00:00,
2013-02-24 14:01:00,71.9,44.9,29.76,SSE,158,9.0,10.3,38,0.00,,---,0.00,VWS V14.01,2013-02-24 20:01:00,
2013-02-24 14:02:00,72.0,45.1,29.76,SSE,158,7.6,10.5,38,0.00,,---,0.00,VWS V14.01,2013-02-24 20:02:00,
2013-02-24 14:03:00,72.0,45.1,29.76,SE,135,5.8,7.8,38,0.00,,---,0.00,VWS V14.01,2013-02-24 20:03:00,
2013-02-24 14:04:00,69.6,43.5,29.76,SE,135,9.8,10.3,39,0.00,,---,0.00,VWS V14.01,2013-02-24 20:04:00,
2013-02-24 14:05:00,72.2,45.2,29.76,South,180,13.2,13.2,38,0.00,,---,0.00,VWS V14.01,2013-02-24 20:05:00,
2013-02-24 14:06:00,71.7,44.0,29.76,South,180,11.0,14.8,37,0.00,,---,0.00,VWS V14.01,2013-02-24 20:06:00,
2013-02-24 14:07:00,71.2,44.3,29.76,SE,135,9.4,12.3,38,0.00,,---,0.00,VWS V14.01,2013-02-24 20:07:00,
2013-02-24 14:08:00,70.4,43.7,29.76,SE,135,7.4,14.8,38,0.00,,---,0.00,VWS V14.01,2013-02-24 20:08:00,
2013-02-24 14:09:00,69.0,43.7,29.74,SSE,158,10.1,10.1,40,0.00,,---,0.00,VWS V14.01,2013-02-24 20:09:00,
2013-02-24 14:10:00,70.1,43.3,29.76,SSE,158,10.1,10.1,38,0.00,,---,0.00,VWS V14.01,2013-02-24 20:10:00,
2013-02-24 14:11:00,70.6,43.8,29.76,South,180,4.9,10.3,38,0.00,,---,0.00,VWS V14.01,2013-02-24 20:11:00,
2013-02-24 14:12:00,70.4,44.3,29.76,South,180,7.8,7.8,39,0.00,,---,0.00,VWS V14.01,2013-02-24 20:12:00,
2013-02-24 14:13:00,70.3,44.2,29.76,SSE,158,8.5,12.1,39,0.00,,---,0.00,VWS V14.01,2013-02-24 20:13:00,
2013-02-24 14:14:00,71.0,45.5,29.74,East,90,6.0,10.1,40,0.00,,---,0.00,VWS V14.01,2013-02-24 20:14:00,
2013-02-24 14:15:00,69.6,43.5,29.76,SE,135,8.1,11.0,39,0.00,,---,0.00,VWS V14.01,2013-02-24 20:15:00,
2013-02-24 14:16:00,69.2,43.2,29.76,SE,135,6.7,10.3,39,0.00,,---,0.00,VWS V14.01,2013-02-24 20:16:00,
2013-02-24 14:17:00,69.2,43.9,29.76,SE,135,11.0,11.0,40,0.00,,---,0.00,VWS V14.01,2013-02-24 20:17:00,
2013-02-24 14:18:00,69.0,43.7,29.76,ESE,112,15.7,21.5,40,0.00,,---,0.00,VWS V14.01,2013-02-24 20:18:00,
2013-02-24 14:19:00,71.5,45.3,29.74,SE,135,7.2,8.1,39,0.00,,---,0.00,VWS V14.01,2013-02-24 20:19:00,
2013-02-24 14:20:00,69.0,43.7,29.74,SSE,158,5.8,13.0,40,0.00,,---,0.00,VWS V14.01,2013-02-24 20:20:00,
2013-02-24 14:21:00,69.0,43.7,29.74,South,180,10.1,10.1,40,0.00,,---,0.00,VWS V14.01,2013-02-24 20:21:00,
2013-02-24 14:22:00,69.9,44.5,29.74,SE,135,9.4,12.5,40,0.00,,---,0.00,VWS V14.01,2013-02-24 20:22:00,
2013-02-24 14:23:00,70.3,44.8,29.74,SSE,158,7.4,10.7,40,0.00,,---,0.00,VWS V14.01,2013-02-24 20:23:00,
2013-02-24 14:24:00,72.0,45.8,29.74,SE,135,7.4,11.2,39,0.00,,---,0.00,VWS V14.01,2013-02-24 20:24:00,
2013-02-24 14:25:00,70.8,45.3,29.74,SE,135,10.1,15.2,40,0.00,,---,0.00,VWS V14.01,2013-02-24 20:25:00,
2013-02-24 14:26:00,71.0,45.5,29.74,SE,135,7.6,10.1,40,0.00,,---,0.00,VWS V14.01,2013-02-24 20:26:00,
2013-02-24 14:27:00,71.0,45.5,29.74,SSE,158,7.4,12.5,40,0.00,,---,0.00,VWS V14.01,2013-02-24 20:27:00,
2013-02-24 14:28:00,71.0,45.5,29.74,SSE,158,14.5,17.0,40,0.00,,---,0.00,VWS V14.01,2013-02-24 20:28:00,
2013-02-24 14:29:00,72.9,46.5,29.74,SSE,158,11.0,11.0,39,0.00,,---,0.00,VWS V14.01,2013-02-24 20:29:00,
2013-02-24 14:30:00,71.5,45.3,29.74,East,90,7.6,7.8,39,0.00,,---,0.00,VWS V14.01,2013-02-24 20:30:00,
2013-02-24 14:31:00,71.9,45.6,29.74,SE,135,5.6,8.1,39,0.00,,---,0.00,VWS V14.01,2013-02-24 20:31:00,
2013-02-24 14:32:00,71.7,46.1,29.74,SSE,158,10.7,13.0,40,0.00,,---,0.00,VWS V14.01,2013-02-24 20:32:00,
2013-02-24 14:33:00,71.9,46.3,29.74,SSE,158,10.1,13.2,40,0.00,,---,0.00,VWS V14.01,2013-02-24 20:33:00,
2013-02-24 14:34:00,72.8,46.4,29.74,SE,135,12.1,12.1,39,0.00,,---,0.00,VWS V14.01,2013-02-24 20:34:00,
2013-02-24 14:35:00,72.0,45.8,29.74,SE,135,8.7,10.7,39,0.00,,---,0.00,VWS V14.01,2013-02-24 20:35:00,
2013-02-24 14:36:00,72.0,45.8,29.74,South,180,8.1,11.2,39,0.00,,---,0.00,VWS V14.01,2013-02-24 20:36:00,
2013-02-24 14:37:00,72.2,46.6,29.74,SSE,158,10.7,12.8,40,0.00,,---,0.00,VWS V14.01,2013-02-24 20:37:00,
2013-02-24 14:38:00,72.6,46.2,29.74,SE,135,5.6,10.7,39,0.00,,---,0.00,VWS V14.01,2013-02-24 20:38:00,
2013-02-24 14:39:00,72.9,45.9,29.74,South,180,9.8,12.3,38,0.00,,---,0.00,VWS V14.01,2013-02-24 20:39:00,
2013-02-24 14:40:00,72.8,46.4,29.74,SSE,158,8.1,11.0,39,0.00,,---,0.00,VWS V14.01,2013-02-24 20:40:00,
2013-02-24 14:41:00,72.9,46.5,29.74,SSE,158,5.4,11.0,39,0.00,,---,0.00,VWS V14.01,2013-02-24 20:41:00,
2013-02-24 14:42:00,72.6,46.2,29.74,SSE,158,7.8,10.3,39,0.00,,---,0.00,VWS V14.01,2013-02-24 20:42:00,
2013-02-24 14:43:00,72.8,46.4,29.74,SE,135,13.0,15.2,39,0.00,,---,0.00,VWS V14.01,2013-02-24 20:43:00,
2013-02-24 14:44:00,72.9,45.9,29.74,SE,135,13.0,13.2,38,0.00,,---,0.00,VWS V14.01,2013-02-24 20:44:00,
2013-02-24 14:45:00,72.8,46.4,29.74,South,180,7.8,17.2,39,0.00,,---,0.00,VWS V14.01,2013-02-24 20:45:00,
2013-02-24 14:46:00,72.9,45.9,29.74,SE,135,8.5,12.1,38,0.00,,---,0.00,VWS V14.01,2013-02-24 20:46:00,
2013-02-24 14:47:00,72.9,45.9,29.74,SE,135,3.4,9.6,38,0.00,,---,0.00,VWS V14.01,2013-02-24 20:47:00,
2013-02-24 14:48:00,72.9,45.9,29.74,SSE,158,8.5,13.2,38,0.00,,---,0.00,VWS V14.01,2013-02-24 20:48:00,
2013-02-24 14:49:00,73.5,45.6,29.74,SE,135,10.1,12.5,37,0.00,,---,0.00,VWS V14.01,2013-02-24 20:49:00,
2013-02-24 14:50:00,72.9,45.9,29.74,SSE,158,12.3,14.5,38,0.00,,---,0.00,VWS V14.01,2013-02-24 20:50:00,
2013-02-24 14:51:00,72.9,45.9,29.74,SE,135,11.0,12.3,38,0.00,,---,0.00,VWS V14.01,2013-02-24 20:51:00,
2013-02-24 14:52:00,72.8,45.7,29.74,South,180,7.4,11.9,38,0.00,,---,0.00,VWS V14.01,2013-02-24 20:52:00,
2013-02-24 14:53:00,72.9,45.9,29.74,SSE,158,17.2,17.2,38,0.00,,---,0.00,VWS V14.01,2013-02-24 20:53:00,
2013-02-24 14:54:00,73.8,45.9,29.71,SE,135,6.3,6.3,37,0.00,,---,0.00,VWS V14.01,2013-02-24 20:54:00,
2013-02-24 14:55:00,73.1,46.0,29.74,ESE,112,13.2,14.8,38,0.00,,---,0.00,VWS V14.01,2013-02-24 20:55:00,
2013-02-24 14:56:00,72.9,45.9,29.74,SE,135,10.3,13.2,38,0.00,,---,0.00,VWS V14.01,2013-02-24 20:56:00,
2013-02-24 14:57:00,73.1,46.0,29.74,ESE,112,4.7,12.3,38,0.00,,---,0.00,VWS V14.01,2013-02-24 20:57:00,
2013-02-24 14:58:00,73.3,46.2,29.74,East,90,9.8,11.0,38,0.00,,---,0.00,VWS V14.01,2013-02-24 20:58:00,
2013-02-24 14:59:00,72.6,44.8,29.71,South,180,7.6,16.1,37,0.00,,---,0.00,VWS V14.01,2013-02-24 20:59:00,
2013-02-24 15:00:00,73.5,45.6,29.74,South,180,12.5,18.6,37,0.00,,---,0.00,VWS V14.01,2013-02-24 21:00:00,
2013-02-24 15:01:00,73.5,45.6,29.74,SE,135,10.1,12.5,37,0.00,,---,0.00,VWS V14.01,2013-02-24 21:01:00,
2013-02-24 15:02:00,73.6,46.5,29.71,South,180,14.5,14.5,38,0.00,,---,0.00,VWS V14.01,2013-02-24 21:02:00,
2013-02-24 15:03:00,73.5,45.6,29.71,SSE,158,10.3,14.5,37,0.00,,---,0.00,VWS V14.01,2013-02-24 21:03:00,
2013-02-24 15:04:00,73.6,45.8,29.71,SSE,158,8.5,12.5,37,0.00,,---,0.00,VWS V14.01,2013-02-24 21:04:00,
2013-02-24 15:05:00,73.6,45.8,29.71,South,180,5.8,15.4,37,0.00,,---,0.00,VWS V14.01,2013-02-24 21:05:00,
2013-02-24 15:06:00,73.8,45.9,29.71,SE,135,6.3,6.3,37,0.00,,---,0.00,VWS V14.01,2013-02-24 21:06:00,
2013-02-24 15:07:00,74.0,46.1,29.71,South,180,6.9,12.8,37,0.00,,---,0.00,VWS V14.01,2013-02-24 21:07:00,
2013-02-24 15:08:00,73.3,45.5,29.71,SSE,158,10.5,10.5,37,0.00,,---,0.00,VWS V14.01,2013-02-24 21:08:00,
2013-02-24 15:09:00,71.3,43.0,29.71,SE,135,12.1,12.1,36,0.00,,---,0.00,VWS V14.01,2013-02-24 21:09:00,
2013-02-24 15:10:00,72.6,44.8,29.71,SSE,158,16.1,16.1,37,0.00,,---,0.00,VWS V14.01,2013-02-24 21:10:00,
2013-02-24 15:11:00,72.6,44.8,29.71,South,180,7.6,16.1,37,0.00,,---,0.00,VWS V14.01,2013-02-24 21:11:00,
2013-02-24 15:12:00,72.9,45.2,29.71,SE,135,12.3,12.3,37,0.00,,---,0.00,VWS V14.01,2013-02-24 21:12:00,
2013-02-24 15:13:00,73.1,46.0,29.71,South,180,5.8,12.3,38,0.00,,---,0.00,VWS V14.01,2013-02-24 21:13:00,
2013-02-24 15:14:00,72.0,43.7,29.71,SSE,158,8.5,10.3,36,0.00,,---,0.00,VWS V14.01,2013-02-24 21:14:00,
2013-02-24 15:15:00,73.6,45.8,29.71,South,180,11.0,13.0,37,0.00,,---,0.00,VWS V14.01,2013-02-24 21:15:00,
2013-02-24 15:16:00,73.6,45.8,29.71,SSE,158,8.5,12.5,37,0.00,,---,0.00,VWS V14.01,2013-02-24 21:16:00,
2013-02-24 15:17:00,73.3,45.5,29.71,SSE,158,8.1,10.3,37,0.00,,---,0.00,VWS V14.01,2013-02-24 21:17:00,
2013-02-24 15:19:00,73.8,45.2,29.71,South,180,10.3,13.2,36,0.00,,---,0.00,VWS V14.01,2013-02-24 21:19:00,
2013-02-24 15:20:00,71.7,43.3,29.71,South,180,8.5,13.4,36,0.00,,---,0.00,VWS V14.01,2013-02-24 21:20:00,
2013-02-24 15:21:00,71.3,43.0,29.71,SE,135,12.1,12.1,36,0.00,,---,0.00,VWS V14.01,2013-02-24 21:21:00,
2013-02-24 15:22:00,71.0,42.7,29.71,SSE,158,10.5,15.4,36,0.00,,---,0.00,VWS V14.01,2013-02-24 21:22:00,
2013-02-24 15:23:00,71.5,43.2,29.71,SSE,158,8.1,11.4,36,0.00,,---,0.00,VWS V14.01,2013-02-24 21:23:00,
2013-02-24 15:24:00,74.7,45.3,29.71,SSE,158,10.1,10.3,35,0.00,,---,0.00,VWS V14.01,2013-02-24 21:24:00,
2013-02-24 15:25:00,72.2,43.8,29.71,SE,135,9.2,10.5,36,0.00,,---,0.00,VWS V14.01,2013-02-24 21:25:00,
2013-02-24 15:26:00,72.0,43.7,29.71,SSE,158,8.5,10.3,36,0.00,,---,0.00,VWS V14.01,2013-02-24 21:26:00,
2013-02-24 15:27:00,72.6,44.1,29.71,SSE,158,12.5,12.5,36,0.00,,---,0.00,VWS V14.01,2013-02-24 21:27:00,
2013-02-24 15:28:00,72.9,43.7,29.71,SSW,202,10.7,12.5,35,0.00,,---,0.00,VWS V14.01,2013-02-24 21:28:00,
2013-02-24 15:29:00,72.6,44.1,29.71,SSE,158,12.1,12.1,36,0.00,,---,0.00,VWS V14.01,2013-02-24 21:29:00,
2013-02-24 15:30:00,73.5,44.9,29.71,South,180,13.2,13.2,36,0.00,,---,0.00,VWS V14.01,2013-02-24 21:30:00,
2013-02-24 15:31:00,73.8,45.2,29.71,South,180,10.3,13.2,36,0.00,,---,0.00,VWS V14.01,2013-02-24 21:31:00,
2013-02-24 15:32:00,74.2,45.5,29.71,SSE,158,8.7,10.3,36,0.00,,---,0.00,VWS V14.01,2013-02-24 21:32:00,
2013-02-24 15:33:00,74.5,45.8,29.71,SE,135,6.3,8.7,36,0.00,,---,0.00,VWS V14.01,2013-02-24 21:33:00,
2013-02-24 15:34:00,71.3,43.7,29.71,SE,135,7.8,12.1,37,0.00,,---,0.00,VWS V14.01,2013-02-24 21:34:00,
2013-02-24 15:35:00,74.7,45.3,29.71,SE,135,10.3,12.1,35,0.00,,---,0.00,VWS V14.01,2013-02-24 21:35:00,
2013-02-24 15:36:00,74.7,45.3,29.71,SSE,158,10.1,10.3,35,0.00,,---,0.00,VWS V14.01,2013-02-24 21:36:00,
2013-02-24 15:37:00,74.7,45.3,29.71,South,180,7.4,10.1,35,0.00,,---,0.00,VWS V14.01,2013-02-24 21:37:00,
2013-02-24 15:38:00,74.9,45.4,29.71,SSE,158,8.5,10.1,35,0.00,,---,0.00,VWS V14.01,2013-02-24 21:38:00,
2013-02-24 15:39:00,70.6,43.1,29.71,South,180,8.7,12.8,37,0.00,,---,0.00,VWS V14.01,2013-02-24 21:39:00,
2013-02-24 15:40:00,73.3,44.8,29.71,South,180,11.0,11.0,36,0.00,,---,0.00,VWS V14.01,2013-02-24 21:40:00,
2013-02-24 15:41:00,72.6,44.1,29.71,SSE,158,12.1,12.1,36,0.00,,---,0.00,VWS V14.01,2013-02-24 21:41:00,
2013-02-24 15:42:00,72.0,43.7,29.71,South,180,12.5,13.2,36,0.00,,---,0.00,VWS V14.01,2013-02-24 21:42:00,
2013-02-24 15:43:00,71.5,43.2,29.71,SSW,202,9.6,12.5,36,0.00,,---,0.00,VWS V14.01,2013-02-24 21:43:00,
2013-02-24 15:44:00,70.1,43.3,29.71,SSE,158,10.1,10.5,38,0.00,,---,0.00,VWS V14.01,2013-02-24 21:44:00,
2013-02-24 15:45:00,71.3,43.7,29.71,SSE,158,8.1,14.8,37,0.00,,---,0.00,VWS V14.01,2013-02-24 21:45:00,
2013-02-24 15:46:00,71.3,43.7,29.71,SE,135,7.8,12.1,37,0.00,,---,0.00,VWS V14.01,2013-02-24 21:46:00,
2013-02-24 15:47:00,71.2,43.6,29.71,SE,135,9.2,14.5,37,0.00,,---,0.00,VWS V14.01,2013-02-24 21:47:00,
2013-02-24 15:48:00,71.0,43.4,29.71,SSE,158,6.9,11.0,37,0.00,,---,0.00,VWS V14.01,2013-02-24 21:48:00,
2013-02-24 15:49:00,70.1,43.3,29.71,East,90,4.9,8.5,38,0.00,,---,0.00,VWS V14.01,2013-02-24 21:49:00,
2013-02-24 15:50:00,70.8,43.3,29.71,South,180,12.8,12.8,37,0.00,,---,0.00,VWS V14.01,2013-02-24 21:50:00,
2013-02-24 15:51:00,70.6,43.1,29.71,South,180,8.7,12.8,37,0.00,,---,0.00,VWS V14.01,2013-02-24 21:51:00,
2013-02-24 15:52:00,70.4,43.0,29.71,SE,135,12.3,12.3,37,0.00,,---,0.00,VWS V14.01,2013-02-24 21:52:00,
2013-02-24 15:53:00,70.3,42.8,29.71,SSE,158,8.5,12.3,37,0.00,,---,0.00,VWS V14.01,2013-02-24 21:53:00,
2013-02-24 15:54:00,70.8,43.3,29.71,ESE,112,14.3,17.0,37,0.00,,---,0.00,VWS V14.01,2013-02-24 21:54:00,
2013-02-24 15:55:00,70.1,42.6,29.71,SE,135,10.5,11.2,37,0.00,,---,0.00,VWS V14.01,2013-02-24 21:55:00,
2013-02-24 15:56:00,70.1,43.3,29.71,ESE,112,11.0,11.0,38,0.00,,---,0.00,VWS V14.01,2013-02-24 21:56:00,
2013-02-24 15:57:00,69.9,42.5,29.71,SE,135,10.7,13.0,37,0.00,,---,0.00,VWS V14.01,2013-02-24 21:57:00,
2013-02-24 15:58:00,69.9,42.5,29.71,SSE,158,9.6,10.7,37,0.00,,---,0.00,VWS V14.01,2013-02-24 21:58:00,
2013-02-24 15:59:00,72.6,44.1,29.71,SE,135,13.4,13.4,36,0.00,,---,0.00,VWS V14.01,2013-02-24 21:59:00,
2013-02-24 16:00:00,70.1,42.6,29.71,SSE,158,7.6,13.9,37,0.00,,---,0.00,VWS V14.01,2013-02-24 22:00:00,
2013-02-24 16:01:00,70.1,43.3,29.71,East,90,4.9,8.5,38,0.00,,---,0.00,VWS V14.01,2013-02-24 22:01:00,
2013-02-24 16:02:00,70.3,43.5,29.71,SE,135,8.5,8.5,38,0.00,,---,0.00,VWS V14.01,2013-02-24 22:02:00,
2013-02-24 16:03:00,70.8,44.0,29.71,SE,135,5.8,8.5,38,0.00,,---,0.00,VWS V14.01,2013-02-24 22:03:00,
2013-02-24 16:04:00,71.2,43.6,29.71,SSE,158,8.5,11.2,37,0.00,,---,0.00,VWS V14.01,2013-02-24 22:04:00,
2013-02-24 16:05:00,70.8,43.3,29.71,South,180,6.3,10.1,37,0.00,,---,0.00,VWS V14.01,2013-02-24 22:05:00,
2013-02-24 16:06:00,70.8,43.3,29.71,ESE,112,14.3,17.0,37,0.00,,---,0.00,VWS V14.01,2013-02-24 22:06:00,
2013-02-24 16:07:00,71.0,43.4,29.71,SE,135,5.8,14.3,37,0.00,,---,0.00,VWS V14.01,2013-02-24 22:07:00,
2013-02-24 16:08:00,71.5,43.9,29.71,SSE,158,6.5,7.6,37,0.00,,---,0.00,VWS V14.01,2013-02-24 22:08:00,
2013-02-24 16:09:00,70.4,43.7,29.71,SSE,158,7.6,10.5,38,0.00,,---,0.00,VWS V14.01,2013-02-24 22:09:00,
2013-02-24 16:10:00,72.8,45.0,29.71,SE,135,13.0,15.2,37,0.00,,---,0.00,VWS V14.01,2013-02-24 22:10:00,
2013-02-24 16:11:00,72.6,44.1,29.71,SE,135,13.4,13.4,36,0.00,,---,0.00,VWS V14.01,2013-02-24 22:11:00,
2013-02-24 16:12:00,72.2,44.5,29.71,SSE,158,9.8,13.4,37,0.00,,---,0.00,VWS V14.01,2013-02-24 22:12:00,
2013-02-24 16:13:00,72.0,44.4,29.71,South,180,7.8,10.1,37,0.00,,---,0.00,VWS V14.01,2013-02-24 22:13:00,
2013-02-24 16:14:00,70.3,43.5,29.71,South,180,14.8,14.8,38,0.00,,---,0.00,VWS V14.01,2013-02-24 22:14:00,
2013-02-24 16:15:00,71.7,44.0,29.71,South,180,10.5,11.0,37,0.00,,---,0.00,VWS V14.01,2013-02-24 22:15:00,
2013-02-24 16:16:00,71.2,43.6,29.71,SSE,158,8.5,11.2,37,0.00,,---,0.00,VWS V14.01,2013-02-24 22:16:00,
2013-02-24 16:17:00,71.0,43.4,29.71,East,90,7.8,10.1,37,0.00,,---,0.00,VWS V14.01,2013-02-24 22:17:00,
2013-02-24 16:18:00,70.8,43.3,29.71,SE,135,9.8,12.5,37,0.00,,---,0.00,VWS V14.01,2013-02-24 22:18:00,
2013-02-24 16:19:00,70.3,44.2,29.71,SSE,158,7.6,10.7,39,0.00,,---,0.00,VWS V14.01,2013-02-24 22:19:00,
2013-02-24 16:20:00,70.4,43.7,29.71,SE,135,8.7,11.0,38,0.00,,---,0.00,VWS V14.01,2013-02-24 22:20:00,
2013-02-24 16:21:00,70.4,43.7,29.71,SSE,158,7.6,10.5,38,0.00,,---,0.00,VWS V14.01,2013-02-24 22:21:00,
2013-02-24 16:22:00,70.4,43.7,29.71,SE,135,7.4,8.1,38,0.00,,---,0.00,VWS V14.01,2013-02-24 22:22:00,
2013-02-24 16:23:00,70.4,43.7,29.71,SSE,158,8.1,9.8,38,0.00,,---,0.00,VWS V14.01,2013-02-24 22:23:00,
2013-02-24 16:24:00,70.1,44.0,29.71,SE,135,13.0,13.0,39,0.00,,---,0.00,VWS V14.01,2013-02-24 22:24:00,
2013-02-24 16:25:00,70.3,43.5,29.71,South,180,8.1,13.2,38,0.00,,---,0.00,VWS V14.01,2013-02-24 22:25:00,
2013-02-24 16:26:00,70.3,43.5,29.71,South,180,14.8,14.8,38,0.00,,---,0.00,VWS V14.01,2013-02-24 22:26:00,
2013-02-24 16:27:00,70.4,43.7,29.71,South,180,9.8,14.8,38,0.00,,---,0.00,VWS V14.01,2013-02-24 22:27:00,
2013-02-24 16:28:00,70.4,43.7,29.71,SSE,158,8.1,9.8,38,0.00,,---,0.00,VWS V14.01,2013-02-24 22:28:00,
2013-02-24 16:29:00,71.7,45.4,29.71,SE,135,7.6,15.9,39,0.00,,---,0.00,VWS V14.01,2013-02-24 22:29:00,
2013-02-24 16:30:00,70.4,44.3,29.71,South,180,10.7,13.0,39,0.00,,---,0.00,VWS V14.01,2013-02-24 22:30:00,
2013-02-24 16:31:00,70.3,44.2,29.71,SSE,158,7.6,10.7,39,0.00,,---,0.00,VWS V14.01,2013-02-24 22:31:00,
2013-02-24 16:32:00,70.1,44.0,29.71,South,180,6.3,14.1,39,0.00,,---,0.00,VWS V14.01,2013-02-24 22:32:00,
2013-02-24 16:33:00,69.9,43.8,29.71,SE,135,8.7,10.1,39,0.00,,---,0.00,VWS V14.01,2013-02-24 22:33:00,
2013-02-24 16:34:00,71.5,44.6,29.71,SE,135,6.0,13.2,38,0.00,,---,0.00,VWS V14.01,2013-02-24 22:34:00,
2013-02-24 16:35:00,69.9,43.8,29.71,SE,135,8.5,12.3,39,0.00,,---,0.00,VWS V14.01,2013-02-24 22:35:00,
2013-02-24 16:36:00,70.1,44.0,29.71,SE,135,13.0,13.0,39,0.00,,---,0.00,VWS V14.01,2013-02-24 22:36:00,
2013-02-24 16:37:00,70.4,44.3,29.71,SE,135,14.5,14.5,39,0.00,,---,0.00,VWS V14.01,2013-02-24 22:37:00,
2013-02-24 16:38:00,70.8,44.6,29.71,SE,135,13.4,15.4,39,0.00,,---,0.00,VWS V14.01,2013-02-24 22:38:00,
2013-02-24 16:39:00,70.6,44.5,29.71,SSE,158,10.1,19.5,39,0.00,,---,0.00,VWS V14.01,2013-02-24 22:39:00,
2013-02-24 16:40:00,71.5,45.3,29.71,SE,135,11.4,11.4,39,0.00,,---,0.00,VWS V14.01,2013-02-24 22:40:00,
2013-02-24 16:41:00,71.7,45.4,29.71,SE,135,7.6,15.9,39,0.00,,---,0.00,VWS V14.01,2013-02-24 22:41:00,
2013-02-24 16:42:00,71.9,44.9,29.71,SSE,158,16.8,16.8,38,0.00,,---,0.00,VWS V14.01,2013-02-24 22:42:00,
2013-02-24 16:43:00,71.9,44.9,29.71,South,180,7.8,16.8,38,0.00,,---,0.00,VWS V14.01,2013-02-24 22:43:00,
2013-02-24 16:44:00,71.0,44.8,29.71,SE,135,10.5,12.3,39,0.00,,---,0.00,VWS V14.01,2013-02-24 22:44:00,
2013-02-24 16:45:00,71.9,44.9,29.71,SE,135,7.8,15.2,38,0.00,,---,0.00,VWS V14.01,2013-02-24 22:45:00,
2013-02-24 16:46:00,71.5,44.6,29.71,SE,135,6.0,13.2,38,0.00,,---,0.00,VWS V14.01,2013-02-24 22:46:00,
2013-02-24 16:47:00,70.4,44.3,29.71,SE,135,15.4,15.4,39,0.00,,---,0.00,VWS V14.01,2013-02-24 22:47:00,
2013-02-24 16:48:00,70.3,44.2,29.71,SE,135,7.6,15.4,39,0.00,,---,0.00,VWS V14.01,2013-02-24 22:48:00,
2013-02-24 16:49:00,71.3,45.1,29.71,SE,135,8.5,10.1,39,0.00,,---,0.00,VWS V14.01,2013-02-24 22:49:00,
2013-02-24 16:50:00,70.4,44.3,29.71,SE,135,19.5,19.5,39,0.00,,---,0.00,VWS V14.01,2013-02-24 22:50:00,
2013-02-24 16:51:00,70.6,44.5,29.71,SSE,158,10.1,19.5,39,0.00,,---,0.00,VWS V14.01,2013-02-24 22:51:00,
2013-02-24 16:52:00,70.6,44.5,29.71,SSE,158,17.5,17.5,39,0.00,,---,0.00,VWS V14.01,2013-02-24 22:52:00,
2013-02-24 16:53:00,70.8,44.6,29.71,SE,135,12.3,17.5,39,0.00,,---,0.00,VWS V14.01,2013-02-24 22:53:00,
2013-02-24 16:54:00,70.6,45.2,29.71,SE,135,6.0,10.5,40,0.00,,---,0.00,VWS V14.01,2013-02-24 22:54:00,
2013-02-24 16:55:00,71.0,44.8,29.71,South,180,12.3,12.3,39,0.00,,---,0.00,VWS V14.01,2013-02-24 22:55:00,
2013-02-24 16:56:00,71.0,44.8,29.71,SE,135,10.5,12.3,39,0.00,,---,0.00,VWS V14.01,2013-02-24 22:56:00,
2013-02-24 16:57:00,71.0,44.8,29.71,South,180,12.3,12.3,39,0.00,,---,0.00,VWS V14.01,2013-02-24 22:57:00,
2013-02-24 16:58:00,71.2,45.0,29.71,SE,135,8.1,12.3,39,0.00,,---,0.00,VWS V14.01,2013-02-24 22:58:00,
2013-02-24 16:59:00,69.4,44.0,29.71,South,180,5.8,5.8,40,0.00,,---,0.00,VWS V14.01,2013-02-24 22:59:00,
2013-02-24 17:00:00,71.3,45.1,29.71,SSE,158,6.3,13.0,39,0.00,,---,0.00,VWS V14.01,2013-02-24 23:00:00,
2013-02-24 17:01:00,71.3,45.1,29.71,SE,135,8.5,10.1,39,0.00,,---,0.00,VWS V14.01,2013-02-24 23:01:00,
2013-02-24 17:02:00,71.3,45.1,29.71,SE,135,12.5,12.5,39,0.00,,---,0.00,VWS V14.01,2013-02-24 23:02:00,
2013-02-24 17:03:00,71.3,45.1,29.71,East,90,8.7,12.5,39,0.00,,---,0.00,VWS V14.01,2013-02-24 23:03:00,
2013-02-24 17:04:00,68.7,44.0,29.71,SE,135,8.5,8.5,41,0.00,,---,0.00,VWS V14.01,2013-02-24 23:04:00,
2013-02-24 17:05:00,71.0,44.8,29.71,SE,135,5.6,8.7,39,0.00,,---,0.00,VWS V14.01,2013-02-24 23:05:00,
2013-02-24 17:06:00,70.6,45.2,29.71,SE,135,6.0,10.5,40,0.00,,---,0.00,VWS V14.01,2013-02-24 23:06:00,
2013-02-24 17:07:00,70.3,44.8,29.71,SSE,158,6.3,10.5,40,0.00,,---,0.00,VWS V14.01,2013-02-24 23:07:00,
2013-02-24 17:08:00,70.1,44.7,29.71,SE,135,6.0,10.1,40,0.00,,---,0.00,VWS V14.01,2013-02-24 23:08:00,
2013-02-24 17:09:00,69.7,44.4,29.71,SSE,158,2.9,13.2,40,0.00,,---,0.00,VWS V14.01,2013-02-24 23:09:00,
2013-02-24 17:10:00,68.3,44.4,29.71,SE,135,12.5,12.5,42,0.00,,---,0.00,VWS V14.01,2013-02-24 23:10:00,
2013-02-24 17:11:00,69.4,44.0,29.71,South,180,5.4,6.0,40,0.00,,---,0.00,VWS V14.01,2013-02-24 23:11:00,
2013-02-24 17:12:00,69.4,44.7,29.71,SE,135,6.7,7.6,41,0.00,,---,0.00,VWS V14.01,2013-02-24 23:12:00,
2013-02-24 17:13:00,69.2,44.5,29.71,South,180,11.0,11.0,41,0.00,,---,0.00,VWS V14.01,2013-02-24 23:13:00,
2013-02-24 17:15:00,68.3,44.4,29.71,SE,135,9.8,10.7,42,0.00,,---,0.00,VWS V14.01,2013-02-24 23:15:00,
2013-02-24 17:16:00,68.7,44.0,29.71,SE,135,8.5,10.3,41,0.00,,---,0.00,VWS V14.01,2013-02-24 23:16:00,
2013-02-24 17:17:00,68.7,44.0,29.71,SE,135,8.5,11.0,41,0.00,,---,0.00,VWS V14.01,2013-02-24 23:17:00,
2013-02-24 17:20:00,68.1,44.2,29.71,SSE,158,9.2,10.3,42,0.00,,---,0.00,VWS V14.01,2013-02-24 23:20:00,
2013-02-24 17:21:00,68.5,44.5,29.71,ESE,112,5.4,9.6,42,0.00,,---,0.00,VWS V14.01,2013-02-24 23:21:00,
2013-02-24 17:23:00,68.3,44.4,29.71,SE,135,8.7,12.5,42,0.00,,---,0.00,VWS V14.01,2013-02-24 23:23:00,
2013-02-24 17:24:00,68.3,44.4,29.71,South,180,16.8,16.8,42,0.00,,---,0.00,VWS V14.01,2013-02-24 23:24:00,
2013-02-24 17:25:00,68.1,44.2,29.71,ESE,112,13.0,16.8,42,0.00,,---,0.00,VWS V14.01,2013-02-24 23:25:00,
2013-02-24 17:26:00,68.7,45.3,29.71,SSE,158,12.1,12.1,43,0.00,,---,0.00,VWS V14.01,2013-02-24 23:26:00,
2013-02-24 17:29:00,68.1,44.2,29.71,SE,135,8.5,9.4,42,0.00,,---,0.00,VWS V14.01,2013-02-24 23:29:00,
2013-02-24 17:30:00,68.1,44.2,29.71,South,180,11.0,11.0,42,0.00,,---,0.00,VWS V14.01,2013-02-24 23:30:00,
2013-02-24 17:31:00,68.0,45.3,29.71,SE,135,12.5,12.5,44,0.00,,---,0.00,VWS V14.01,2013-02-24 23:31:00,
2013-02-24 17:32:00,68.1,44.2,29.71,SE,135,10.3,13.4,42,0.00,,---,0.00,VWS V14.01,2013-02-24 23:32:00,
2013-02-24 17:33:00,68.3,45.0,29.71,SE,135,11.0,11.0,43,0.00,,---,0.00,VWS V14.01,2013-02-24 23:33:00,
2013-02-24 17:34:00,68.3,45.0,29.71,SE,135,9.8,12.8,43,0.00,,---,0.00,VWS V14.01,2013-02-24 23:34:00,
2013-02-24 17:35:00,68.5,45.1,29.71,ESE,112,7.8,9.8,43,0.00,,---,0.00,VWS V14.01,2013-02-24 23:35:00,
2013-02-24 17:36:00,67.6,44.9,29.71,ESE,112,10.1,10.1,44,0.00,,---,0.00,VWS V14.01,2013-02-24 23:36:00,
2013-02-24 17:37:00,68.7,45.3,29.71,SE,135,9.8,15.2,43,0.00,,---,0.00,VWS V14.01,2013-02-24 23:37:00,
2013-02-24 17:38:00,68.7,45.3,29.71,SSE,158,10.1,12.1,43,0.00,,---,0.00,VWS V14.01,2013-02-24 23:38:00,
2013-02-24 17:39:00,68.5,45.1,29.71,ESE,112,8.1,10.1,43,0.00,,---,0.00,VWS V14.01,2013-02-24 23:39:00,
2013-02-24 17:40:00,68.3,45.0,29.71,SSE,158,6.0,12.5,43,0.00,,---,0.00,VWS V14.01,2013-02-24 23:40:00,
2013-02-24 17:41:00,67.4,45.4,29.71,ESE,112,11.9,11.9,45,0.00,,---,0.00,VWS V14.01,2013-02-24 23:41:00,
2013-02-24 17:42:00,68.1,44.8,29.71,SE,135,5.6,14.3,43,0.00,,---,0.00,VWS V14.01,2013-02-24 23:42:00,
2013-02-24 17:43:00,68.0,45.3,29.71,SE,135,12.5,12.5,44,0.00,,---,0.00,VWS V14.01,2013-02-24 23:43:00,
2013-02-24 17:44:00,67.8,45.1,29.71,SE,135,10.1,12.5,44,0.00,,---,0.00,VWS V14.01,2013-02-24 23:44:00,
2013-02-24 17:45:00,67.8,45.1,29.71,SE,135,9.8,13.2,44,0.00,,---,0.00,VWS V14.01,2013-02-24 23:45:00,
2013-02-24 17:46:00,67.1,45.0,29.71,SSE,158,7.8,13.0,45,0.00,,---,0.00,VWS V14.01,2013-02-24 23:46:00,
2013-02-24 17:47:00,67.6,44.9,29.71,SE,135,8.1,12.3,44,0.00,,---,0.00,VWS V14.01,2013-02-24 23:47:00,
2013-02-24 17:48:00,67.4,44.8,29.71,SE,135,7.6,10.1,44,0.00,,---,0.00,VWS V14.01,2013-02-24 23:48:00,
2013-02-24 17:49:00,67.4,44.8,29.71,ESE,112,3.8,7.6,44,0.00,,---,0.00,VWS V14.01,2013-02-24 23:49:00,
2013-02-24 17:50:00,67.4,44.8,29.71,ESE,112,6.9,9.4,44,0.00,,---,0.00,VWS V14.01,2013-02-24 23:50:00,
2013-02-24 17:51:00,67.1,45.6,29.71,South,180,5.4,11.2,46,0.00,,---,0.00,VWS V14.01,2013-02-24 23:51:00,
2013-02-24 17:52:00,67.4,45.4,29.71,SE,135,10.7,10.7,45,0.00,,---,0.00,VWS V14.01,2013-02-24 23:52:00,
2013-02-24 17:53:00,67.4,45.4,29.71,ESE,112,8.1,11.9,45,0.00,,---,0.00,VWS V14.01,2013-02-24 23:53:00,
2013-02-24 17:54:00,67.2,45.2,29.71,SE,135,12.3,12.3,45,0.00,,---,0.00,VWS V14.01,2013-02-24 23:54:00,
2013-02-24 17:55:00,67.2,45.2,29.71,SSE,158,9.2,12.3,45,0.00,,---,0.00,VWS V14.01,2013-02-24 23:55:00,
2013-02-24 17:56:00,66.9,45.5,29.71,East,90,7.6,17.0,46,0.00,,---,0.00,VWS V14.01,2013-02-24 23:56:00,
2013-02-24 17:57:00,67.1,45.0,29.71,SE,135,13.0,13.0,45,0.00,,---,0.00,VWS V14.01,2013-02-24 23:57:00,
2013-02-24 17:58:00,67.1,45.0,29.71,SSE,158,9.2,13.0,45,0.00,,---,0.00,VWS V14.01,2013-02-24 23:58:00,
2013-02-24 17:59:00,67.1,45.6,29.71,SSE,158,9.6,9.6,46,0.00,,---,0.00,VWS V14.01,2013-02-24 23:59:00,
2013-02-24 18:00:00,67.1,45.6,29.71,South,180,6.5,9.8,46,0.00,,---,0.00,VWS V14.01,2013-02-25 00:00:00,
2013-02-24 18:01:00,66.9,46.0,29.71,SE,135,10.3,10.5,47,0.00,,---,0.00,VWS V14.01,2013-02-25 00:01:00,
2013-02-24 18:02:00,67.1,45.6,29.71,SE,135,7.4,8.1,46,0.00,,---,0.00,VWS V14.01,2013-02-25 00:02:00,
2013-02-24 18:03:00,67.1,45.6,29.71,SE,135,5.6,11.2,46,0.00,,---,0.00,VWS V14.01,2013-02-25 00:03:00,
2013-02-24 18:04:00,67.1,45.6,29.71,SSE,158,8.7,10.1,46,0.00,,---,0.00,VWS V14.01,2013-02-25 00:04:00,
2013-02-24 18:05:00,67.1,45.6,29.71,South,180,7.8,10.1,46,0.00,,---,0.00,VWS V14.01,2013-02-25 00:05:00,
2013-02-24 18:06:00,66.4,46.1,29.74,SE,135,7.2,8.7,48,0.00,,---,0.00,VWS V14.01,2013-02-25 00:06:00,
2013-02-24 18:07:00,67.1,45.6,29.71,SE,135,12.5,13.2,46,0.00,,---,0.00,VWS V14.01,2013-02-25 00:07:00,
2013-02-24 18:08:00,66.9,45.5,29.71,SE,135,7.8,17.0,46,0.00,,---,0.00,VWS V14.01,2013-02-25 00:08:00,
2013-02-24 18:09:00,66.9,45.5,29.71,SSE,158,11.0,11.0,46,0.00,,---,0.00,VWS V14.01,2013-02-25 00:09:00,
2013-02-24 18:10:00,66.9,45.5,29.71,South,180,6.3,11.0,46,0.00,,---,0.00,VWS V14.01,2013-02-25 00:10:00,
2013-02-24 18:11:00,65.8,46.2,29.74,SSE,158,7.6,12.3,49,0.00,,---,0.00,VWS V14.01,2013-02-25 00:11:00,
2013-02-24 18:12:00,66.9,46.0,29.71,SE,135,10.5,10.5,47,0.00,,---,0.00,VWS V14.01,2013-02-25 00:12:00,
2013-02-24 18:13:00,66.9,46.0,29.71,SE,135,9.4,10.5,47,0.00,,---,0.00,VWS V14.01,2013-02-25 00:13:00,
2013-02-24 18:14:00,66.7,45.9,29.71,SE,135,6.3,10.1,47,0.00,,---,0.00,VWS V14.01,2013-02-25 00:14:00,
2013-02-24 18:15:00,66.7,45.9,29.71,ESE,112,12.1,12.1,47,0.00,,---,0.00,VWS V14.01,2013-02-25 00:15:00,
2013-02-24 18:16:00,65.5,46.9,29.74,SE,135,11.9,11.9,51,0.00,,---,0.00,VWS V14.01,2013-02-25 00:16:00,
2013-02-24 18:17:00,66.4,46.1,29.74,ESE,112,8.7,12.5,48,0.00,,---,0.00,VWS V14.01,2013-02-25 00:17:00,
2013-02-24 18:18:00,66.4,46.1,29.74,SE,135,13.0,13.0,48,0.00,,---,0.00,VWS V14.01,2013-02-25 00:18:00,
2013-02-24 18:19:00,66.2,45.9,29.74,ESE,112,14.5,14.5,48,0.00,,---,0.00,VWS V14.01,2013-02-25 00:19:00,
2013-02-24 18:20:00,66.2,45.9,29.74,ESE,112,8.1,14.5,48,0.00,,---,0.00,VWS V14.01,2013-02-25 00:20:00,
2013-02-24 18:21:00,65.3,47.8,29.71,SSE,158,7.6,10.1,53,0.00,,---,0.00,VWS V14.01,2013-02-25 00:21:00,
2013-02-24 18:22:00,66.0,46.3,29.74,SE,135,12.3,13.4,49,0.00,,---,0.00,VWS V14.01,2013-02-25 00:22:00,
2013-02-24 18:23:00,65.8,46.2,29.74,SSE,158,10.1,12.3,49,0.00,,---,0.00,VWS V14.01,2013-02-25 00:23:00,
2013-02-24 18:24:00,65.8,46.7,29.74,East,90,13.2,13.2,50,0.00,,---,0.00,VWS V14.01,2013-02-25 00:24:00,
2013-02-24 18:25:00,65.7,46.5,29.74,SE,135,8.1,13.2,50,0.00,,---,0.00,VWS V14.01,2013-02-25 00:25:00,
2013-02-24 18:26:00,65.3,48.2,29.71,SE,135,6.5,7.8,54,0.00,,---,0.00,VWS V14.01,2013-02-25 00:26:00,
2013-02-24 18:27:00,65.7,47.1,29.74,SSE,158,11.0,15.2,51,0.00,,---,0.00,VWS V14.01,2013-02-25 00:27:00,
2013-02-24 18:28:00,65.5,46.9,29.74,SE,135,10.7,11.9,51,0.00,,---,0.00,VWS V14.01,2013-02-25 00:28:00,
2013-02-24 18:29:00,65.5,46.9,29.74,SE,135,7.6,16.6,51,0.00,,---,0.00,VWS V14.01,2013-02-25 00:29:00,
2013-02-24 18:30:00,65.5,47.4,29.74,SE,135,5.6,12.3,52,0.00,,---,0.00,VWS V14.01,2013-02-25 00:30:00,
2013-02-24 18:31:00,65.1,49.1,29.71,SE,135,8.1,8.1,56,0.00,,---,0.00,VWS V14.01,2013-02-25 00:31:00,
2013-02-24 18:32:00,65.3,47.2,29.71,SE,135,8.5,9.8,52,0.00,,---,0.00,VWS V14.01,2013-02-25 00:32:00,
2013-02-24 18:33:00,65.3,47.8,29.71,SSE,158,8.7,10.1,53,0.00,,---,0.00,VWS V14.01,2013-02-25 00:33:00,
2013-02-24 18:34:00,65.3,48.2,29.71,SSE,158,6.0,12.3,54,0.00,,---,0.00,VWS V14.01,2013-02-25 00:34:00,
2013-02-24 18:35:00,65.3,48.2,29.71,SSE,158,5.8,12.5,54,0.00,,---,0.00,VWS V14.01,2013-02-25 00:35:00,
2013-02-24 18:36:00,65.1,49.5,29.71,ESE,112,4.3,8.5,57,0.00,,---,0.00,VWS V14.01,2013-02-25 00:36:00,
2013-02-24 18:37:00,65.3,48.2,29.71,ESE,112,6.5,10.3,54,0.00,,---,0.00,VWS V14.01,2013-02-25 00:37:00,
2013-02-24 18:38:00,65.3,48.2,29.71,SSE,158,7.6,7.8,54,0.00,,---,0.00,VWS V14.01,2013-02-25 00:38:00,
2013-02-24 18:39:00,65.1,48.1,29.71,SSE,158,5.6,7.6,54,0.00,,---,0.00,VWS V14.01,2013-02-25 00:39:00,
2013-02-24 18:40:00,65.1,48.6,29.71,SSE,158,4.0,11.0,55,0.00,,---,0.00,VWS V14.01,2013-02-25 00:40:00,
2013-02-24 18:41:00,64.9,49.8,29.71,South,180,7.4,10.3,58,0.00,,---,0.00,VWS V14.01,2013-02-25 00:41:00,
2013-02-24 18:42:00,65.1,49.1,29.71,SSE,158,5.8,10.1,56,0.00,,---,0.00,VWS V14.01,2013-02-25 00:42:00,
2013-02-24 18:43:00,65.1,49.1,29.71,SE,135,8.1,8.1,56,0.00,,---,0.00,VWS V14.01,2013-02-25 00:43:00,
2013-02-24 18:44:00,65.1,49.1,29.71,SE,135,11.4,13.0,56,0.00,,---,0.00,VWS V14.01,2013-02-25 00:44:00,
2013-02-24 18:45:00,65.1,49.1,29.71,SE,135,8.7,11.4,56,0.00,,---,0.00,VWS V14.01,2013-02-25 00:45:00,
2013-02-24 18:46:00,64.9,50.3,29.71,SE,135,6.0,6.0,59,0.00,,---,0.00,VWS V14.01,2013-02-25 00:46:00,
2013-02-24 18:47:00,65.1,49.5,29.71,South,180,7.2,7.6,57,0.00,,---,0.00,VWS V14.01,2013-02-25 00:47:00,
2013-02-24 18:48:00,65.1,49.5,29.71,SE,135,5.8,8.5,57,0.00,,---,0.00,VWS V14.01,2013-02-25 00:48:00,
2013-02-24 18:49:00,64.9,49.4,29.71,South,180,5.6,5.8,57,0.00,,---,0.00,VWS V14.01,2013-02-25 00:49:00,
2013-02-24 18:50:00,64.9,49.4,29.71,ESE,112,5.6,5.6,57,0.00,,---,0.00,VWS V14.01,2013-02-25 00:50:00,
2013-02-24 18:51:00,64.8,50.6,29.68,SE,135,6.0,6.0,60,0.00,,---,0.00,VWS V14.01,2013-02-25 00:51:00,
2013-02-24 18:52:00,64.9,49.8,29.71,South,180,9.8,10.5,58,0.00,,---,0.00,VWS V14.01,2013-02-25 00:52:00,
2013-02-24 18:53:00,64.9,49.8,29.71,South,180,7.4,10.3,58,0.00,,---,0.00,VWS V14.01,2013-02-25 00:53:00,
2013-02-24 18:54:00,64.9,49.8,29.71,SE,135,6.0,8.1,58,0.00,,---,0.00,VWS V14.01,2013-02-25 00:54:00,
2013-02-24 18:55:00,64.9,49.8,29.71,SE,135,6.0,6.0,58,0.00,,---,0.00,VWS V14.01,2013-02-25 00:55:00,
2013-02-24 18:56:00,64.8,51.0,29.68,SE,135,6.0,6.0,61,0.00,,---,0.00,VWS V14.01,2013-02-25 00:56:00,
2013-02-24 18:57:00,64.9,50.3,29.71,SE,135,6.0,6.0,59,0.00,,---,0.00,VWS V14.01,2013-02-25 00:57:00,
2013-02-24 18:58:00,64.9,50.3,29.71,SE,135,6.0,6.0,59,0.00,,---,0.00,VWS V14.01,2013-02-25 00:58:00,
2013-02-24 18:59:00,64.9,50.3,29.71,SE,135,6.0,6.0,59,0.00,,---,0.00,VWS V14.01,2013-02-25 00:59:00,
2013-02-24 19:00:00,64.9,50.3,29.71,SE,135,6.0,6.0,59,0.00,,---,0.00,VWS V14.01,2013-02-25 01:00:00,
2013-02-24 19:01:00,64.6,51.3,29.68,SE,135,6.0,6.0,62,0.00,,---,0.00,VWS V14.01,2013-02-25 01:01:00,
2013-02-24 19:02:00,64.8,50.6,29.68,SE,135,6.0,6.0,60,0.00,,---,0.00,VWS V14.01,2013-02-25 01:02:00,
2013-02-24 19:03:00,64.8,50.6,29.68,SE,135,6.0,6.0,60,0.00,,---,0.00,VWS V14.01,2013-02-25 01:03:00,
2013-02-24 19:04:00,64.8,50.6,29.68,SE,135,6.0,6.0,60,0.00,,---,0.00,VWS V14.01,2013-02-25 01:04:00,
2013-02-24 19:05:00,64.8,50.6,29.68,SE,135,6.0,6.0,60,0.00,,---,0.00,VWS V14.01,2013-02-25 01:05:00,
2013-02-24 19:06:00,64.6,51.3,29.68,SE,135,6.0,6.0,62,0.00,,---,0.00,VWS V14.01,2013-02-25 01:06:00,
2013-02-24 19:07:00,64.8,51.0,29.68,SE,135,6.0,6.0,61,0.00,,---,0.00,VWS V14.01,2013-02-25 01:07:00,
2013-02-24 19:08:00,64.8,51.0,29.68,SE,135,6.0,6.0,61,0.00,,---,0.00,VWS V14.01,2013-02-25 01:08:00,
2013-02-24 19:09:00,64.8,51.0,29.68,SE,135,6.0,6.0,61,0.00,,---,0.00,VWS V14.01,2013-02-25 01:09:00,
2013-02-24 19:10:00,64.6,51.3,29.68,SE,135,6.0,6.0,62,0.00,,---,0.00,VWS V14.01,2013-02-25 01:10:00,
2013-02-24 19:11:00,64.6,51.3,29.68,SE,135,6.0,6.0,62,0.00,,---,0.00,VWS V14.01,2013-02-25 01:11:00,
2013-02-24 19:12:00,64.6,51.3,29.68,SE,135,6.0,6.0,62,0.00,,---,0.00,VWS V14.01,2013-02-25 01:12:00,
2013-02-24 19:13:00,64.6,51.3,29.68,SE,135,6.0,6.0,62,0.00,,---,0.00,VWS V14.01,2013-02-25 01:13:00,
2013-02-24 19:14:00,64.6,51.3,29.68,SE,135,6.0,6.0,62,0.00,,---,0.00,VWS V14.01,2013-02-25 01:14:00,
2013-02-24 19:15:00,64.6,51.3,29.68,SE,135,6.0,6.0,62,0.00,,---,0.00,VWS V14.01,2013-02-25 01:15:00,
2013-02-24 19:16:00,64.4,51.1,29.68,SE,135,6.0,6.0,62,0.00,,---,0.00,VWS V14.01,2013-02-25 01:16:00,
2013-02-24 19:17:00,64.6,51.3,29.68,SE,135,6.0,6.0,62,0.00,,---,0.00,VWS V14.01,2013-02-25 01:17:00,
2013-02-24 19:18:00,64.6,51.3,29.68,SE,135,6.0,6.0,62,0.00,,---,0.00,VWS V14.01,2013-02-25 01:18:00,
2013-02-24 19:19:00,64.6,51.3,29.68,SE,135,6.0,6.0,62,0.00,,---,0.00,VWS V14.01,2013-02-25 01:19:00,
2013-02-24 19:20:00,64.6,51.3,29.68,SE,135,6.0,6.0,62,0.00,,---,0.00,VWS V14.01,2013-02-25 01:20:00,
2013-02-24 19:21:00,64.4,51.1,29.71,SE,135,6.0,6.0,62,0.00,,---,0.00,VWS V14.01,2013-02-25 01:21:00,
2013-02-24 19:22:00,64.6,51.3,29.68,SE,135,6.0,6.0,62,0.00,,---,0.00,VWS V14.01,2013-02-25 01:22:00,
2013-02-24 19:23:00,64.6,51.3,29.68,SE,135,6.0,6.0,62,0.00,,---,0.00,VWS V14.01,2013-02-25 01:23:00,
2013-02-24 19:24:00,64.6,51.3,29.68,SE,135,6.0,6.0,62,0.00,,---,0.00,VWS V14.01,2013-02-25 01:24:00,
2013-02-24 19:25:00,64.4,51.1,29.68,SE,135,6.0,6.0,62,0.00,,---,0.00,VWS V14.01,2013-02-25 01:25:00,
2013-02-24 19:26:00,64.4,51.1,29.71,SE,135,6.0,6.0,62,0.00,,---,0.00,VWS V14.01,2013-02-25 01:26:00,
2013-02-24 19:27:00,64.4,51.1,29.68,SE,135,6.0,6.0,62,0.00,,---,0.00,VWS V14.01,2013-02-25 01:27:00,
2013-02-24 19:28:00,64.4,51.1,29.68,SE,135,6.0,6.0,62,0.00,,---,0.00,VWS V14.01,2013-02-25 01:28:00,
2013-02-24 19:29:00,64.4,51.1,29.68,SE,135,6.0,6.0,62,0.00,,---,0.00,VWS V14.01,2013-02-25 01:29:00,
2013-02-24 19:30:00,64.4,51.1,29.68,SE,135,6.0,6.0,62,0.00,,---,0.00,VWS V14.01,2013-02-25 01:30:00,
2013-02-24 19:31:00,64.1,51.2,29.71,SE,135,6.0,6.0,63,0.00,,---,0.00,VWS V14.01,2013-02-25 01:31:00,
2013-02-24 19:32:00,64.4,51.1,29.71,SE,135,6.0,6.0,62,0.00,,---,0.00,VWS V14.01,2013-02-25 01:32:00,
2013-02-24 19:33:00,64.4,51.1,29.71,SE,135,6.0,6.0,62,0.00,,---,0.00,VWS V14.01,2013-02-25 01:33:00,
2013-02-24 19:34:00,64.4,51.1,29.71,SE,135,6.0,6.0,62,0.00,,---,0.00,VWS V14.01,2013-02-25 01:34:00,
2013-02-24 19:35:00,64.4,51.1,29.71,SE,135,6.0,6.0,62,0.00,,---,0.00,VWS V14.01,2013-02-25 01:35:00,
2013-02-24 19:36:00,64.1,50.8,29.71,SE,135,6.0,6.0,62,0.00,,---,0.00,VWS V14.01,2013-02-25 01:36:00,
2013-02-24 19:37:00,64.4,51.1,29.71,SE,135,6.0,6.0,62,0.00,,---,0.00,VWS V14.01,2013-02-25 01:37:00,
2013-02-24 19:38:00,64.4,51.1,29.71,SE,135,6.0,6.0,62,0.00,,---,0.00,VWS V14.01,2013-02-25 01:38:00,
2013-02-24 19:39:00,64.2,51.4,29.71,SE,135,6.0,6.0,63,0.00,,---,0.00,VWS V14.01,2013-02-25 01:39:00,
2013-02-24 19:40:00,64.2,51.4,29.71,SE,135,6.0,6.0,63,0.00,,---,0.00,VWS V14.01,2013-02-25 01:40:00,
2013-02-24 19:41:00,64.1,50.8,29.71,SE,135,6.0,6.0,62,0.00,,---,0.00,VWS V14.01,2013-02-25 01:41:00,
2013-02-24 19:42:00,64.2,51.4,29.71,SE,135,6.0,6.0,63,0.00,,---,0.00,VWS V14.01,2013-02-25 01:42:00,
2013-02-24 19:43:00,64.1,51.2,29.71,SE,135,6.0,6.0,63,0.00,,---,0.00,VWS V14.01,2013-02-25 01:43:00,
2013-02-24 19:44:00,64.1,51.2,29.71,SE,135,6.0,6.0,63,0.00,,---,0.00,VWS V14.01,2013-02-25 01:44:00,
2013-02-24 19:45:00,64.1,50.8,29.71,SE,135,6.0,6.0,62,0.00,,---,0.00,VWS V14.01,2013-02-25 01:45:00,
2013-02-24 19:46:00,63.9,50.6,29.71,SE,135,6.0,6.0,62,0.00,,---,0.00,VWS V14.01,2013-02-25 01:46:00,
2013-02-24 19:47:00,64.1,50.8,29.71,SE,135,6.0,6.0,62,0.00,,---,0.00,VWS V14.01,2013-02-25 01:47:00,
2013-02-24 19:48:00,64.1,50.8,29.71,SE,135,6.0,6.0,62,0.00,,---,0.00,VWS V14.01,2013-02-25 01:48:00,
2013-02-24 19:49:00,64.1,50.8,29.71,SE,135,6.0,6.0,62,0.00,,---,0.00,VWS V14.01,2013-02-25 01:49:00,
2013-02-24 19:50:00,64.1,50.8,29.71,SE,135,6.0,6.0,62,0.00,,---,0.00,VWS V14.01,2013-02-25 01:50:00,
2013-02-24 19:51:00,63.7,50.5,29.71,SE,135,6.0,6.0,62,0.00,,---,0.00,VWS V14.01,2013-02-25 01:51:00,
2013-02-24 19:52:00,64.1,50.8,29.71,SE,135,6.0,6.0,62,0.00,,---,0.00,VWS V14.01,2013-02-25 01:52:00,
2013-02-24 19:53:00,64.1,50.8,29.71,SE,135,6.0,6.0,62,0.00,,---,0.00,VWS V14.01,2013-02-25 01:53:00,
2013-02-24 19:54:00,63.9,50.6,29.71,SE,135,6.0,6.0,62,0.00,,---,0.00,VWS V14.01,2013-02-25 01:54:00,
2013-02-24 19:55:00,63.9,50.6,29.71,SE,135,6.0,6.0,62,0.00,,---,0.00,VWS V14.01,2013-02-25 01:55:00,
2013-02-24 19:56:00,63.7,50.5,29.71,SE,135,6.0,6.0,62,0.00,,---,0.00,VWS V14.01,2013-02-25 01:56:00,
2013-02-24 19:57:00,63.9,50.6,29.71,SE,135,6.0,6.0,62,0.00,,---,0.00,VWS V14.01,2013-02-25 01:57:00,
2013-02-24 19:58:00,63.9,50.6,29.71,SE,135,6.0,6.0,62,0.00,,---,0.00,VWS V14.01,2013-02-25 01:58:00,
2013-02-24 20:00:00,63.9,50.2,29.71,SE,135,6.0,6.0,61,0.00,,---,0.00,VWS V14.01,2013-02-25 02:00:00,
2013-02-24 20:01:00,63.5,51.2,29.71,SE,135,6.0,6.0,64,0.00,,---,0.00,VWS V14.01,2013-02-25 02:01:00,
2013-02-24 20:02:00,63.7,50.0,29.71,SE,135,6.0,6.0,61,0.00,,---,0.00,VWS V14.01,2013-02-25 02:02:00,
2013-02-24 20:03:00,63.7,50.5,29.71,SE,135,6.0,6.0,62,0.00,,---,0.00,VWS V14.01,2013-02-25 02:03:00,
2013-02-24 20:04:00,63.7,50.5,29.71,SE,135,6.0,6.0,62,0.00,,---,0.00,VWS V14.01,2013-02-25 02:04:00,
2013-02-24 20:05:00,63.7,50.5,29.71,SE,135,6.0,6.0,62,0.00,,---,0.00,VWS V14.01,2013-02-25 02:05:00,
2013-02-24 20:06:00,63.5,51.6,29.71,SE,135,6.0,6.0,65,0.00,,---,0.00,VWS V14.01,2013-02-25 02:06:00,
2013-02-24 20:07:00,63.7,50.5,29.71,SE,135,6.0,6.0,62,0.00,,---,0.00,VWS V14.01,2013-02-25 02:07:00,
2013-02-24 20:08:00,63.7,50.5,29.71,SE,135,6.0,6.0,62,0.00,,---,0.00,VWS V14.01,2013-02-25 02:08:00,
2013-02-24 20:09:00,63.7,50.9,29.71,SE,135,6.0,6.0,63,0.00,,---,0.00,VWS V14.01,2013-02-25 02:09:00,
2013-02-24 20:10:00,63.7,50.9,29.71,SE,135,6.0,6.0,63,0.00,,---,0.00,VWS V14.01,2013-02-25 02:10:00,
2013-02-24 20:11:00,63.3,51.8,29.71,SE,135,6.0,6.0,66,0.00,,---,0.00,VWS V14.01,2013-02-25 02:11:00,
2013-02-24 20:12:00,63.5,51.2,29.71,SE,135,6.0,6.0,64,0.00,,---,0.00,VWS V14.01,2013-02-25 02:12:00,
2013-02-24 20:13:00,63.5,51.2,29.71,SE,135,6.0,6.0,64,0.00,,---,0.00,VWS V14.01,2013-02-25 02:13:00,
2013-02-24 20:14:00,63.5,51.2,29.71,SE,135,6.0,6.0,64,0.00,,---,0.00,VWS V14.01,2013-02-25 02:14:00,
2013-02-24 20:15:00,63.5,51.2,29.71,SE,135,6.0,6.0,64,0.00,,---,0.00,VWS V14.01,2013-02-25 02:15:00,
2013-02-24 20:16:00,63.2,52.0,29.71,SE,135,6.0,6.0,67,0.00,,---,0.00,VWS V14.01,2013-02-25 02:16:00,
2013-02-24 20:17:00,63.5,51.6,29.71,SE,135,6.0,6.0,65,0.00,,---,0.00,VWS V14.01,2013-02-25 02:17:00,
2013-02-24 20:18:00,63.5,51.6,29.71,SE,135,6.0,6.0,65,0.00,,---,0.00,VWS V14.01,2013-02-25 02:18:00,
2013-02-24 20:19:00,63.5,52.0,29.71,SE,135,6.0,6.0,66,0.00,,---,0.00,VWS V14.01,2013-02-25 02:19:00,
2013-02-24 20:20:00,63.3,51.8,29.71,SE,135,6.0,6.0,66,0.00,,---,0.00,VWS V14.01,2013-02-25 02:20:00,
2013-02-24 20:21:00,63.2,52.5,29.74,SE,135,10.5,12.3,68,0.00,,---,0.00,VWS V14.01,2013-02-25 02:21:00,
2013-02-24 20:22:00,63.3,51.8,29.71,SE,135,6.0,6.0,66,0.00,,---,0.00,VWS V14.01,2013-02-25 02:22:00,
2013-02-24 20:23:00,63.3,51.8,29.71,SE,135,6.0,6.0,66,0.00,,---,0.00,VWS V14.01,2013-02-25 02:23:00,
2013-02-24 20:24:00,63.3,51.8,29.71,SE,135,6.0,6.0,66,0.00,,---,0.00,VWS V14.01,2013-02-25 02:24:00,
2013-02-24 20:25:00,63.3,51.8,29.71,SE,135,6.0,6.0,66,0.00,,---,0.00,VWS V14.01,2013-02-25 02:25:00,
2013-02-24 20:26:00,63.0,53.1,29.74,SSE,158,12.1,15.4,70,0.00,,---,0.00,VWS V14.01,2013-02-25 02:26:00,
2013-02-24 20:27:00,63.2,52.0,29.71,SE,135,6.0,6.0,67,0.00,,---,0.00,VWS V14.01,2013-02-25 02:27:00,
2013-02-24 20:28:00,63.2,52.0,29.71,SE,135,6.0,6.0,67,0.00,,---,0.00,VWS V14.01,2013-02-25 02:28:00,
2013-02-24 20:29:00,63.2,52.0,29.71,SE,135,6.0,6.0,67,0.00,,---,0.00,VWS V14.01,2013-02-25 02:29:00,
2013-02-24 20:30:00,63.2,52.0,29.71,SE,135,6.0,6.0,67,0.00,,---,0.00,VWS V14.01,2013-02-25 02:30:00,
2013-02-24 20:31:00,62.8,53.3,29.74,South,180,13.2,13.2,71,0.00,,---,0.00,VWS V14.01,2013-02-25 02:31:00,
2013-02-24 20:32:00,63.2,52.5,29.74,SE,135,10.1,12.3,68,0.00,,---,0.00,VWS V14.01,2013-02-25 02:32:00,
2013-02-24 20:33:00,63.2,52.5,29.74,SE,135,10.5,12.3,68,0.00,,---,0.00,VWS V14.01,2013-02-25 02:33:00,
2013-02-24 20:35:00,63.0,52.7,29.74,SE,135,11.9,11.9,69,0.00,,---,0.00,VWS V14.01,2013-02-25 02:35:00,
2013-02-24 20:36:00,62.5,53.3,29.71,ESE,112,10.1,10.1,72,0.00,,---,0.00,VWS V14.01,2013-02-25 02:36:00,
2013-02-24 20:38:00,63.0,53.1,29.74,SSE,158,12.1,15.4,70,0.00,,---,0.00,VWS V14.01,2013-02-25 02:38:00,
2013-02-24 20:39:00,63.0,53.1,29.74,SSE,158,12.3,17.0,70,0.00,,---,0.00,VWS V14.01,2013-02-25 02:39:00,
2013-02-24 20:40:00,62.8,53.3,29.74,SE,135,14.5,14.5,71,0.00,,---,0.00,VWS V14.01,2013-02-25 02:40:00,
2013-02-24 20:41:00,62.1,53.4,29.71,SE,135,7.6,7.6,73,0.00,,---,0.00,VWS V14.01,2013-02-25 02:41:00,
2013-02-24 20:42:00,62.8,53.3,29.74,ESE,112,8.5,8.7,71,0.00,,---,0.00,VWS V14.01,2013-02-25 02:42:00,
2013-02-24 20:43:00,62.8,53.3,29.74,South,180,13.2,13.2,71,0.00,,---,0.00,VWS V14.01,2013-02-25 02:43:00,
2013-02-24 20:44:00,62.6,53.1,29.74,SE,135,11.0,13.2,71,0.00,,---,0.00,VWS V14.01,2013-02-25 02:44:00,
2013-02-24 20:45:00,62.6,53.1,29.74,South,180,12.5,13.4,71,0.00,,---,0.00,VWS V14.01,2013-02-25 02:45:00,
2013-02-24 20:46:00,62.1,53.4,29.71,SE,135,8.1,8.1,73,0.00,,---,0.00,VWS V14.01,2013-02-25 02:46:00,
2013-02-24 20:47:00,62.5,53.0,29.71,SE,135,8.1,8.1,71,0.00,,---,0.00,VWS V14.01,2013-02-25 02:47:00,
2013-02-24 20:48:00,62.5,53.3,29.71,SE,135,5.4,8.1,72,0.00,,---,0.00,VWS V14.01,2013-02-25 02:48:00,
2013-02-24 20:49:00,62.3,53.2,29.71,SSE,158,4.3,10.1,72,0.00,,---,0.00,VWS V14.01,2013-02-25 02:49:00,
2013-02-24 20:50:00,62.3,53.2,29.71,SSW,202,6.3,8.1,72,0.00,,---,0.00,VWS V14.01,2013-02-25 02:50:00,
2013-02-24 20:51:00,61.9,53.2,29.71,SSE,158,7.4,8.7,73,0.00,,---,0.00,VWS V14.01,2013-02-25 02:51:00,
2013-02-24 20:52:00,62.1,53.0,29.71,East,90,8.5,8.5,72,0.00,,---,0.00,VWS V14.01,2013-02-25 02:52:00,
2013-02-24 20:53:00,62.1,53.4,29.71,SE,135,7.6,10.1,73,0.00,,---,0.00,VWS V14.01,2013-02-25 02:53:00,
2013-02-24 20:54:00,62.1,53.4,29.71,ESE,112,7.8,9.6,73,0.00,,---,0.00,VWS V14.01,2013-02-25 02:54:00,
2013-02-24 20:55:00,62.1,53.4,29.71,SE,135,6.0,10.5,73,0.00,,---,0.00,VWS V14.01,2013-02-25 02:55:00,
2013-02-24 20:56:00,61.9,53.6,29.71,SSE,158,7.6,7.6,74,0.00,,---,0.00,VWS V14.01,2013-02-25 02:56:00,
2013-02-24 20:57:00,62.1,53.4,29.71,SSE,158,11.9,11.9,73,0.00,,---,0.00,VWS V14.01,2013-02-25 02:57:00,
2013-02-24 20:58:00,62.1,53.4,29.71,SE,135,8.1,11.9,73,0.00,,---,0.00,VWS V14.01,2013-02-25 02:58:00,
2013-02-24 20:59:00,62.1,53.4,29.71,South,180,10.5,10.5,73,0.00,,---,0.00,VWS V14.01,2013-02-25 02:59:00,
2013-02-24 21:00:00,61.9,53.2,29.71,SE,135,6.7,12.5,73,0.00,,---,0.00,VWS V14.01,2013-02-25 03:00:00,
2013-02-24 21:01:00,61.8,53.8,29.71,ESE,112,5.4,5.4,75,0.00,,---,0.00,VWS V14.01,2013-02-25 03:01:00,
2013-02-24 21:02:00,61.9,53.6,29.71,SE,135,4.0,8.7,74,0.00,,---,0.00,VWS V14.01,2013-02-25 03:02:00,
2013-02-24 21:03:00,61.9,53.2,29.71,SE,135,8.7,8.7,73,0.00,,---,0.00,VWS V14.01,2013-02-25 03:03:00,
2013-02-24 21:04:00,61.9,53.2,29.71,SE,135,4.7,8.7,73,0.00,,---,0.00,VWS V14.01,2013-02-25 03:04:00,
2013-02-24 21:05:00,61.8,53.0,29.71,SSE,158,2.9,5.4,73,0.00,,---,0.00,VWS V14.01,2013-02-25 03:05:00,
2013-02-24 21:06:00,61.9,54.3,29.71,ESE,112,8.5,8.5,76,0.00,,---,0.00,VWS V14.01,2013-02-25 03:06:00,
2013-02-24 21:08:00,61.9,53.6,29.71,SE,135,5.4,9.6,74,0.00,,---,0.00,VWS V14.01,2013-02-25 03:08:00,
2013-02-24 21:10:00,61.9,53.9,29.71,South,180,7.6,10.3,75,0.00,,---,0.00,VWS V14.01,2013-02-25 03:10:00,
2013-02-24 21:11:00,61.9,54.3,29.71,ESE,112,5.4,6.5,76,0.00,,---,0.00,VWS V14.01,2013-02-25 03:11:00,
2013-02-24 21:12:00,61.8,53.8,29.71,South,180,6.0,10.7,75,0.00,,---,0.00,VWS V14.01,2013-02-25 03:12:00,
2013-02-24 21:13:00,61.8,53.8,29.71,ESE,112,5.4,6.3,75,0.00,,---,0.00,VWS V14.01,2013-02-25 03:13:00,
2013-02-24 21:14:00,61.8,53.8,29.71,SSE,158,8.1,8.1,75,0.00,,---,0.00,VWS V14.01,2013-02-25 03:14:00,
2013-02-24 21:15:00,61.8,53.8,29.71,SE,135,6.0,8.1,75,0.00,,---,0.00,VWS V14.01,2013-02-25 03:15:00,
2013-02-24 21:16:00,61.9,54.3,29.71,ESE,112,8.5,10.3,76,0.00,,---,0.00,VWS V14.01,2013-02-25 03:16:00,
2013-02-24 21:17:00,61.8,54.1,29.71,SE,135,8.5,10.1,76,0.00,,---,0.00,VWS V14.01,2013-02-25 03:17:00,
2013-02-24 21:18:00,61.8,54.1,29.71,ESE,112,8.5,9.2,76,0.00,,---,0.00,VWS V14.01,2013-02-25 03:18:00,
2013-02-24 21:19:00,61.9,54.3,29.71,ESE,112,8.5,8.5,76,0.00,,---,0.00,VWS V14.01,2013-02-25 03:19:00,
2013-02-24 21:20:00,61.9,54.3,29.71,SSE,158,11.0,11.0,76,0.00,,---,0.00,VWS V14.01,2013-02-25 03:20:00,
2013-02-24 21:21:00,61.9,54.7,29.71,SSE,158,5.6,6.7,77,0.00,,---,0.00,VWS V14.01,2013-02-25 03:21:00,
2013-02-24 21:22:00,61.9,53.9,29.71,SE,135,9.8,9.8,75,0.00,,---,0.00,VWS V14.01,2013-02-25 03:22:00,
2013-02-24 21:24:00,61.9,54.3,29.71,SE,135,5.4,10.1,76,0.00,,---,0.00,VWS V14.01,2013-02-25 03:24:00,
2013-02-24 21:25:00,61.9,54.3,29.71,SSE,158,6.0,8.5,76,0.00,,---,0.00,VWS V14.01,2013-02-25 03:25:00,
2013-02-24 21:26:00,61.9,54.3,29.71,SE,135,7.8,7.8,76,0.00,,---,0.00,VWS V14.01,2013-02-25 03:26:00,
2013-02-24 21:27:00,61.9,54.3,29.71,SE,135,7.4,10.3,76,0.00,,---,0.00,VWS V14.01,2013-02-25 03:27:00,
2013-02-24 21:28:00,61.9,54.3,29.71,SE,135,10.3,10.3,76,0.00,,---,0.00,VWS V14.01,2013-02-25 03:28:00,
2013-02-24 21:29:00,61.9,54.7,29.71,SE,135,10.3,10.5,77,0.00,,---,0.00,VWS V14.01,2013-02-25 03:29:00,
2013-02-24 21:30:00,61.9,54.7,29.71,SSE,158,9.4,13.0,77,0.00,,---,0.00,VWS V14.01,2013-02-25 03:30:00,
2013-02-24 21:31:00,61.8,54.1,29.71,SE,135,6.0,6.0,76,0.00,,---,0.00,VWS V14.01,2013-02-25 03:31:00,
2013-02-24 21:32:00,61.9,54.7,29.71,SE,135,3.1,9.6,77,0.00,,---,0.00,VWS V14.01,2013-02-25 03:32:00,
2013-02-24 21:33:00,61.9,54.7,29.71,ESE,112,6.7,7.8,77,0.00,,---,0.00,VWS V14.01,2013-02-25 03:33:00,
2013-02-24 21:34:00,61.9,54.7,29.71,SE,135,7.6,7.6,77,0.00,,---,0.00,VWS V14.01,2013-02-25 03:34:00,
2013-02-24 21:35:00,61.9,54.7,29.71,SSE,158,5.4,11.0,77,0.00,,---,0.00,VWS V14.01,2013-02-25 03:35:00,
2013-02-24 21:36:00,61.8,54.5,29.71,East,90,5.4,8.1,77,0.00,,---,0.00,VWS V14.01,2013-02-25 03:36:00,
2013-02-24 21:37:00,61.9,54.7,29.71,SE,135,7.4,9.6,77,0.00,,---,0.00,VWS V14.01,2013-02-25 03:37:00,
2013-02-24 21:38:00,61.9,54.3,29.71,ENE,68,6.3,7.8,76,0.00,,---,0.00,VWS V14.01,2013-02-25 03:38:00,
2013-02-24 21:39:00,61.8,54.5,29.71,SE,135,6.5,8.1,77,0.00,,---,0.00,VWS V14.01,2013-02-25 03:39:00,
2013-02-24 21:40:00,61.8,54.5,29.71,ESE,112,5.6,6.5,77,0.00,,---,0.00,VWS V14.01,2013-02-25 03:40:00,
2013-02-24 21:41:00,61.8,54.5,29.71,East,90,6.3,6.3,77,0.00,,---,0.00,VWS V14.01,2013-02-25 03:41:00,
2013-02-24 21:42:00,61.8,54.5,29.71,SSE,158,8.1,9.8,77,0.00,,---,0.00,VWS V14.01,2013-02-25 03:42:00,
2013-02-24 21:43:00,61.8,54.1,29.71,SE,135,6.0,8.1,76,0.00,,---,0.00,VWS V14.01,2013-02-25 03:43:00,
2013-02-24 21:44:00,61.8,54.5,29.71,ESE,112,10.7,10.7,77,0.00,,---,0.00,VWS V14.01,2013-02-25 03:44:00,
2013-02-24 21:45:00,61.8,54.5,29.71,SE,135,5.8,10.7,77,0.00,,---,0.00,VWS V14.01,2013-02-25 03:45:00,
2013-02-24 21:46:00,61.6,54.3,29.71,SE,135,12.1,12.1,77,0.00,,---,0.00,VWS V14.01,2013-02-25 03:46:00,
2013-02-24 21:47:00,61.8,54.5,29.71,SE,135,10.3,10.3,77,0.00,,---,0.00,VWS V14.01,2013-02-25 03:47:00,
2013-02-24 21:48:00,61.8,54.5,29.71,ESE,112,5.8,10.5,77,0.00,,---,0.00,VWS V14.01,2013-02-25 03:48:00,
2013-02-24 21:49:00,61.8,54.1,29.71,South,180,7.2,8.1,76,0.00,,---,0.00,VWS V14.01,2013-02-25 03:49:00,
2013-02-24 21:50:00,61.8,54.5,29.71,SE,135,6.3,12.1,77,0.00,,---,0.00,VWS V14.01,2013-02-25 03:50:00,
2013-02-24 21:51:00,61.4,54.5,29.68,SE,135,6.0,6.0,78,0.00,,---,0.00,VWS V14.01,2013-02-25 03:51:00,
2013-02-24 21:52:00,61.8,54.5,29.71,SSE,158,6.5,9.6,77,0.00,,---,0.00,VWS V14.01,2013-02-25 03:52:00,
2013-02-24 21:53:00,61.8,54.5,29.71,East,90,6.3,7.8,77,0.00,,---,0.00,VWS V14.01,2013-02-25 03:53:00,
2013-02-24 21:54:00,61.8,54.5,29.71,SE,135,6.0,8.1,77,0.00,,---,0.00,VWS V14.01,2013-02-25 03:54:00,
2013-02-24 21:55:00,61.8,54.5,29.71,SSE,158,7.6,9.0,77,0.00,,---,0.00,VWS V14.01,2013-02-25 03:55:00,
2013-02-24 21:56:00,61.6,54.7,29.68,South,180,4.9,13.0,78,0.00,,---,0.00,VWS V14.01,2013-02-25 03:56:00,
2013-02-24 21:57:00,61.6,54.3,29.71,SE,135,3.4,6.0,77,0.00,,---,0.00,VWS V14.01,2013-02-25 03:57:00,
2013-02-24 21:58:00,61.6,54.3,29.71,ESE,112,5.4,6.5,77,0.00,,---,0.00,VWS V14.01,2013-02-25 03:58:00,
2013-02-24 21:59:00,61.6,54.3,29.71,SSE,158,4.9,12.1,77,0.00,,---,0.00,VWS V14.01,2013-02-25 03:59:00,
2013-02-24 22:00:00,61.6,54.3,29.71,SE,135,7.4,7.8,77,0.00,,---,0.00,VWS V14.01,2013-02-25 04:00:00,
2013-02-24 22:01:00,61.6,54.7,29.68,SE,135,7.2,10.3,78,0.00,,---,0.00,VWS V14.01,2013-02-25 04:01:00,
2013-02-24 22:02:00,61.4,54.1,29.68,SE,135,12.8,12.8,77,0.00,,---,0.00,VWS V14.01,2013-02-25 04:02:00,
2013-02-24 22:03:00,61.4,54.5,29.68,SE,135,5.4,12.8,78,0.00,,---,0.00,VWS V14.01,2013-02-25 04:03:00,
2013-02-24 22:04:00,61.4,54.5,29.68,SE,135,5.6,12.5,78,0.00,,---,0.00,VWS V14.01,2013-02-25 04:04:00,
2013-02-24 22:05:00,61.6,54.7,29.68,SE,135,7.6,13.2,78,0.00,,---,0.00,VWS V14.01,2013-02-25 04:05:00,
2013-02-24 22:06:00,61.4,54.5,29.65,SE,135,5.4,5.4,78,0.00,,---,0.00,VWS V14.01,2013-02-25 04:06:00,
2013-02-24 22:07:00,61.6,54.7,29.68,East,90,12.8,12.8,78,0.00,,---,0.00,VWS V14.01,2013-02-25 04:07:00,
2013-02-24 22:08:00,61.6,54.7,29.68,South,180,13.0,13.0,78,0.00,,---,0.00,VWS V14.01,2013-02-25 04:08:00,
2013-02-24 22:09:00,61.6,54.7,29.68,SSW,202,7.8,13.0,78,0.00,,---,0.00,VWS V14.01,2013-02-25 04:09:00,
2013-02-24 22:10:00,61.6,54.7,29.68,SE,135,17.7,17.7,78,0.00,,---,0.00,VWS V14.01,2013-02-25 04:10:00,
2013-02-24 22:11:00,61.4,54.5,29.65,SSE,158,7.8,10.7,78,0.00,,---,0.00,VWS V14.01,2013-02-25 04:11:00,
2013-02-24 22:12:00,61.6,54.7,29.68,SSE,158,8.7,11.0,78,0.00,,---,0.00,VWS V14.01,2013-02-25 04:12:00,
2013-02-24 22:13:00,61.6,54.7,29.68,SSE,158,7.6,8.7,78,0.00,,---,0.00,VWS V14.01,2013-02-25 04:13:00,
2013-02-24 22:14:00,61.6,54.7,29.68,ESE,112,7.8,11.0,78,0.00,,---,0.00,VWS V14.01,2013-02-25 04:14:00,
2013-02-24 22:15:00,61.6,54.7,29.68,ESE,112,12.1,12.5,78,0.00,,---,0.00,VWS V14.01,2013-02-25 04:15:00,
2013-02-24 22:16:00,61.4,54.8,29.65,South,180,7.6,7.6,79,0.00,,---,0.00,VWS V14.01,2013-02-25 04:16:00,
2013-02-24 22:17:00,61.4,54.5,29.65,SE,135,4.3,12.8,78,0.00,,---,0.00,VWS V14.01,2013-02-25 04:17:00,
2013-02-24 22:18:00,61.4,54.5,29.65,SE,135,3.6,8.5,78,0.00,,---,0.00,VWS V14.01,2013-02-25 04:18:00,
2013-02-24 22:19:00,61.4,54.5,29.65,SE,135,8.1,8.5,78,0.00,,---,0.00,VWS V14.01,2013-02-25 04:19:00,
2013-02-24 22:20:00,61.4,54.5,29.65,SSE,158,12.3,12.3,78,0.00,,---,0.00,VWS V14.01,2013-02-25 04:20:00,
2013-02-24 22:21:00,61.4,54.8,29.68,SE,135,6.7,6.7,79,0.00,,---,0.00,VWS V14.01,2013-02-25 04:21:00,
2013-02-24 22:22:00,61.4,54.5,29.65,SE,135,6.0,7.4,78,0.00,,---,0.00,VWS V14.01,2013-02-25 04:22:00,
2013-02-24 22:23:00,61.4,54.5,29.65,ESE,112,10.7,10.7,78,0.00,,---,0.00,VWS V14.01,2013-02-25 04:23:00,
2013-02-24 22:24:00,61.4,54.8,29.65,ESE,112,8.1,10.7,79,0.00,,---,0.00,VWS V14.01,2013-02-25 04:24:00,
2013-02-24 22:25:00,61.4,54.8,29.65,SE,135,7.4,8.1,79,0.00,,---,0.00,VWS V14.01,2013-02-25 04:25:00,
2013-02-24 22:26:00,61.4,54.8,29.65,SE,135,9.4,12.1,79,0.00,,---,0.00,VWS V14.01,2013-02-25 04:26:00,
2013-02-24 22:27:00,61.4,54.8,29.68,ESE,112,6.0,7.2,79,0.00,,---,0.00,VWS V14.01,2013-02-25 04:27:00,
2013-02-24 22:28:00,61.4,54.8,29.65,East,90,7.6,13.2,79,0.00,,---,0.00,VWS V14.01,2013-02-25 04:28:00,
2013-02-24 22:29:00,61.4,54.8,29.65,SSE,158,7.8,8.7,79,0.00,,---,0.00,VWS V14.01,2013-02-25 04:29:00,
2013-02-24 22:30:00,61.4,54.8,29.65,SE,135,5.6,7.8,79,0.00,,---,0.00,VWS V14.01,2013-02-25 04:30:00,
2013-02-24 22:31:00,61.4,54.8,29.65,ESE,112,8.5,10.1,79,0.00,,---,0.00,VWS V14.01,2013-02-25 04:31:00,
2013-02-24 22:32:00,61.4,55.2,29.68,ESE,112,8.7,8.7,80,0.00,,---,0.00,VWS V14.01,2013-02-25 04:32:00,
2013-02-24 22:33:00,61.4,54.8,29.68,SSE,158,5.6,8.1,79,0.00,,---,0.00,VWS V14.01,2013-02-25 04:33:00,
2013-02-24 22:34:00,61.4,54.8,29.68,ESE,112,7.6,9.8,79,0.00,,---,0.00,VWS V14.01,2013-02-25 04:34:00,
2013-02-24 22:35:00,61.4,55.2,29.68,SE,135,4.3,8.7,80,0.00,,---,0.00,VWS V14.01,2013-02-25 04:35:00,
2013-02-24 22:36:00,61.4,55.2,29.68,ESE,112,7.6,9.6,80,0.00,,---,0.00,VWS V14.01,2013-02-25 04:36:00,
2013-02-24 22:37:00,61.2,55.0,29.65,SE,135,6.5,14.3,80,0.00,,---,0.00,VWS V14.01,2013-02-25 04:37:00,
2013-02-24 22:38:00,61.4,54.8,29.68,ESE,112,5.8,7.6,79,0.00,,---,0.00,VWS V14.01,2013-02-25 04:38:00,
2013-02-24 22:39:00,61.4,54.8,29.68,South,180,11.9,11.9,79,0.00,,---,0.00,VWS V14.01,2013-02-25 04:39:00,
2013-02-24 22:40:00,61.4,54.8,29.68,SE,135,4.3,11.9,79,0.00,,---,0.00,VWS V14.01,2013-02-25 04:40:00,
2013-02-24 22:41:00,61.4,54.8,29.68,SSE,158,8.5,8.5,79,0.00,,---,0.00,VWS V14.01,2013-02-25 04:41:00,
2013-02-24 22:42:00,61.2,55.3,29.65,East,90,8.7,9.2,81,0.00,,---,0.00,VWS V14.01,2013-02-25 04:42:00,
2013-02-24 22:43:00,61.4,55.2,29.68,South,180,7.4,10.1,80,0.00,,---,0.00,VWS V14.01,2013-02-25 04:43:00,
2013-02-24 22:44:00,61.2,55.0,29.68,SE,135,4.9,8.7,80,0.00,,---,0.00,VWS V14.01,2013-02-25 04:44:00,
2013-02-24 22:45:00,61.2,55.0,29.68,East,90,10.5,10.5,80,0.00,,---,0.00,VWS V14.01,2013-02-25 04:45:00,
2013-02-24 22:46:00,61.2,55.0,29.68,SSE,158,10.7,13.0,80,0.00,,---,0.00,VWS V14.01,2013-02-25 04:46:00,
2013-02-24 22:47:00,61.0,55.2,29.65,SE,135,11.2,11.2,81,0.00,,---,0.00,VWS V14.01,2013-02-25 04:47:00,
2013-02-24 22:48:00,61.2,55.0,29.65,SE,135,10.3,10.3,80,0.00,,---,0.00,VWS V14.01,2013-02-25 04:48:00,
2013-02-24 22:49:00,61.2,55.0,29.65,SE,135,14.5,14.5,80,0.00,,---,0.00,VWS V14.01,2013-02-25 04:49:00,
2013-02-24 22:50:00,61.2,55.3,29.65,SE,135,9.8,14.5,81,0.00,,---,0.00,VWS V14.01,2013-02-25 04:50:00,
2013-02-24 22:52:00,61.0,55.5,29.65,SE,135,12.1,12.1,82,0.00,,---,0.00,VWS V14.01,2013-02-25 04:52:00,
2013-02-24 22:53:00,61.2,55.3,29.65,SE,135,6.0,12.5,81,0.00,,---,0.00,VWS V14.01,2013-02-25 04:53:00,
2013-02-24 22:54:00,61.2,55.3,29.65,SE,135,7.6,9.2,81,0.00,,---,0.00,VWS V14.01,2013-02-25 04:54:00,
2013-02-24 22:55:00,61.0,55.2,29.65,SSE,158,9.8,9.8,81,0.00,,---,0.00,VWS V14.01,2013-02-25 04:55:00,
2013-02-24 22:56:00,61.0,55.2,29.65,SE,135,8.5,9.8,81,0.00,,---,0.00,VWS V14.01,2013-02-25 04:56:00,
2013-02-24 22:57:00,60.9,55.3,29.65,ESE,112,4.3,10.3,82,0.00,,---,0.00,VWS V14.01,2013-02-25 04:57:00,
2013-02-24 22:58:00,61.0,55.2,29.65,SSE,158,6.5,12.5,81,0.00,,---,0.00,VWS V14.01,2013-02-25 04:58:00,
2013-02-24 22:59:00,61.0,55.2,29.65,SE,135,12.3,12.3,81,0.00,,---,0.00,VWS V14.01,2013-02-25 04:59:00,
2013-02-24 23:00:00,60.9,55.3,29.65,East,90,5.8,10.1,82,0.00,,---,0.00,VWS V14.01,2013-02-25 05:00:00,
2013-02-24 23:01:00,61.0,55.2,29.65,ESE,112,5.8,12.1,81,0.00,,---,0.00,VWS V14.01,2013-02-25 05:01:00,
2013-02-24 23:02:00,61.0,55.2,29.65,SE,135,11.2,11.2,81,0.00,,---,0.00,VWS V14.01,2013-02-25 05:02:00,
2013-02-24 23:03:00,61.0,55.5,29.65,South,180,6.5,12.8,82,0.00,,---,0.00,VWS V14.01,2013-02-25 05:03:00,
2013-02-24 23:04:00,61.0,55.5,29.65,SE,135,10.5,12.1,82,0.00,,---,0.00,VWS V14.01,2013-02-25 05:04:00,
2013-02-24 23:05:00,60.9,55.3,29.62,ESE,112,11.0,11.0,82,0.00,,---,0.00,VWS V14.01,2013-02-25 05:05:00,
2013-02-24 23:06:00,61.0,55.5,29.65,SE,135,8.5,15.4,82,0.00,,---,0.00,VWS V14.01,2013-02-25 05:06:00,
2013-02-24 23:07:00,61.0,55.5,29.65,SE,135,8.1,9.2,82,0.00,,---,0.00,VWS V14.01,2013-02-25 05:07:00,
2013-02-24 23:08:00,60.9,55.3,29.65,ESE,112,10.3,11.9,82,0.00,,---,0.00,VWS V14.01,2013-02-25 05:08:00,
2013-02-24 23:09:00,60.9,55.3,29.65,ESE,112,4.3,10.3,82,0.00,,---,0.00,VWS V14.01,2013-02-25 05:09:00,
2013-02-24 23:10:00,60.9,55.3,29.62,SE,135,10.3,14.5,82,0.00,,---,0.00,VWS V14.01,2013-02-25 05:10:00,
2013-02-24 23:11:00,60.9,55.3,29.65,SE,135,10.1,14.1,82,0.00,,---,0.00,VWS V14.01,2013-02-25 05:11:00,
2013-02-24 23:12:00,60.9,55.3,29.65,East,90,5.6,10.1,82,0.00,,---,0.00,VWS V14.01,2013-02-25 05:12:00,
2013-02-24 23:13:00,60.9,55.3,29.65,ESE,112,11.4,11.4,82,0.00,,---,0.00,VWS V14.01,2013-02-25 05:13:00,
2013-02-24 23:14:00,60.9,55.3,29.65,ESE,112,9.4,12.8,82,0.00,,---,0.00,VWS V14.01,2013-02-25 05:14:00,
2013-02-24 23:15:00,60.9,55.3,29.62,SE,135,10.3,10.3,82,0.00,,---,0.00,VWS V14.01,2013-02-25 05:15:00,
2013-02-24 23:16:00,60.9,55.3,29.65,ESE,112,6.5,13.0,82,0.00,,---,0.00,VWS V14.01,2013-02-25 05:16:00,
2013-02-24 23:17:00,60.9,55.3,29.62,ESE,112,11.0,11.0,82,0.00,,---,0.00,VWS V14.01,2013-02-25 05:17:00,
2013-02-24 23:18:00,60.9,55.3,29.62,SE,135,12.5,12.5,82,0.00,,---,0.00,VWS V14.01,2013-02-25 05:18:00,
2013-02-24 23:19:00,60.9,55.3,29.62,ESE,112,6.5,12.8,82,0.00,,---,0.00,VWS V14.01,2013-02-25 05:19:00,
2013-02-24 23:20:00,60.7,55.5,29.62,ESE,112,9.8,13.0,83,0.00,,---,0.00,VWS V14.01,2013-02-25 05:20:00,
2013-02-24 23:21:00,60.9,55.3,29.62,SE,135,14.5,14.5,82,0.00,,---,0.00,VWS V14.01,2013-02-25 05:21:00,
2013-02-24 23:22:00,60.9,55.3,29.62,SE,135,10.3,14.5,82,0.00,,---,0.00,VWS V14.01,2013-02-25 05:22:00,
2013-02-24 23:23:00,60.9,55.3,29.62,SE,135,8.1,10.3,82,0.00,,---,0.00,VWS V14.01,2013-02-25 05:23:00,
2013-02-24 23:24:00,60.9,55.3,29.62,ESE,112,8.1,8.7,82,0.00,,---,0.00,VWS V14.01,2013-02-25 05:24:00,
2013-02-24 23:25:00,60.7,55.5,29.62,SE,135,3.8,7.4,83,0.00,,---,0.00,VWS V14.01,2013-02-25 05:25:00,
2013-02-24 23:26:00,60.7,55.2,29.62,ENE,68,10.3,10.3,82,0.00,,---,0.00,VWS V14.01,2013-02-25 05:26:00,
2013-02-24 23:27:00,60.9,55.3,29.62,SE,135,10.3,10.3,82,0.00,,---,0.00,VWS V14.01,2013-02-25 05:27:00,
2013-02-24 23:28:00,60.7,55.5,29.62,SE,135,7.6,10.7,83,0.00,,---,0.00,VWS V14.01,2013-02-25 05:28:00,
2013-02-24 23:29:00,60.7,55.5,29.62,ESE,112,12.8,12.8,83,0.00,,---,0.00,VWS V14.01,2013-02-25 05:29:00,
2013-02-24 23:30:00,60.7,55.8,29.62,SE,135,5.4,8.7,84,0.00,,---,0.00,VWS V14.01,2013-02-25 05:30:00,
2013-02-24 23:31:00,60.7,55.5,29.62,SE,135,13.0,13.4,83,0.00,,---,0.00,VWS V14.01,2013-02-25 05:31:00,
2013-02-24 23:32:00,60.7,55.5,29.62,ESE,112,9.8,13.0,83,0.00,,---,0.00,VWS V14.01,2013-02-25 05:32:00,
2013-02-24 23:33:00,60.7,55.5,29.62,ESE,112,9.2,9.8,83,0.00,,---,0.00,VWS V14.01,2013-02-25 05:33:00,
2013-02-24 23:34:00,60.7,55.5,29.62,South,180,5.8,10.5,83,0.00,,---,0.00,VWS V14.01,2013-02-25 05:34:00,
2013-02-24 23:35:00,60.7,55.8,29.62,East,90,9.8,9.8,84,0.00,,---,0.00,VWS V14.01,2013-02-25 05:35:00,
2013-02-24 23:36:00,60.7,55.5,29.62,South,180,5.8,10.7,83,0.00,,---,0.00,VWS V14.01,2013-02-25 05:36:00,
2013-02-24 23:37:00,60.7,55.5,29.62,SE,135,3.8,7.4,83,0.00,,---,0.00,VWS V14.01,2013-02-25 05:37:00,
2013-02-24 23:38:00,60.7,55.5,29.62,ESE,112,15.7,15.7,83,0.00,,---,0.00,VWS V14.01,2013-02-25 05:38:00,
2013-02-24 23:39:00,60.7,55.5,29.62,SSE,158,8.5,15.7,83,0.00,,---,0.00,VWS V14.01,2013-02-25 05:39:00,
2013-02-24 23:40:00,60.7,56.2,29.62,ESE,112,8.5,11.2,85,0.00,,---,0.00,VWS V14.01,2013-02-25 05:40:00,
2013-02-24 23:41:00,60.7,55.5,29.62,South,180,8.5,11.9,83,0.00,,---,0.00,VWS V14.01,2013-02-25 05:41:00,
2013-02-24 23:42:00,60.7,55.8,29.62,SE,135,5.4,8.7,84,0.00,,---,0.00,VWS V14.01,2013-02-25 05:42:00,
2013-02-24 23:43:00,60.7,55.8,29.62,SE,135,5.4,9.2,84,0.00,,---,0.00,VWS V14.01,2013-02-25 05:43:00,
2013-02-24 23:44:00,60.7,55.8,29.62,ESE,112,10.5,14.1,84,0.00,,---,0.00,VWS V14.01,2013-02-25 05:44:00,
2013-02-24 23:45:00,60.5,56.3,29.62,SE,135,10.3,10.3,86,0.00,,---,0.00,VWS V14.01,2013-02-25 05:45:00,
2013-02-24 23:46:00,60.7,55.8,29.62,South,180,6.3,8.7,84,0.00,,---,0.00,VWS V14.01,2013-02-25 05:46:00,
2013-02-24 23:47:00,60.7,55.8,29.62,East,90,9.8,9.8,84,0.00,,---,0.00,VWS V14.01,2013-02-25 05:47:00,
2013-02-24 23:48:00,60.7,55.8,29.62,ESE,112,13.4,13.4,84,0.00,,---,0.00,VWS V14.01,2013-02-25 05:48:00,
2013-02-24 23:49:00,60.7,56.2,29.62,SSE,158,10.3,14.8,85,0.00,,---,0.00,VWS V14.01,2013-02-25 05:49:00,
2013-02-24 23:50:00,60.5,56.3,29.59,SE,135,7.6,9.8,86,0.00,,---,0.00,VWS V14.01,2013-02-25 05:50:00,
2013-02-24 23:51:00,60.7,56.2,29.62,ESE,112,11.2,13.2,85,0.00,,---,0.00,VWS V14.01,2013-02-25 05:51:00,
2013-02-24 23:52:00,60.7,56.2,29.62,ESE,112,8.5,11.2,85,0.00,,---,0.00,VWS V14.01,2013-02-25 05:52:00,
2013-02-24 23:53:00,60.7,56.2,29.62,SE,135,11.4,21.5,85,0.00,,---,0.00,VWS V14.01,2013-02-25 05:53:00,
2013-02-24 23:54:00,60.7,56.2,29.62,SE,135,8.1,11.4,85,0.00,,---,0.00,VWS V14.01,2013-02-25 05:54:00,
2013-02-24 23:55:00,60.3,56.5,29.59,SE,135,9.2,12.8,87,0.00,,---,0.00,VWS V14.01,2013-02-25 05:55:00,
2013-02-24 23:56:00,60.7,56.2,29.62,SSE,158,6.0,11.0,85,0.00,,---,0.00,VWS V14.01,2013-02-25 05:56:00,
2013-02-24 23:57:00,60.5,56.3,29.62,SE,135,10.3,10.3,86,0.00,,---,0.00,VWS V14.01,2013-02-25 05:57:00,
2013-02-24 23:58:00,60.5,56.3,29.62,SSE,158,6.7,12.5,86,0.00,,---,0.00,VWS V14.01,2013-02-25 05:58:00,
2013-02-24 23:59:00,60.5,56.3,29.62,SE,135,7.6,11.0,86,0.00,,---,0.00,VWS V14.01,2013-02-25 05:59:00,